[[{"header":{"parameterUnit":"m.s-1","parameterCategory":1,"la1":31.0,"la2":29.5877,"lo1":-88.7671,"lo2":-86.6584,"dy":0.0162,"dx":0.0185,"nx":115,"ny":88,"refTime":"2024-08-21T06:00:00:Z","depth":0,"parameterNumber":2,"parameterNumberName":"U-component_of_WINDS"},"data":[0.0,0.0,0.0,0.0,0.0,0.0,0.0,0.0,0.0,0.0,0.0,0.0,0.0,0.0,0.0,0.0,0.0,0.0,0.0,0.0,0.0,0.0,0.0,0.0,0.0,0.0,0.0,0.0,0.0,0.0,0.0,0.0,0.0,0.0,0.0,0.0,0.0,0.0,0.0,0.0,0.0,0.0,0.0,0.0,0.0,0.0,0.0,0.0,0.0,0.0,0.0,0.0,0.0,0.0,0.0,0.0,0.0,0.0,0.0,0.0,0.0,0.0,0.0,0.0,0.0,0.0,0.0,0.0,0.0,0.0,0.0,0.0,0.0,0.0,0.0,0.0,0.0,0.0,0.0,0.0,0.0,0.0,0.0,0.0,0.0,0.0,0.0,0.0,0.0,0.0,0.0,0.0,0.0,0.0,0.0,0.0,0.0,0.0,0.0,0.0,0.0,0.0,0.0,0.0,0.0,0.0,0.0,0.0,0.0,0.0,0.0,0.0,0.0,0.0,0.0,0.0,0.0,0.0,0.0,0.0,0.0,0.0,0.0,0.0,0.0,0.0,0.0,0.0,0.0,0.0,0.0,0.0,0.0,0.0,0.0,0.0,0.0,0.0,0.0,0.0,0.0,0.0,0.0,0.0,0.0,0.0,0.0,0.0,0.0,0.0,0.0,0.0,0.0,0.0,0.0,0.0,0.0,0.0,0.0,0.0,0.0,0.0,0.0,0.0,0.0,0.0,0.0,0.0,0.0,0.0,0.0,0.0,0.0,0.0,0.0,0.0,0.0,0.0,0.0,0.0,0.0,0.0,0.0,0.0,0.0,0.0,0.0,0.0,0.0,0.0,0.0,0.0,0.0,0.0,0.0,0.0,0.0,0.0,0.0,0.0,0.0,0.0,0.0,0.0,0.0,0.0,0.0,0.0,0.0,0.0,0.0,0.0,0.0,0.0,0.0,0.0,0.0,0.0,0.0,0.0,0.0,0.0,0.0,0.0,0.0,0.0,0.0,0.0,0.0,0.0,0.0,0.0,0.0,0.0,0.0,0.0,0.0,0.0,0.0,0.0,0.0,0.0,0.0,0.0,0.0,0.0,0.0,0.0,0.0,0.0,0.0,0.0,0.0,0.0,0.0,0.0,0.0,0.0,0.0,0.0,0.0,0.0,0.0,0.0,0.0,0.0,0.0,0.0,0.0,0.0,0.0,0.0,0.0,0.0,0.0,0.0,0.0,0.0,0.0,0.0,0.0,0.0,0.0,0.0,0.0,0.0,0.0,0.0,0.0,0.0,0.0,0.0,0.0,0.0,0.0,0.0,0.0,0.0,0.0,0.0,0.0,0.0,0.0,0.0,0.0,0.0,0.0,0.0,0.0,0.0,0.0,0.0,0.0,0.0,0.0,0.0,0.0,0.0,0.0,0.0,0.0,0.0,0.0,0.0,0.0,0.0,0.0,0.0,0.0,0.0,0.0,0.0,0.0,0.0,0.0,0.0,0.0,0.0,0.0,0.0,0.0,0.0,0.0,0.0,0.0,0.0,0.0,0.0,0.0,0.0,0.0,0.0,0.0,0.0,0.0,0.0,0.0,0.0,0.0,0.0,0.0,0.0,0.0,0.0,0.0,0.0,0.0,0.0,0.0,0.0,0.0,0.0,0.0,0.0,0.0,0.0,0.0,0.0,0.0,0.0,0.0,0.0,0.0,0.0,0.0,0.0,0.0,0.0,0.0,0.0,0.0,0.0,0.0,0.0,0.0,0.0,0.0,0.0,0.0,0.0,0.0,0.0,0.0,0.0,0.0,0.0,0.0,0.0,0.0,0.0,0.0,0.0,0.0,0.0,0.0,0.0,0.0,0.0,0.0,0.0,0.0,0.0,0.0,0.0,0.0,0.0,0.0,0.0,0.0,0.0,0.0,0.0,0.0,0.0,0.0,0.0,0.0,0.0,0.0,0.0,0.0,0.0,0.0,0.0,0.0,0.0,0.0,0.0,0.0,0.0,0.0,0.0,0.0,0.0,0.0,0.0,0.0,0.0,0.0,0.0,0.0,0.0,0.0,0.0,0.0,0.0,0.0,0.0,0.0,0.0,0.0,0.0,0.0,0.0,0.0,0.0,0.0,0.0,0.0,0.0,0.0,0.0,0.0,0.0,0.0,0.0,0.0,0.0,0.0,0.0,0.0,0.0,0.0,0.0,0.0,0.0,0.0,0.0,0.0,0.0,0.0,0.0,0.0,0.0,0.0,0.0,0.0,0.0,0.0,0.0,0.0,0.0,0.0,0.0,0.0,0.0,0.0,0.0,0.0,0.0,0.0,0.0,0.0,0.0,0.0,0.0,0.0,0.0,0.0,0.0,0.0,0.0,0.0,0.0,0.0,0.0,0.0,0.0,0.0,0.0,0.0,0.0,0.0,0.0,0.0,0.0,0.0,0.0,0.0,0.0,0.0,0.0,0.0,0.0,0.0,0.0,0.0,0.0,0.0,0.0,0.0,0.0,0.0,0.0,0.0,0.0,0.0,0.0,0.0,0.0,0.0,0.0,0.0,0.0,0.0,0.0,0.0,0.0,0.0,0.0,0.0,0.0,0.0,0.0,0.0,0.0,0.0,0.0,0.0,0.0,0.0,0.0,0.0,0.0,0.0,0.0,0.0,0.0,0.0,0.0,0.0,0.0,0.0,0.0,0.0,0.0,0.0,0.0,0.0,0.0,0.0,0.0,0.0,0.0,0.0,0.0,0.0,0.0,0.0,0.0,0.0,0.0,0.0,0.0,0.0,0.0,0.0,0.0,0.0,0.0,0.0,0.0,0.0,0.0,0.0,0.0,0.0,0.0,0.0,0.0,0.0,0.0,0.0,0.0,0.0,0.0,0.0,0.0,0.0,0.0,0.0,0.0,0.0,0.0,0.0,0.0,0.0,0.0,0.0,0.0,0.0,0.0,0.0,0.0,0.0,0.0,0.0,0.0,0.0,0.0,0.0,0.0,0.0,0.0,0.0,0.0,0.0,0.0,0.0,0.0,0.0,0.0,0.0,0.0,0.0,0.0,0.0,0.0,0.0,0.0,0.0,0.0,0.0,0.0,0.0,0.0,0.0,0.0,0.0,0.0,0.0,0.0,0.0,0.0,0.0,0.0,0.0,0.0,0.0,0.0,0.0,0.0,0.0,0.0,0.0,0.0,0.0,0.0,0.0,0.0,0.0,0.0,0.0,0.0,0.0,0.0,0.0,0.0,0.0,0.0,0.0,0.0,0.0,0.0,0.0,0.0,0.0,0.0,0.0,0.0,0.0,0.0,0.0,0.0,0.0,0.0,0.0,0.0,0.0,0.0,0.0,0.0,0.0,0.0,0.0,0.0,0.0,0.0,0.0,0.0,0.0,0.0,0.0,0.0,0.0,0.0,0.0,0.0,0.0,0.0,0.0,0.0,0.0,0.0,0.0,0.0,0.0,0.0,0.0,0.0,0.0,0.0,0.0,0.0,0.0,0.0,0.0,0.0,0.0,0.0,0.0,0.0,0.0,0.0,0.0,0.0,0.0,0.0,0.0,0.0,0.0,0.0,0.0,0.0,0.0,0.0,0.0,0.0,0.0,0.0,0.0,0.0,0.0,0.0,0.0,0.0,0.0,0.0,0.0,0.0,0.0,0.0,0.0,0.0,0.0,0.0,0.0,0.0,0.0,0.0,0.0,0.0,0.0,0.0,0.0,0.0,0.0,0.0,0.0,0.0,0.0,0.0,0.0,0.0,0.0,0.0,0.0,0.0,0.0,0.0,0.0,0.0,0.0,0.0,0.0,0.0,0.0,0.0,0.0,0.0,0.0,0.0,0.0,0.0,0.0,0.0,0.0,0.0,0.0,0.0,0.0,0.0,0.0,0.0,0.0,0.0,0.0,0.0,0.0,0.0,0.0,0.0,0.0,0.0,0.0,0.0,0.0,0.0,0.0,0.0,0.0,0.0,0.0,0.0,0.0,0.0,0.0,0.0,0.0,0.0,0.0,0.0,0.0,0.0,0.0,0.0,0.0,0.0,0.0,0.0,0.0,0.0,0.0,0.0,0.0,0.0,0.0,0.0,0.0,0.0,0.0,0.0,0.0,0.0,0.0,0.0,0.0,0.0,0.0,0.0,0.0,0.0,0.0,0.0,0.0,0.0,0.0,0.0,0.0,0.0,0.0,0.0,0.0,0.0,0.0,0.0,0.0,0.0,0.0,0.0,0.0,0.0,0.0,0.0,0.0,0.0,0.0,0.0,0.0,0.0,0.0,0.0,0.0,0.0,0.0,0.0,2.3047,0.0,0.0,0.0,0.0,0.0,0.0,0.0,0.0,0.0,0.0,0.0,0.0,0.0,0.0,0.0,0.0,0.0,0.0,0.0,0.0,0.0,0.0,0.0,0.0,0.0,0.0,0.0,0.0,0.0,0.0,0.0,0.0,0.0,0.0,0.0,0.0,0.0,0.0,0.0,0.0,0.0,0.0,0.0,0.0,0.0,0.0,0.0,0.0,0.0,0.0,0.0,0.0,0.0,0.0,0.0,0.0,0.0,0.0,0.0,0.0,0.0,0.0,0.0,0.0,0.0,0.0,0.0,0.0,0.0,0.0,0.0,0.0,0.0,0.0,0.0,0.0,0.0,0.0,0.0,0.0,0.0,0.0,0.0,0.0,0.0,0.0,0.0,0.0,0.0,0.0,0.0,0.0,0.0,0.0,0.0,0.0,0.0,0.0,0.0,0.0,0.0,0.0,0.0,0.0,0.0,0.0,0.0,0.0,0.0,0.0,2.5615,2.5619,2.3996,2.3101,2.3079,0.0,0.0,0.0,0.0,0.0,0.0,0.0,0.0,0.0,0.0,0.0,0.0,0.0,0.0,0.0,0.0,0.0,0.0,0.0,0.0,0.0,0.0,0.0,0.0,0.0,0.0,0.0,0.0,0.0,0.0,0.0,0.0,0.0,0.0,0.0,0.0,0.0,0.0,0.0,0.0,0.0,0.0,0.0,0.0,0.0,0.0,0.0,0.0,0.0,0.0,0.0,0.0,0.0,0.0,0.0,0.0,0.0,0.0,0.0,0.0,0.0,0.0,0.0,0.0,0.0,0.0,0.0,0.0,0.0,0.0,0.0,0.0,0.0,0.0,0.0,0.0,0.0,0.0,0.0,0.0,0.0,0.0,0.0,0.0,0.0,0.0,0.0,0.0,0.0,0.0,0.0,0.0,0.0,0.0,0.0,0.0,0.0,0.0,0.0,0.0,0.0,0.0,0.0,0.0,0.0,0.0,0.0,0.0,0.0,0.0,0.0,0.0,2.4022,2.291,2.25,0.0,0.0,0.0,0.0,0.0,0.0,0.0,0.0,0.0,0.0,0.0,0.0,0.0,0.0,0.0,0.0,0.0,0.0,0.0,0.0,0.0,0.0,0.0,0.0,0.0,0.0,0.0,0.0,0.0,0.0,0.0,0.0,0.0,0.0,0.0,0.0,0.0,0.0,0.0,0.0,0.0,0.0,0.0,0.0,0.0,0.0,0.0,0.0,0.0,0.0,0.0,0.0,0.0,0.0,0.0,0.0,0.0,0.0,0.0,0.0,0.0,0.0,0.0,0.0,0.0,0.0,0.0,0.0,0.0,0.0,0.0,0.0,0.0,0.0,0.0,0.0,0.0,0.0,0.0,0.0,0.0,0.0,0.0,0.0,0.0,0.0,0.0,0.0,0.0,0.0,0.0,0.0,0.0,0.0,0.0,0.0,0.0,0.0,0.0,0.0,0.0,0.0,0.0,0.0,0.0,0.0,0.0,0.0,0.0,0.0,2.5702,2.5682,2.4014,0.0,2.0915,0.0,0.0,0.0,0.0,0.0,0.0,0.0,0.0,0.0,0.0,0.0,0.0,0.0,0.0,0.0,0.0,0.0,0.0,0.0,0.0,0.0,0.0,0.0,0.0,0.0,0.0,0.0,0.0,0.0,0.0,0.0,0.0,0.0,0.0,0.0,0.0,0.0,0.0,0.0,0.0,0.0,0.0,0.0,0.0,0.0,0.0,0.0,0.0,0.0,0.0,0.0,0.0,0.0,0.0,0.0,0.0,0.0,0.0,0.0,0.0,0.0,0.0,0.0,0.0,0.0,0.0,0.0,0.0,0.0,0.0,0.0,0.0,0.0,0.0,0.0,0.0,0.0,0.0,0.0,0.0,0.0,0.0,0.0,0.0,0.0,0.0,0.0,0.0,0.0,0.0,0.0,0.0,0.0,0.0,0.0,0.0,0.0,0.0,0.0,0.0,0.0,0.0,0.0,0.0,0.0,0.0,0.0,0.0,0.0,0.0,2.5619,2.5581,2.3879,2.2178,0.0,0.0,0.0,0.0,0.0,0.0,0.0,0.0,0.0,0.0,0.0,0.0,0.0,0.0,0.0,0.0,0.0,0.0,0.0,0.0,0.0,0.0,0.0,0.0,0.0,0.0,0.0,0.0,0.0,0.0,0.0,0.0,0.0,0.0,0.0,0.0,0.0,0.0,0.0,0.0,0.0,0.0,0.0,0.0,0.0,0.0,0.0,0.0,0.0,0.0,0.0,0.0,0.0,0.0,0.0,0.0,0.0,0.0,0.0,0.0,0.0,0.0,0.0,0.0,0.0,0.0,0.0,0.0,0.0,0.0,0.0,0.0,0.0,0.0,0.0,0.0,0.0,0.0,0.0,0.0,0.0,0.0,0.0,0.0,0.0,0.0,0.0,0.0,0.0,0.0,0.0,0.0,0.0,0.0,0.0,0.0,0.0,0.0,0.0,0.0,0.0,0.0,0.0,0.0,0.0,0.0,0.0,0.0,0.0,0.0,2.4609,2.5216,2.4645,2.3634,2.2191,2.0262,0.0,0.0,0.0,0.0,0.0,0.0,0.0,0.0,0.0,0.0,0.0,0.0,0.0,0.0,0.0,0.0,0.0,0.0,0.0,0.0,0.0,0.0,0.0,0.0,0.0,0.0,0.0,0.0,0.0,0.0,0.0,0.0,0.0,0.0,0.0,0.0,0.0,0.0,0.0,0.0,0.0,0.0,0.0,0.0,0.0,0.0,0.0,0.0,0.0,0.0,0.0,0.0,0.0,0.0,0.0,0.0,0.0,0.0,0.0,0.0,0.0,0.0,0.0,0.0,0.0,0.0,0.0,0.0,0.0,0.0,0.0,0.0,0.0,0.0,0.0,0.0,0.0,0.0,0.0,0.0,0.0,0.0,0.0,0.0,0.0,0.0,0.0,0.0,0.0,0.0,0.0,0.0,0.0,0.0,0.0,0.0,0.0,0.0,0.0,0.0,0.0,0.0,0.0,0.0,0.0,0.0,0.0,0.0,2.284,2.4369,2.4358,2.2642,2.3206,2.241,0.0,0.0,0.0,0.0,0.0,0.0,0.0,0.0,0.0,0.0,0.0,0.0,0.0,0.0,0.0,0.0,0.0,0.0,0.0,0.0,0.0,0.0,0.0,0.0,0.0,0.0,0.0,0.0,0.0,0.0,0.0,0.0,0.0,0.0,0.0,0.0,0.0,0.0,0.0,0.0,0.0,0.0,0.0,0.0,0.0,0.0,0.0,0.0,0.0,0.0,0.0,0.0,0.0,0.0,0.0,0.0,0.0,0.0,0.0,0.0,0.0,0.0,0.0,0.0,0.0,0.0,0.0,0.0,0.0,0.0,0.0,0.0,0.0,0.0,0.0,0.0,0.0,0.0,0.0,0.0,0.0,0.0,0.0,0.0,0.0,0.0,0.0,0.0,0.0,0.0,0.0,0.0,0.0,0.0,0.0,0.0,0.0,0.0,0.0,0.0,0.0,0.0,0.0,0.0,0.0,0.0,0.0,0.0,0.0,2.2541,2.3877,2.3779,2.2069,2.2148,2.1377,0.0,0.0,0.0,0.0,0.0,0.0,0.0,0.0,0.0,0.0,0.0,0.0,0.0,0.0,0.0,0.0,0.0,0.0,0.0,0.0,0.0,0.0,0.0,0.0,0.0,0.0,0.0,0.0,0.0,0.0,0.0,0.0,0.0,0.0,0.0,0.0,0.0,0.0,0.0,0.0,0.0,0.0,0.0,0.0,0.0,0.0,0.0,0.0,0.0,0.0,0.0,0.0,0.0,0.0,0.0,0.0,0.0,0.0,0.0,0.0,0.0,0.0,0.0,0.0,0.0,0.0,0.0,0.0,0.0,0.0,0.0,0.0,0.0,0.0,0.0,0.0,0.0,0.0,0.0,0.0,0.0,0.0,0.0,0.0,0.0,0.0,0.0,0.0,0.0,0.0,0.0,0.0,0.0,0.0,0.0,0.0,0.0,0.0,0.0,0.0,0.0,0.0,0.0,0.0,0.0,0.0,0.0,0.0,0.0,2.1994,0.0,2.2484,0.0,2.0788,2.0101,0.0,0.0,0.0,0.0,0.0,0.0,0.0,0.0,0.0,0.0,0.0,0.0,0.0,0.0,0.0,0.0,0.0,0.0,0.0,0.0,0.0,0.0,0.0,0.0,0.0,0.0,0.0,0.0,0.0,0.0,0.0,0.0,0.0,0.0,0.0,0.0,0.0,0.0,0.0,0.0,0.0,0.0,0.0,0.0,0.0,0.0,0.0,0.0,0.0,0.0,0.0,0.0,0.0,0.0,0.0,0.0,0.0,0.0,0.0,0.0,0.0,0.0,0.0,0.0,0.0,0.0,0.0,0.0,0.0,0.0,0.0,0.0,0.0,0.0,0.0,0.0,0.0,0.0,0.0,0.0,0.0,0.0,0.0,0.0,0.0,0.0,0.0,0.0,0.0,0.0,0.0,0.0,0.0,0.0,0.0,0.0,0.0,0.0,0.0,0.0,0.0,0.0,0.0,0.0,0.0,0.0,0.0,0.0,2.0939,2.1279,2.105,2.0445,1.9338,1.9107,1.8741,0.0,0.0,0.0,0.0,0.0,0.0,0.0,0.0,0.0,0.0,0.0,0.0,0.0,0.0,0.0,0.0,0.0,0.0,0.0,0.0,0.0,0.0,0.0,0.0,0.0,0.0,0.0,0.0,0.0,0.0,0.0,0.0,0.0,0.0,0.0,0.0,0.0,0.0,0.0,0.0,0.0,0.0,0.0,0.0,0.0,0.0,0.0,0.0,0.0,0.0,0.0,0.0,0.0,0.0,0.0,0.0,0.0,0.0,0.0,0.0,0.0,0.0,0.0,0.0,0.0,0.0,0.0,0.0,0.0,0.0,0.0,0.0,0.0,0.0,0.0,0.0,0.0,0.0,0.0,0.0,0.0,0.0,0.0,0.0,0.0,0.0,0.0,0.0,0.0,0.0,0.0,0.0,0.0,0.0,0.0,0.0,0.0,0.0,0.0,0.0,0.0,0.0,0.0,0.0,0.0,0.0,0.0,0.0,0.0,2.0555,2.0084,1.9244,1.8126,1.7938,1.7671,0.0,0.0,0.0,0.0,0.0,0.0,0.0,0.0,0.0,0.0,0.0,0.0,0.0,0.0,0.0,0.0,0.0,0.0,0.0,0.0,0.0,0.0,0.0,0.0,0.0,0.0,0.0,0.0,0.0,0.0,0.0,0.0,0.0,0.0,0.0,0.0,0.0,0.0,0.0,0.0,0.0,0.0,0.0,0.0,0.0,0.0,0.0,0.0,0.0,0.0,0.0,0.0,0.0,0.0,0.0,0.0,0.0,0.0,0.0,0.0,0.0,0.0,0.0,0.0,0.0,0.0,0.0,0.0,0.0,0.0,0.0,0.0,0.0,0.0,0.0,0.0,0.0,0.0,0.0,0.0,0.0,0.0,0.0,0.0,0.0,0.0,0.0,0.0,0.0,0.0,0.0,0.0,0.0,0.0,0.0,0.0,0.0,0.0,0.0,0.0,0.0,0.0,0.0,0.0,0.0,0.0,0.0,0.0,0.0,1.8402,1.7931,1.7096,1.5862,1.5876,1.5903,1.5991,0.0,0.0,0.0,0.0,0.0,0.0,0.0,0.0,0.0,0.0,0.0,0.0,0.0,0.0,0.0,0.0,0.0,0.0,0.0,0.0,0.0,0.0,0.0,0.0,0.0,0.0,0.0,0.0,0.0,0.0,0.0,0.0,0.0,0.0,0.0,0.0,0.0,0.0,0.0,0.0,0.0,0.0,0.0,0.0,0.0,0.0,0.0,0.0,0.0,0.0,0.0,0.0,0.0,0.0,0.0,0.0,0.0,0.0,0.0,0.0,0.0,0.0,0.0,0.0,0.0,0.0,0.0,0.0,0.0,0.0,0.0,0.0,0.0,0.0,0.0,0.0,0.0,0.0,0.0,0.0,0.0,0.0,0.0,0.0,0.0,0.0,0.0,0.0,0.0,0.0,0.0,0.0,0.0,0.0,0.0,0.0,0.0,0.0,0.0,0.0,0.0,0.0,0.0,0.0,0.0,0.0,0.0,0.0,1.5218,1.4863,1.4173,1.3055,1.3178,1.3663,0.0,0.0,0.0,0.0,0.0,0.0,0.0,0.0,0.0,0.0,0.0,0.0,0.0,0.0,0.0,0.0,0.0,0.0,0.0,0.0,0.0,0.0,0.0,0.0,0.0,0.0,0.0,0.0,0.0,0.0,0.0,0.0,0.0,0.0,0.0,0.0,0.0,0.0,0.0,0.0,0.0,0.0,0.0,0.0,0.0,0.0,0.0,0.0,0.0,0.0,0.0,0.0,0.0,0.0,0.0,0.0,0.0,0.0,0.0,0.0,0.0,0.0,0.0,0.0,0.0,0.0,0.0,0.0,0.0,0.0,0.0,0.0,0.0,0.0,0.0,0.0,0.0,0.0,0.0,0.0,0.0,0.0,0.0,0.0,0.0,0.0,0.0,0.0,0.0,0.0,0.0,0.0,0.0,0.0,0.0,0.0,0.0,0.0,0.0,0.0,0.0,0.0,0.0,0.0,0.0,0.0,0.0,0.0,0.0,1.3776,1.2675,1.1978,1.1624,1.2045,1.2338,0.0,0.0,0.0,0.0,0.0,0.0,0.0,0.0,0.0,0.0,0.0,0.0,0.0,0.0,0.0,0.0,0.0,0.0,0.0,0.0,0.0,0.0,0.0,0.0,0.0,0.0,0.0,0.0,0.0,0.0,0.0,0.0,0.0,0.0,0.0,0.0,0.0,0.0,0.0,0.0,0.0,0.0,0.0,0.0,0.0,0.0,0.0,0.0,0.0,0.0,0.0,0.0,0.0,0.0,0.0,0.0,0.0,0.0,0.0,0.0,0.0,0.0,0.0,0.0,0.0,0.0,0.0,0.0,0.0,0.0,0.0,0.0,0.0,0.0,0.0,0.0,0.0,0.0,0.0,0.0,0.0,0.0,0.0,0.0,0.0,0.0,0.0,0.0,0.0,0.0,0.0,0.0,0.0,0.0,0.0,0.0,0.0,0.0,0.0,0.0,0.0,0.0,0.0,0.0,0.0,0.0,0.0,0.0,1.5751,1.3159,1.1964,1.0392,0.8384,0.9412,1.003,0.0,0.0,0.0,0.0,0.0,0.0,0.0,0.0,0.0,0.0,0.0,0.0,0.0,0.0,0.0,0.0,0.0,0.0,0.0,0.0,0.0,0.0,0.0,0.0,0.0,0.0,0.0,0.0,0.0,0.0,0.0,0.0,0.0,0.0,0.0,0.0,0.0,0.0,0.0,0.0,0.0,0.0,0.0,0.0,0.0,0.0,0.0,0.0,0.0,0.0,0.0,0.0,0.0,0.0,0.0,0.0,0.0,0.0,0.0,0.0,0.0,0.0,0.0,0.0,0.0,0.0,0.0,0.0,0.0,0.0,0.0,0.0,0.0,0.0,0.0,0.0,0.0,0.0,0.0,0.0,0.0,0.0,0.0,0.0,0.0,0.0,0.0,0.0,0.0,0.0,0.0,0.0,0.0,0.0,0.0,0.0,0.0,0.0,0.0,0.0,0.0,0.0,0.0,0.0,0.0,0.0,0.0,0.0,1.5486,1.289,1.1745,0.8937,0.4414,0.6031,0.7223,0.0,0.0,0.0,0.0,0.0,0.0,0.0,0.0,0.0,0.0,0.0,0.0,0.0,0.0,0.0,0.0,0.0,0.0,0.0,0.0,0.0,0.0,0.0,0.0,0.0,0.0,0.0,0.0,0.0,0.0,0.0,0.0,0.0,0.0,0.0,0.0,0.0,0.0,0.0,0.0,0.0,0.0,0.0,0.0,0.0,0.0,0.0,0.0,0.0,0.0,0.0,0.0,0.0,0.0,0.0,0.0,0.0,0.0,0.0,0.0,0.0,0.0,0.0,0.0,0.0,0.0,0.0,0.0,0.0,0.0,0.0,0.0,0.0,0.0,0.0,0.0,0.0,0.0,0.0,0.0,0.0,0.0,0.0,0.0,0.0,0.0,0.0,0.0,0.0,0.0,0.0,0.0,0.0,0.0,0.0,0.0,0.0,0.0,0.0,0.0,0.0,0.0,0.0,0.0,0.0,0.0,0.0,0.0,1.4796,1.1225,0.942,0.6319,0.1779,0.419,0.5505,0.0,0.0,0.0,0.0,0.0,0.0,0.0,0.0,0.0,0.0,0.0,0.0,0.0,0.0,0.0,0.0,0.0,0.0,0.0,0.0,0.0,0.0,0.0,0.0,0.0,0.0,0.0,0.0,0.0,0.0,0.0,0.0,0.0,0.0,0.0,0.0,0.0,0.0,0.0,0.0,0.0,0.0,0.0,0.0,0.0,0.0,0.0,0.0,-2.5339,0.0,0.0,0.0,0.0,0.0,0.0,0.0,0.0,0.0,0.0,0.0,0.0,0.0,0.0,0.0,0.0,0.0,0.0,0.0,0.0,0.0,0.0,0.0,0.0,0.0,0.0,0.0,0.0,0.0,0.0,0.0,0.0,0.0,0.0,0.0,0.0,0.0,0.0,0.0,0.0,0.0,0.0,0.0,0.0,0.0,0.0,0.0,0.0,0.0,0.0,0.0,0.0,0.0,0.0,0.0,0.0,0.0,0.0,0.0,1.3536,1.0392,0.8008,0.467,0.0478,0.1165,0.1821,0.0,0.0,0.0,0.0,0.0,0.0,0.0,0.0,0.0,0.0,0.0,0.0,0.0,0.0,0.0,0.0,0.0,0.0,0.0,0.0,0.0,0.0,0.0,0.0,0.0,0.0,0.0,0.0,0.0,0.0,0.0,0.0,0.0,0.0,0.0,0.0,0.0,0.0,0.0,0.0,0.0,0.0,0.0,0.0,0.0,0.0,0.0,0.0,0.0,0.0,0.0,0.0,0.0,0.0,0.0,0.0,0.0,0.0,0.0,0.0,0.0,0.0,0.0,0.0,0.0,0.0,0.0,0.0,0.0,0.0,0.0,0.0,0.0,0.0,0.0,0.0,0.0,0.0,0.0,0.0,0.0,0.0,0.0,0.0,0.0,0.0,0.0,0.0,0.0,0.0,0.0,0.0,0.0,0.0,0.0,0.0,0.0,0.0,0.0,0.0,0.0,0.0,0.0,0.0,0.0,0.0,0.0,1.4276,1.2299,0.97,0.6819,0.3343,-0.0807,-0.1975,-0.2085,-0.1222,0.0,0.0,0.0,0.0,0.0,0.0,0.0,0.0,0.0,0.0,0.0,0.0,0.0,0.0,0.0,0.0,0.0,0.0,0.0,0.0,0.0,0.0,0.0,0.0,0.0,0.0,0.0,0.0,0.0,0.0,0.0,0.0,0.0,0.0,0.0,0.0,0.0,0.0,-1.5508,-2.2341,0.0,0.0,0.0,0.0,0.0,0.0,0.0,0.0,-3.0149,0.0,0.0,0.0,0.0,0.0,0.0,0.0,0.0,0.0,0.0,0.0,0.0,0.0,0.0,0.0,0.0,0.0,0.0,0.0,0.0,0.0,0.0,0.0,0.0,0.0,0.0,0.0,0.0,0.0,0.0,0.0,0.0,0.0,0.0,0.0,0.0,0.0,0.0,0.0,0.0,0.0,0.0,0.0,0.0,0.0,0.0,0.0,0.0,0.0,0.0,0.0,0.0,0.0,0.0,0.0,0.0,1.427,1.3967,1.201,0.8236,0.5314,0.1781,-0.2221,-0.3364,-0.3899,-0.3966,0.0,0.0,0.0,0.0,0.0,0.0,0.0,0.0,0.0,0.0,0.0,0.0,0.0,0.0,0.0,0.0,0.0,0.0,0.0,0.0,0.0,0.0,0.0,0.0,0.0,0.0,0.0,0.0,0.0,0.0,0.0,0.0,0.0,0.0,0.0,0.0,0.0,0.0,0.0,-2.7784,-2.9783,0.0,0.0,0.0,0.0,0.0,0.0,0.0,0.0,-3.0024,0.0,0.0,0.0,0.0,0.0,0.0,0.0,0.0,0.0,0.0,0.0,0.0,0.0,0.0,0.0,0.0,0.0,0.0,0.0,0.0,0.0,0.0,0.0,0.0,0.0,0.0,0.0,0.0,0.0,0.0,0.0,0.0,0.0,0.0,0.0,0.0,0.0,0.0,0.0,0.0,0.0,0.0,0.0,0.0,0.0,0.0,0.0,0.0,0.0,0.0,0.0,0.0,0.0,0.0,0.0,1.4009,1.1227,0.8844,0.7156,0.4265,0.09,-0.2899,-0.3948,-0.4596,0.0,0.0,0.0,0.0,0.0,0.0,0.0,0.0,0.0,0.0,0.0,0.0,0.0,0.0,0.0,0.0,0.0,0.0,0.0,0.0,0.0,0.0,0.0,0.0,0.0,0.0,0.0,0.0,0.0,0.0,0.0,0.0,0.0,0.0,0.0,0.0,0.0,0.0,0.0,0.0,-2.9347,-3.0636,-3.1996,0.0,0.0,0.0,0.0,0.0,0.0,-3.2962,-3.2562,0.0,0.0,0.0,0.0,0.0,0.0,0.0,0.0,0.0,0.0,0.0,0.0,0.0,0.0,0.0,0.0,0.0,0.0,0.0,0.0,0.0,0.0,0.0,0.0,0.0,0.0,0.0,0.0,0.0,0.0,0.0,0.0,0.0,0.0,0.0,0.0,0.0,0.0,0.0,0.0,0.0,0.0,0.0,0.0,0.0,0.0,0.0,0.0,0.0,0.0,0.0,0.0,0.0,0.0,0.0,1.2715,0.8144,0.6054,0.6698,0.3569,0.0223,-0.3125,-0.4216,-0.482,0.0,0.0,0.0,0.0,0.0,0.0,0.0,0.0,0.0,0.0,0.0,0.0,0.0,0.0,0.0,0.0,0.0,0.0,0.0,0.0,0.0,0.0,0.0,0.0,0.0,0.0,0.0,0.0,0.0,0.0,0.0,0.0,0.0,0.0,0.0,0.0,0.0,0.0,0.0,0.0,0.0,-3.1485,-3.339,-3.304,0.0,0.0,0.0,0.0,-3.5385,-3.5527,0.0,0.0,0.0,0.0,0.0,0.0,0.0,0.0,0.0,0.0,0.0,0.0,0.0,0.0,0.0,0.0,0.0,0.0,0.0,0.0,0.0,0.0,0.0,0.0,0.0,0.0,0.0,0.0,0.0,0.0,0.0,0.0,0.0,0.0,0.0,0.0,0.0,0.0,0.0,0.0,0.0,0.0,0.0,0.0,0.0,0.0,0.0,0.0,0.0,0.0,0.0,0.0,0.0,0.0,0.0,0.0,0.7805,0.6245,0.6143,0.7521,0.3376,-0.0396,-0.3348,-0.4237,-0.4838,0.0,0.0,0.0,0.0,0.0,0.0,0.0,0.0,0.0,0.0,0.0,0.0,0.0,0.0,0.0,0.0,0.0,0.0,0.0,0.0,0.0,0.0,0.0,0.0,0.0,0.0,0.0,0.0,0.0,0.0,0.0,0.0,0.0,0.0,0.0,0.0,0.0,0.0,0.0,0.0,0.0,-3.3715,-3.5119,-3.5562,-3.5669,0.0,0.0,-3.655,-3.7039,-3.7069,0.0,0.0,0.0,0.0,0.0,0.0,0.0,0.0,0.0,0.0,0.0,0.0,0.0,0.0,0.0,0.0,0.0,0.0,0.0,0.0,0.0,0.0,0.0,0.0,0.0,0.0,0.0,0.0,0.0,0.0,0.0,0.0,0.0,0.0,0.0,0.0,0.0,0.0,0.0,0.0,0.0,0.0,0.0,0.0,0.0,0.0,0.0,0.0,0.0,0.0,0.0,0.0,0.0,0.0,0.0,0.2773,0.6462,0.3288,0.3038,0.6012,0.2656,-0.0523,-0.3247,-0.412,-0.4903,0.0,0.0,0.0,0.0,0.0,0.0,0.0,0.0,0.0,0.0,0.0,0.0,0.0,0.0,0.0,0.0,0.0,0.0,0.0,0.0,0.0,0.0,0.0,0.0,0.0,0.0,0.0,0.0,0.0,0.0,0.0,0.0,0.0,0.0,0.0,0.0,0.0,0.0,0.0,0.0,0.0,0.0,-3.7158,-3.7165,0.0,0.0,0.0,-3.8169,-3.8694,0.0,0.0,0.0,0.0,0.0,0.0,0.0,0.0,0.0,0.0,0.0,0.0,0.0,0.0,0.0,0.0,0.0,0.0,0.0,0.0,0.0,0.0,0.0,0.0,0.0,0.0,0.0,0.0,0.0,0.0,0.0,0.0,0.0,0.0,0.0,0.0,0.0,0.0,0.0,0.0,0.0,0.0,0.0,0.0,0.0,0.0,0.0,0.0,0.0,0.0,0.0,0.0,0.0,0.0,0.0,0.0,0.0,0.484,0.0764,0.051,0.4386,0.2036,-0.0651,-0.3371,-0.423,0.0,0.0,0.0,0.0,0.0,0.0,0.0,0.0,0.0,0.0,0.0,0.0,0.0,0.0,0.0,0.0,0.0,0.0,0.0,0.0,0.0,0.0,0.0,0.0,0.0,0.0,0.0,-1.8612,0.0,0.0,0.0,0.0,0.0,0.0,0.0,0.0,0.0,0.0,0.0,0.0,0.0,0.0,-3.5932,-3.8467,-3.8481,-3.8729,0.0,0.0,-3.9524,-3.97,-3.9434,-3.8631,0.0,0.0,0.0,0.0,0.0,0.0,0.0,0.0,0.0,0.0,0.0,0.0,0.0,0.0,0.0,0.0,0.0,0.0,0.0,0.0,0.0,0.0,0.0,0.0,0.0,0.0,0.0,0.0,0.0,0.0,0.0,0.0,0.0,0.0,0.0,0.0,0.0,0.0,0.0,0.0,0.0,0.0,0.0,0.0,0.0,0.0,0.0,0.0,0.0,0.0,0.0,0.0,0.0,0.0,-0.4746,0.096,-0.0616,0.0174,0.3634,0.1683,-0.0949,-0.3992,-0.4716,-0.5555,0.0,0.0,0.0,0.0,0.0,0.0,0.0,0.0,0.0,0.0,0.0,0.0,0.0,0.0,0.0,0.0,0.0,0.0,0.0,0.0,0.0,0.0,0.0,0.0,0.0,0.0,0.0,0.0,0.0,0.0,0.0,0.0,0.0,0.0,0.0,0.0,0.0,0.0,0.0,0.0,0.0,-3.6906,-3.8414,-3.9655,-4.0311,0.0,-4.0659,-4.0699,-3.9658,-4.0676,-4.0418,-3.7054,0.0,0.0,0.0,0.0,0.0,0.0,0.0,0.0,0.0,0.0,0.0,0.0,0.0,0.0,0.0,0.0,0.0,0.0,0.0,0.0,0.0,0.0,0.0,0.0,0.0,0.0,0.0,0.0,0.0,0.0,0.0,0.0,0.0,0.0,0.0,0.0,0.0,0.0,0.0,0.0,0.0,0.0,0.0,0.0,0.0,0.0,0.0,0.0,0.0,0.0,0.0,0.0,0.0,-0.7644,-0.2049,-0.3295,-0.1558,0.3162,0.0362,-0.2258,-0.4219,-0.5898,-0.7177,0.0,0.0,0.0,0.0,0.0,0.0,0.0,0.0,0.0,0.0,0.0,0.0,0.0,0.0,0.0,0.0,0.0,0.0,0.0,0.0,0.0,0.0,0.0,0.0,0.0,0.0,0.0,0.0,-2.6321,-2.7308,-2.7634,0.0,0.0,0.0,0.0,0.0,0.0,0.0,0.0,0.0,0.0,-3.8334,-3.9641,-4.0581,0.0,0.0,-4.1528,-4.1292,-4.0341,-4.0137,-3.9476,-3.7607,-3.6274,0.0,0.0,0.0,0.0,0.0,0.0,0.0,0.0,0.0,0.0,0.0,0.0,0.0,0.0,0.0,0.0,0.0,0.0,0.0,0.0,0.0,0.0,0.0,0.0,0.0,0.0,0.0,0.0,0.0,0.0,0.0,0.0,0.0,0.0,0.0,0.0,0.0,0.0,0.0,0.0,0.0,0.0,0.0,0.0,0.0,0.0,0.0,0.0,0.0,0.0,0.0,0.0,-1.025,-0.5577,-0.6084,-0.4027,0.0728,-0.1805,-0.3791,-0.5101,-0.7131,-0.8546,0.0,0.0,0.0,0.0,0.0,0.0,0.0,0.0,0.0,0.0,0.0,0.0,0.0,0.0,0.0,0.0,0.0,0.0,0.0,0.0,0.0,0.0,0.0,0.0,0.0,0.0,0.0,0.0,-2.7797,-2.8583,-2.8458,0.0,0.0,0.0,0.0,0.0,0.0,0.0,0.0,0.0,0.0,-3.9495,-4.0364,-4.1194,-4.1787,-4.2115,-4.2019,-4.1495,-4.032,-3.9761,-3.9091,-3.7895,0.0,0.0,0.0,0.0,0.0,0.0,0.0,0.0,0.0,0.0,0.0,0.0,0.0,0.0,0.0,0.0,0.0,0.0,0.0,0.0,0.0,0.0,0.0,0.0,0.0,0.0,0.0,-1.8666,0.0,0.0,-1.7933,0.0,0.0,0.0,0.0,0.0,0.0,0.0,0.0,0.0,0.0,0.0,0.0,0.0,0.0,0.0,0.0,0.0,0.0,0.0,0.0,0.0,0.0,-1.2581,-0.9721,-0.8711,-0.7194,-0.4997,-0.4831,-0.5489,-0.6954,-0.848,-0.9551,-1.0225,0.0,0.0,0.0,0.0,0.0,0.0,0.0,0.0,0.0,0.0,0.0,0.0,0.0,0.0,0.0,0.0,0.0,0.0,0.0,0.0,0.0,0.0,0.0,0.0,0.0,0.0,-2.7345,-2.8008,-2.8442,0.0,0.0,0.0,0.0,0.0,0.0,0.0,0.0,0.0,0.0,-3.8934,-4.0257,-4.0329,-4.1314,-4.2026,-4.1917,-4.1831,-4.1173,-3.9423,-3.9743,-3.9656,0.0,0.0,0.0,0.0,0.0,0.0,0.0,0.0,0.0,0.0,0.0,0.0,0.0,0.0,0.0,0.0,0.0,0.0,0.0,0.0,0.0,0.0,0.0,0.0,0.0,0.0,0.0,-2.1388,-2.0706,0.0,0.0,0.0,0.0,0.0,0.0,0.0,0.0,0.0,0.0,0.0,-1.6778,-1.6478,0.0,0.0,0.0,0.0,0.0,0.0,0.0,0.0,0.0,0.0,0.0,0.0,-1.4212,-1.1247,-1.0965,-0.9303,-0.617,-0.7419,-0.8631,-0.9501,-1.1253,-1.2596,-1.3526,0.0,0.0,0.0,0.0,0.0,0.0,0.0,0.0,0.0,0.0,0.0,0.0,0.0,0.0,0.0,0.0,0.0,0.0,0.0,0.0,0.0,0.0,0.0,0.0,0.0,-2.9188,0.0,0.0,0.0,0.0,0.0,0.0,0.0,0.0,0.0,0.0,0.0,-3.6644,-3.766,-3.9193,-4.036,-4.0631,-4.1428,-4.1892,0.0,0.0,0.0,0.0,0.0,0.0,0.0,0.0,0.0,0.0,0.0,0.0,0.0,0.0,-3.0218,-2.975,-2.9627,-2.9434,-2.9016,0.0,0.0,0.0,0.0,0.0,0.0,0.0,0.0,0.0,0.0,0.0,0.0,0.0,0.0,-2.3209,0.0,-2.2044,0.0,0.0,0.0,0.0,0.0,0.0,0.0,0.0,-1.9425,-1.8866,-1.7683,-1.7488,-1.7069,0.0,-1.6381,-1.6016,0.0,0.0,0.0,0.0,0.0,0.0,0.0,0.0,-1.5922,-1.4216,-1.3391,-1.1808,-0.9531,-1.0358,-1.1184,-1.1743,-1.3244,-1.4466,-1.5432,-1.5442,-1.5228,0.0,0.0,0.0,0.0,0.0,0.0,0.0,0.0,0.0,0.0,0.0,0.0,0.0,0.0,0.0,0.0,0.0,0.0,0.0,0.0,0.0,0.0,0.0,-3.0143,0.0,0.0,0.0,0.0,0.0,0.0,0.0,0.0,0.0,-3.4911,-3.6588,-3.8,-3.8758,-4.0001,-4.0864,-4.0872,0.0,0.0,0.0,0.0,0.0,0.0,0.0,-3.8027,-3.6913,-3.6233,-3.5559,-3.4593,-3.3604,-3.2868,-3.2563,0.0,0.0,-3.1374,-3.1049,-3.0807,-3.0416,-2.9913,-2.948,-2.9377,-2.9598,-2.9801,0.0,0.0,0.0,0.0,0.0,0.0,0.0,0.0,-2.5492,-2.5027,0.0,-2.2691,0.0,0.0,0.0,0.0,0.0,-2.0546,0.0,0.0,-1.9962,-1.9703,-1.8718,-1.9061,-1.8899,-1.8268,-1.7713,-1.7728,-1.8142,-1.7207,0.0,0.0,0.0,0.0,0.0,0.0,-1.7673,-1.8485,-1.5895,-1.4607,-1.4747,-1.3518,-1.3026,-1.3619,-1.4334,-1.5078,-1.5968,-1.5683,-1.5551,-1.5827,-1.5465,0.0,0.0,0.0,0.0,0.0,0.0,0.0,0.0,0.0,0.0,0.0,0.0,0.0,0.0,0.0,0.0,0.0,0.0,0.0,0.0,-2.9377,0.0,0.0,0.0,0.0,0.0,0.0,0.0,0.0,0.0,0.0,-3.7772,-3.8582,-3.9373,-4.0055,0.0,0.0,0.0,0.0,-4.0481,-4.0446,-3.9669,-3.8782,-3.792,-3.7721,-3.7637,-3.7465,0.0,0.0,-3.5024,-3.4529,-3.4152,-3.3949,-3.3919,-3.3498,-3.1641,-3.1168,-3.0829,-3.0431,-3.0198,-2.9939,-3.0016,-3.0137,-3.0144,-3.0293,0.0,0.0,0.0,0.0,-2.6529,-2.688,-2.7318,-2.726,-2.6483,-2.5187,-2.4728,0.0,0.0,0.0,0.0,0.0,0.0,-2.035,-2.0083,-2.0283,-2.0046,-1.9469,-1.9308,-1.8724,-1.7808,-1.7696,-1.7721,-1.788,-1.7856,-1.7978,-1.8186,0.0,0.0,0.0,0.0,-1.7807,-1.7391,-1.5919,-1.5163,-1.5178,-1.483,-1.5155,-1.6138,-1.6162,-1.6372,-1.6656,-1.6683,-1.6568,-1.6281,-1.6321,0.0,0.0,0.0,0.0,0.0,0.0,0.0,0.0,0.0,0.0,0.0,0.0,0.0,0.0,0.0,0.0,0.0,0.0,0.0,-3.0024,-3.0956,-3.1411,0.0,0.0,0.0,0.0,0.0,0.0,0.0,0.0,0.0,-3.872,-3.8857,-3.902,0.0,0.0,-4.0778,-4.0481,-4.0316,-4.0036,-3.9512,-3.9138,0.0,-3.7741,-3.7603,-3.7327,-3.656,-3.5864,-3.5165,-3.4707,-3.4349,-3.4151,-3.405,-3.4,-3.3721,-3.3019,-3.2582,-3.231,-3.2075,-3.1757,-3.1475,-3.1405,-3.1226,-3.1014,-3.2979,-3.0584,-2.8164,-2.7396,-2.7761,-2.775,-2.7907,-2.8198,-2.8471,-2.7825,-2.6539,-2.5876,-2.5024,-2.4016,-2.3323,0.0,0.0,0.0,-2.0982,-2.0904,-2.0545,-2.0223,-1.9869,-1.9582,-1.9025,-1.8244,-1.8432,-1.8685,-1.8943,-1.8966,-1.9177,-1.9537,0.0,0.0,-1.8585,-1.8215,-1.774,-1.7058,-1.6033,-1.5457,-1.5446,-1.5951,-1.6582,-1.7366,-1.688,-1.6515,-1.6455,-1.6292,-1.63,-1.6418,-1.6484,-1.6315,0.0,0.0,0.0,0.0,0.0,0.0,0.0,0.0,0.0,0.0,0.0,-2.2549,-2.4571,0.0,0.0,0.0,-2.9239,-3.0087,-3.115,-3.1821,0.0,0.0,0.0,0.0,0.0,0.0,0.0,-3.5641,-3.6411,-3.7481,-3.8975,-3.8948,-3.9135,-4.0228,-4.0604,-4.0648,-4.0263,0.0,-3.9408,-3.8641,-3.8165,-3.769,-3.712,-3.7025,-3.6741,-3.5956,-3.5503,-3.5041,-3.4594,-3.4349,-3.4151,-3.405,-3.3949,-3.3815,-3.3534,-3.3235,-3.2935,-3.2592,-3.2226,-3.1925,-3.1883,-3.1531,-3.1253,-3.5471,-3.4523,-3.1262,-2.9805,-2.9628,-2.9668,-2.9231,-2.8566,-2.9273,-2.9065,-2.8098,-2.6598,-2.5796,-2.5503,-2.3842,0.0,-2.3161,-2.2282,-2.183,-2.1678,-2.0866,-2.033,-2.0011,-1.9858,-1.9619,-1.9261,-1.9651,-2.0212,-2.0802,-2.0353,-2.0543,-2.123,-1.9808,-1.9194,-1.9388,-1.8247,-1.7588,-1.7369,-1.6207,-1.566,-1.5756,-1.6639,-1.7254,-1.7562,-1.6557,-1.5963,-1.5695,-1.5094,-1.5217,-1.6324,-1.6327,-1.6427,-1.6718,0.0,0.0,0.0,0.0,0.0,0.0,0.0,0.0,0.0,0.0,0.0,0.0,0.0,0.0,0.0,-3.0334,0.0,-3.1674,-3.2178,0.0,0.0,0.0,-3.3321,-3.3448,-3.4813,-3.5915,-3.6216,0.0,0.0,-3.8756,-3.8816,-3.946,-4.113,-4.1251,-4.0882,-4.0095,-3.9373,-3.8649,-3.7798,-3.7012,-3.6437,-3.6345,-3.626,-3.6087,-3.5684,-3.5412,-3.5041,-3.4594,-3.4349,-3.4201,-3.3887,-3.3802,-3.3636,-3.3351,-3.2972,-3.271,-3.2087,-3.1792,-3.1597,-3.1697,-3.118,-3.0884,-3.5791,-3.5485,-3.4003,-3.2654,-3.1463,-3.1487,-3.0973,-3.0166,-3.0394,-2.9975,-2.9064,-2.867,-2.7757,-2.6415,-2.4743,-2.3992,-2.3962,-2.316,-2.2398,-2.1698,-2.1478,-2.0913,-2.0079,-1.9947,-1.9744,-1.955,-2.0012,-2.059,-2.1229,-2.1334,-2.1591,-2.197,-2.1002,-2.0052,-1.9142,-1.8499,-1.7836,-1.7105,-1.6312,-1.5998,-1.6222,-1.6321,-1.6412,-1.6531,-1.5937,-1.537,-1.4844,-1.4824,-1.5274,-1.6115,-1.6656,-1.6992,-1.7246,-1.7347,0.0,0.0,0.0,0.0,0.0,0.0,0.0,0.0,0.0,-2.3749,-2.5496,0.0,-2.802,0.0,-3.1031,-3.1839,-3.1864,-3.237,0.0,0.0,-3.3306,-3.3829,-3.3912,-3.4941,-3.5711,-3.5888,-3.6344,-3.6877,-3.7425,-3.7556,-3.7944,-3.9019,-3.9326,-3.9302,-3.8987,-3.8347,-3.7543,-3.6784,-3.6431,-3.6208,-3.6105,-3.5975,-3.58,-3.5622,-3.5274,-3.4899,-3.4546,-3.43,-3.3939,-3.3404,-3.311,-3.2697,-3.2053,-3.1545,-3.1171,-3.0954,-3.1396,-3.1811,-3.1582,-3.0658,-3.0087,-3.5087,-3.4695,-3.423,-3.3262,-3.2055,-3.2075,-3.1598,-3.0753,-3.0794,-3.0464,-2.9893,-2.909,-2.8024,-2.6733,-2.5426,-2.4846,-2.4829,-2.403,-2.3398,-2.2873,-2.2057,-2.1365,-2.0757,-2.0241,-1.9915,-1.9745,-2.0633,-2.1236,-2.157,-2.2109,-2.238,-2.2351,-2.1458,-2.046,-1.9417,-1.878,-1.7987,-1.7063,-1.6369,-1.6181,-1.6449,-1.6318,-1.6269,-1.6163,-1.5505,-1.4842,-1.4328,-1.4366,-1.4771,-1.5532,-1.6268,-1.6796,-1.7175,-1.7529,-1.7518,0.0,0.0,0.0,0.0,0.0,0.0,0.0,0.0,0.0,0.0,0.0,-2.8781,-3.0442,-3.16,-3.2181,-3.2012,-3.2403,-3.2767,-3.2978,-3.3528,-3.4031,-3.4559,-3.5475,-3.6146,-3.6327,-3.6768,-3.7171,-3.7581,-3.7353,-3.7483,-3.8265,-3.7937,-3.7732,-3.7947,-3.7732,-3.7172,-3.626,-3.6122,-3.6079,-3.6036,-3.5844,-3.5667,-3.5532,-3.5165,-3.4787,-3.4448,-3.43,-3.3924,-3.3128,-3.2803,-3.2396,-3.1442,-3.0986,-3.0694,-3.0525,-3.0874,-3.108,-3.0769,-2.991,-2.9434,-3.3965,-3.331,-3.329,-3.2785,-3.1981,-3.206,-3.1578,-3.0773,-3.0784,-3.0717,-3.0498,-2.8695,-2.7554,-2.69,-2.5939,-2.5546,-2.5563,-2.4898,-2.4451,-2.4154,-2.2588,-2.1731,-2.1404,-2.054,-2.0031,-1.9971,-2.1274,-2.1863,-2.1715,-2.2646,-2.2898,-2.2432,-2.1488,-2.0616,-1.9849,-1.8983,-1.804,-1.705,-1.6362,-1.614,-1.6426,-1.6358,-1.6225,-1.5984,-1.506,-1.4391,-1.4079,-1.3952,-1.4187,-1.4941,-1.5699,-1.6427,-1.7036,-1.7509,-1.7665,0.0,-1.7815,0.0,0.0,0.0,0.0,0.0,0.0,0.0,0.0,-2.8164,-2.9626,-3.1243,-3.1937,-3.2259,-3.2203,-3.2455,-3.281,-3.3286,-3.3545,-3.406,-3.4998,-3.5887,-3.6544,-3.6791,-3.7422,-3.7809,-3.7809,-3.7285,-3.7011,-3.7615,-3.6771,-3.6345,-3.6928,-3.7153,-3.6895,-3.6087,-3.5975,-3.5941,-3.5778,-3.5627,-3.5498,-3.5278,-3.5005,-3.4739,-3.4382,-3.4284,-3.3941,-3.2901,-3.2561,-3.2093,-3.1006,-3.0716,-3.0548,-3.0192,-3.013,-3.0057,-2.9894,-2.94,-2.9039,-3.3386,-3.329,-3.3242,-3.2722,-3.1926,-3.1994,-3.1481,-3.0644,-3.0685,-3.0676,-3.046,-2.8762,-2.7902,-2.7666,-2.6249,-2.5565,-2.5613,-2.5483,-2.4685,-2.3335,-2.2993,-2.204,-2.0673,-2.0315,-2.0105,-2.0058,-2.1379,-2.1906,-2.166,-2.2733,-2.2947,-2.2341,-2.1488,-2.0601,-1.9687,0.0,0.0,0.0,-1.5998,-1.5802,-1.5997,-1.5649,-1.5292,-1.498,-1.4514,0.0,-1.3874,-1.4054,-1.4541,-1.5397,-1.5994,0.0,0.0,0.0,0.0,0.0,0.0,0.0,0.0,0.0,0.0,0.0,-2.3321,-2.5116,-2.6421,-2.8231,-2.9899,-3.1026,-3.1496,-3.1999,-3.2627,-3.3158,-3.3319,-3.2999,-3.3697,-3.4168,-3.4167,-3.4948,-3.5631,-3.5842,-3.548,-3.5474,-3.5966,-3.4928,-3.4624,-3.5836,-3.5372,-3.5152,-3.5796,-3.6154,-3.619,-3.5878,-3.5817,-3.5562,-3.488,-3.5099,-3.5052,-3.4501,-3.4488,-3.4464,-3.4382,-3.4301,-3.373,-3.2401,-3.1919,-3.1358,-2.9924,-2.9391,-2.9262,-2.9152,-2.8958,-2.9005,-2.975,-2.9425,-2.9131,-3.1953,0.0,-3.1917,-3.1648,0.0,-3.1215,-3.0954,-3.0548,-3.0661,-3.0409,-2.9879,-2.854,-2.773,-2.7301,-2.6079,-2.5544,-2.5551,-2.5613,-2.4946,-2.3749,-2.3288,-2.239,-2.108,-2.0494,-2.0131,-2.0108,-2.1437,-2.1922,-2.1679,-2.269,-2.2873,-2.2214,-2.1383,-2.0499,-1.966,-1.8679,-1.7652,-1.6595,-1.5858,-1.5597,-1.5731,-1.5324,-1.4934,-1.4628,-1.4538,0.0,0.0,0.0,0.0,0.0,0.0,0.0,0.0,0.0,0.0,-1.8096,-1.8625,-1.9052,-1.946,-2.0067,-2.0623,-2.1215,-2.3572,-2.5729,-2.7396,-2.8779,-2.9863,-3.0573,-3.1023,-3.1575,-3.2241,-3.2453,-3.2748,-3.3086,-3.3111,-3.3257,-3.3697,-3.3927,-3.4141,-3.4408,-3.4148,-3.4064,-3.4401,-3.3862,-3.3642,-3.4351,-3.4513,-3.4445,-3.4503,-3.527,-3.5844,-3.5711,-3.5622,-3.5324,-3.4638,-3.451,-3.4334,-3.3599,-3.3436,-3.3416,-3.3306,-3.3161,-3.2628,-3.15,-3.1117,-3.0545,-2.9437,-2.8951,-2.8794,-2.87,-2.8508,-2.8483,-2.9088,-2.8865,-2.8642,-3.0558,-3.0586,-3.0569,-3.053,-3.0482,-3.043,-3.0351,-3.0278,0.0,0.0,0.0,-2.8087,-2.7315,-2.6655,-2.5855,-2.5505,-2.5511,-2.5415,-2.4937,-2.4149,-2.328,-2.2396,-2.1527,-2.0637,-2.0172,-2.0184,-2.1469,-2.1888,-2.1625,-2.25,-2.2563,-2.1866,-2.1097,-2.032,-1.9566,-1.8212,-1.7269,-1.6778,-1.5902,-1.5508,-1.5658,-1.5159,-1.4824,-1.4746,-1.47,-1.4523,-1.424,-1.4734,-1.5029,-1.5079,-1.5498,-1.5846,-1.6171,-1.6581,-1.7145,-1.7854,-1.8398,-1.8905,-1.9263,-1.9823,-2.0461,-2.1238,-2.3578,-2.5944,-2.82,-2.8958,-2.957,-3.0068,-3.0425,-3.0935,-3.1488,-3.1388,-3.1702,-3.2784,-3.2206,-3.2268,-3.311,-3.3072,-3.3017,-3.3227,-3.3203,-3.3136,-3.3304,-3.3026,-3.3052,-3.327,-3.3624,-3.3869,-3.3463,-3.4334,-3.5142,-3.5053,-3.4835,-3.4673,-3.4074,-3.3807,-3.3395,-3.2602,-3.2377,-3.2229,-3.2043,-3.1885,-3.1453,-3.0703,-3.0417,-2.9974,-2.9155,-2.8811,-2.8747,-2.8589,-2.8381,-2.8235,-2.8299,-2.8301,-2.8155,-3.0451,-3.052,-3.046,-3.0417,-3.0414,-3.0386,-3.0012,-2.9396,-2.9329,-2.8858,-2.8039,-2.7219,-2.6823,-2.6659,-2.5863,-2.5538,-2.5535,-2.4803,-2.4037,0.0,-2.2383,-2.1515,-2.0708,-2.041,-2.0262,-2.0293,-2.1419,-2.1837,-2.1607,-2.1921,-2.1809,-2.1147,-2.0561,-1.9953,-1.9222,-1.8094,-1.7393,-1.7115,-1.6061,-1.5659,-1.6014,-1.4961,-1.4826,-1.5611,-1.4992,-1.4764,-1.502,-1.5147,-1.5205,-1.5362,-1.5672,-1.6077,-1.6524,-1.6694,-1.7145,-1.7854,-1.8224,-1.8506,-1.8815,-1.9436,-2.0616,-2.2215,-2.3223,-2.4721,-2.7035,-2.7941,-2.8765,-2.9552,-2.9527,-2.9847,-3.0639,-3.069,-3.067,-3.0649,-3.1278,-3.1722,-3.1606,-3.2288,-3.2904,-3.3076,-3.2664,-3.253,-3.2841,-3.2001,-3.1683,-3.2543,-3.257,-3.2376,-3.2931,-3.3302,-3.3453,-3.347,-3.3322,-3.2961,-3.249,-3.2436,-3.226,-3.1621,-3.1756,-3.1895,-3.1785,-3.1691,-3.1308,-3.0685,-3.0275,-2.9832,-2.9046,-2.8748,-2.8589,-2.8444,-2.8299,-2.8186,-2.8189,-2.8146,-2.8048,-3.0371,-3.0375,-3.0328,-3.0292,-3.0267,-2.9787,-2.8859,-2.7769,-2.772,-2.7484,-2.719,-2.6815,-2.64,-2.5965,-2.5578,-2.5182,-2.482,-2.4381,-2.3534,-2.2359,-2.1962,-2.1347,-2.0494,-1.9884,-1.956,-1.9535,-1.9881,-2.0063,-2.0065,-2.0415,-2.0483,-2.0204,-1.9773,-1.9348,-1.8999,-1.8369,-1.7787,-1.7242,-1.5964,-1.5452,-1.5751,-1.4907,-1.478,-1.5471,-1.5034,-1.4904,-1.5162,-1.5077,-1.5159,-1.5389,-1.5522,-1.5869,-1.6322,-1.657,-1.6976,-1.7468,-1.8007,-1.8387,-1.8614,-1.9592,-2.0614,-2.1789,-2.2853,-2.4014,-2.5216,-2.6219,-2.7185,-2.8051,-2.8094,-2.8354,-2.9112,-2.9561,-2.996,-3.0188,-3.0506,-3.0672,-3.0878,-3.0631,-3.083,-3.1125,-3.0866,-3.0766,-3.1174,-3.0875,-3.0775,-3.1574,-3.1316,-3.1406,-3.2157,-3.1862,-3.1911,-3.2734,-3.2813,-3.2337,-3.1594,-3.1495,-3.1263,-3.0547,-3.0619,-3.0706,-3.0677,-3.0523,-3.024,-2.9799,-2.9486,-2.9218,-2.867,-2.8511,-2.8365,-2.8204,-2.8073,-2.7947,-2.771,-2.7393,-2.7345,-3.0228,-3.0203,-2.9978,-2.9759,-2.9549,-2.8695,-2.7606,-2.6503,-2.6285,-2.6209,-2.6255,-2.6294,-2.5967,-2.5388,-2.5129,-2.4733,-2.42,-2.3736,-2.2881,-2.1769,-2.1545,-2.1031,-2.0201,-1.9377,-1.8906,-1.8672,-1.8534,-1.853,-1.8654,-1.8797,-1.891,-1.895,-1.8778,-1.8688,-1.8681,-1.8446,-1.7979,-1.7249,-1.6022,-1.5498,-1.5738,-1.4925,-1.4786,-1.5273,-1.5057,-1.4973,-1.5019,-1.509,-1.5175,-1.531,-1.5421,-1.57,-1.614,-1.6457,-1.674,-1.7134,-1.7799,-1.8333,-1.8721,-1.972,-2.0536,-2.1042,-2.2304,-2.3245,-2.375,-2.4479,-2.5433,-2.6436,-2.668,-2.6892,-2.7458,-2.8042,-2.8706,-2.9316,-2.9314,-2.9312,-2.971,-2.9134,-2.8751,-2.9123,-2.9197,-2.9345,-2.9501,-3.0013,-3.0459,-3.0534,-3.0443,-3.0589,-3.1018,-3.0533,-3.0822,-3.1567,-3.2006,-3.1565,-3.0896,-3.0502,-3.0093,-2.9488,-2.9251,-2.9143,-2.9006,-2.8873,-2.8677,-2.8402,-2.8279,-2.8078,-2.7937,-2.7748,-2.762,-2.7448,-2.7303,-2.7194,-2.6883,-2.6565,-2.6474,-3.0003,-2.9908,-2.9159,-2.8455,-2.778,-2.6961,-2.6498,-2.6289,-2.5583,-2.5225,-2.5291,-2.5388,-2.538,-2.5226,-2.455,-2.4199,-2.3991,-2.2547,-2.1804,-2.1593,-2.0892,-2.01,-1.9409,-1.9175,-1.8699,-1.7966,-1.8194,-1.8155,-1.7954,-1.7524,-1.7228,-1.7142,-1.748,-1.7805,-1.7947,-1.7755,-1.7544,-1.7295,-1.6555,-1.6308,-1.6498,-1.5198,-1.4923,-1.5804,-1.5247,-1.485,-1.4616,-1.534,-1.5572,-1.5143,-1.5525,-1.6016,-1.6296,-1.6524,-1.6684,-1.6864,-1.7423,-1.8073,-1.8893,-1.9679,-2.0271,-2.0673,-2.1353,-2.2235,-2.3124,-2.312,-2.3739,-2.5097,-2.5503,-2.5719,-2.5952,-2.6149,-2.644,-2.6778,-2.7396,-2.7715,-2.7561,-2.8169,-2.863,-2.823,-2.8584,-2.91,-2.9059,-2.9697,-3.0156,-3.0087,-3.0017,-2.9881,-2.9946,-2.9842,-2.9653,-2.9867,-2.9883,-2.9972,-2.9782,-2.9226,-2.8897,-2.8656,-2.7998,-2.7678,-2.7608,-2.7415,-2.7099,-2.7281,-2.6914,-2.6809,-2.6641,-2.6397,-2.629,-2.638,-2.6288,-2.6029,-2.5969,-2.591,-2.6062,-2.8894,-2.8423,-2.7956,-2.7285,-2.6528,-2.6204,-2.5849,-2.5473,-2.5151,-2.4974,-2.4949,-2.4576,-2.4432,-2.4454,-2.411,-2.3505,-2.2574,-2.1853,-2.1313,-2.0891,-2.0089,-1.9509,-1.914,-1.8082,-1.741,-1.6943,-1.6597,-1.6413,-1.6424,-1.6256,-1.6227,-1.6362,-1.646,-1.6565,-1.6742,-1.6585,-1.6426,-1.6355,-1.5835,-1.5633,-1.5587,-1.4778,-1.4642,-1.5118,-1.4595,-1.4232,-1.42,-1.4654,-1.4759,-1.454,-1.4848,-1.517,-1.5437,-1.5904,-1.6216,-1.6282,-1.7103,-1.792,-1.8721,-1.9356,-1.9939,-2.0409,-2.1118,-2.1774,-2.2379,-2.2512,-2.2876,-2.3601,-2.4317,-2.48,-2.5,-2.5407,-2.574,-2.5924,-2.6321,-2.6595,-2.6736,-2.6781,-2.683,-2.6864,-2.7097,-2.7483,-2.8023,-2.9044,-2.9673,-2.971,-2.9605,-2.9351,-2.9058,-2.8894,-2.8586,-2.8247,-2.8104,-2.8283,-2.8614,-2.8626,-2.82,-2.779,-2.7402,-2.7126,-2.6859,-2.6863,-2.672,-2.6437,-2.6104,-2.5969,-2.6076,-2.5895,-2.5771,-2.5606,-2.541,-2.5244,-2.5213,-2.5032,-2.5011,-2.7811,-2.7217,-2.6874,-2.6224,-2.5422,-2.551,-2.5271,-2.4869,-2.4827,-2.471,-2.4436,-2.3916,-2.3423,-2.3111,-2.3168,-2.2537,-2.1554,-2.1227,-2.0858,-2.0288,-1.9541,-1.9045,-1.8698,-1.7363,-1.644,-1.6043,-1.5363,-1.501,-1.509,-1.5262,-1.5452,-1.561,-1.5554,-1.5564,-1.5628,-1.5488,-1.5404,-1.5336,-1.5092,-1.4937,-1.479,-1.4232,-1.4104,-1.4394,-1.3928,-1.3635,-1.3575,-1.3958,-1.4087,-1.3932,-1.4317,-1.4584,-1.4809,-1.5351,-1.5795,-1.6051,-1.6787,-1.7609,-1.8483,-1.8895,-1.9379,-2.0144,-2.0772,-2.1245,-2.1492,-2.1778,-2.1985,-2.2038,-2.2786,-2.3362,-2.3896,-2.4238,-2.4537,-2.4822,-2.5032,-2.5379,-2.5687,-2.5484,-2.5459,-2.5591,-2.6109,-2.6409,-2.7089,-2.783,-2.8227,-2.8315,-2.8383,-2.8434,-2.8033,-2.7794,-2.7501,-2.6862,-2.6781,-2.7158,-2.7655,-2.7601,-2.7379,-2.693,-2.6556,-2.6177,-2.6037,-2.5932,-2.566,-2.4848,-2.4981,-2.4771,-2.4255,-2.4354,-2.4537,-2.4417,-2.4235,-2.3996,-2.3744,-2.3776,-2.3857,-2.6953,-2.6692,-2.6043,-2.5225,-2.4481,-2.4622,-2.4617,-2.4503,-2.457,-2.4173,-2.3555,-2.3345,-2.2524,-2.1175,-2.1358,-2.1445,-2.1338,-2.0601,-2.023,-2.0153,-1.9424,-1.8658,-1.7928,-1.7082,-1.6182,-1.542,-1.5149,-1.478,-1.4397,-1.4715,-1.4795,-1.46,-1.4842,-1.4945,-1.4818,-1.4684,-1.4616,-1.4399,-1.4497,-1.459,-1.4385,-1.3604,-1.3302,-1.3556,-1.3542,-1.321,-1.2919,-1.3583,-1.3882,-1.3527,-1.4142,-1.457,-1.4736,-1.4934,-1.5416,-1.6181,-1.6471,-1.7078,-1.8105,-1.8287,-1.8615,-1.9506,-2.0079,-2.0348,-2.0267,-2.0694,-2.0879,-2.0584,-2.0869,-2.1398,-2.2075,-2.2184,-2.2206,-2.2609,-2.3314,-2.3771,-2.393,-2.4438,-2.4777,-2.4782,-2.5481,-2.617,-2.6803,-2.6186,-2.6002,-2.6083,-2.5967,-2.6022,-2.6526,-2.6647,-2.626,-2.5831,-2.6002,-2.6745,-2.6934,-2.6619,-2.6125,-2.5561,-2.5015,-2.4647,-2.4277,-2.3923,-2.357,-2.3188,-2.2914,-2.2591,-2.2129,-2.2004,-2.2152,-2.2237,-2.2424,-2.2278,-2.2705,-2.2813,-2.2909,-2.5652,-2.4939,-2.4704,-2.4097,-2.3343,-2.3971,-2.4007,-2.3544,-2.3646,-2.3531,-2.3068,-2.2204,-2.1384,-2.0707,-1.982,-1.9828,-2.0402,-2.0203,-1.986,-1.9424,-1.8641,-1.7849,-1.7041,-1.6245,-1.5684,-1.5309,-1.5162,-1.4907,-1.4558,-1.4454,-1.4288,-1.4079,-1.3884,-1.3661,-1.3452,-1.3259,-1.3118,-1.3015,-1.3011,-1.3065,-1.3073,-1.2535,-1.2258,-1.2262,-1.2392,-1.2226,-1.1752,-1.2436,-1.2614,-1.2173,-1.2905,-1.3288,-1.3339,-1.4032,-1.48,-1.5521,-1.5899,-1.6391,-1.7003,-1.7357,-1.7784,-1.845,-1.8902,-1.9223,-1.9436,-1.9809,-2.01,-1.9984,-1.9866,-2.0089,-2.0356,-2.0886,-2.1374,-2.1588,-2.1954,-2.2248,-2.2233,-2.2521,-2.2731,-2.2874,-2.3677,-2.4322,-2.4559,-2.4548,-2.4687,-2.4786,-2.4771,-2.4678,-2.4519,-2.4513,-2.4343,-2.377,-2.3643,-2.3758,-2.3973,-2.4729,-2.4787,-2.4035,-2.3452,-2.305,-2.2656,-2.258,-2.2319,-2.2204,-2.1635,-2.1503,-2.1419,-2.1494,-2.1347,-2.138,-2.1434,-2.1308,-2.1892,-2.1892,-2.2043,-2.4531,-2.3834,-2.3562,-2.3143,-2.263,-2.3044,-2.294,-2.2502,-2.2592,-2.2444,-2.2002,-2.106,-2.0338,-1.9711,-1.8739,-1.851,-1.8987,-1.9154,-1.9005,-1.8501,-1.7722,-1.7068,-1.651,-1.5746,-1.5344,-1.5299,-1.5214,-1.5025,-1.4766,-1.4389,-1.416,-1.4042,-1.3551,-1.3159,-1.2891,-1.2591,-1.2353,-1.215,-1.206,-1.2034,-1.1971,-1.1846,-1.1639,-1.1478,-1.1491,-1.1416,-1.1155,-1.1444,-1.1565,-1.1494,-1.189,-1.2242,-1.2395,-1.336,-1.4236,-1.4759,-1.5148,-1.5651,-1.6216,-1.6523,-1.6892,-1.7545,-1.7929,-1.8232,-1.8422,-1.8848,-1.9061,-1.9006,-1.8877,-1.8796,-1.8975,-1.9622,-2.0298,-2.0625,-2.0841,-2.1017,-2.1152,-2.1344,-2.1613,-2.2013,-2.2425,-2.2586,-2.2501,-2.2737,-2.2869,-2.297,-2.3,-2.2836,-2.2741,-2.2665,-2.2452,-2.1996,-2.2048,-2.1946,-2.1918,-2.2282,-2.2995,-2.248,-2.2243,-2.1747,-2.1323,-2.1248,-2.1135,-2.1069,-2.0971,-2.0884,-2.0908,-2.1036,-2.1015,-2.0933,-2.0505,-2.0175,-2.061,-2.0926,-2.097,-2.3678,-2.3432,-2.2733,-2.2395,-2.2204,-2.178,-2.1514,-2.1534,-2.146,-2.1061,-2.0517,-2.0227,-1.9357,-1.8193,-1.8016,-1.7765,-1.7318,-1.7384,-1.7518,-1.75,-1.6847,-1.647,-1.6338,-1.5645,-1.5305,-1.5292,-1.516,-1.5043,-1.4906,-1.4595,-1.4416,-1.4307,-1.3892,-1.3539,-1.3295,-1.2893,-1.2435,-1.2042,-1.1885,-1.1701,-1.1373,-1.148,-1.1474,-1.1228,-1.0909,-1.0763,-1.0951,-1.0743,-1.0874,-1.1272,-1.1324,-1.1535,-1.2141,-1.2998,-1.3731,-1.3931,-1.4242,-1.4932,-1.5808,-1.5781,-1.6049,-1.6596,-1.7219,-1.726,-1.7185,-1.7536,-1.7787,-1.7684,-1.7649,-1.7651,-1.7828,-1.8084,-1.8625,-1.9412,-1.9835,-2.0266,-2.0727,-2.1067,-2.1439,-2.1842,-2.1713,-2.157,-2.1287,-2.0981,-2.0744,-2.0718,-2.0692,-2.0828,-2.1242,-2.1332,-2.1045,-2.0763,-2.0659,-2.0584,-2.0203,-1.9921,-2.0584,-2.1013,-2.1021,-2.0789,-2.0258,-2.0012,-1.9782,-1.9671,-1.9708,-1.9647,-2.0124,-2.0176,-1.9779,-1.9585,-1.9226,-1.9076,-1.9291,-1.9555,-1.9723,-2.3041,-2.2539,-2.2205,-2.1467,-2.0699,-2.0927,-2.0825,-2.0342,-2.0344,-2.0164,-1.9784,-1.9248,-1.8448,-1.7593,-1.7149,-1.6617,-1.6013,-1.5704,-1.5942,-1.6519,-1.6437,-1.6048,-1.5626,-1.5399,-1.5287,-1.5293,-1.5264,-1.5187,-1.5078,-1.4855,-1.4709,-1.4528,-1.4131,-1.3803,-1.358,-1.3073,-1.2556,-1.1963,-1.1703,-1.1399,-1.0932,-1.0862,-1.0783,-1.0612,-1.0221,-1.0105,-1.031,-1.0289,-1.0357,-1.0551,-1.0842,-1.1276,-1.1728,-1.2057,-1.2387,-1.2701,-1.316,-1.3683,-1.4365,-1.4784,-1.497,-1.5199,-1.5445,-1.566,-1.5795,-1.6233,-1.6587,-1.6773,-1.7005,-1.7131,-1.7118,-1.734,-1.7815,-1.8548,-1.8747,-1.8934,-1.9211,-1.9305,-1.9441,-1.9663,-1.972,-1.9643,-1.9628,-1.9397,-1.9435,-1.9406,-1.9441,-1.9602,-1.9777,-1.9929,-1.9792,-1.9564,-1.9438,-1.9226,-1.8817,-1.839,-1.8462,-1.9038,-1.9244,-1.9487,-1.909,-1.8687,-1.8438,-1.8455,-1.8421,-1.8683,-1.9179,-1.923,-1.8877,-1.8597,-1.8497,-1.8332,-1.8149,-1.8193,-1.8355,-2.1866,-2.1365,-2.0958,-2.0275,-1.9473,-1.9812,-1.9549,-1.9046,-1.9073,-1.9032,-1.8787,-1.8326,-1.753,-1.6777,-1.6291,-1.5648,-1.4856,-1.4451,-1.471,-1.5432,-1.5674,-1.5457,-1.5133,-1.5192,-1.521,-1.5188,-1.5215,-1.5202,-1.5163,-1.505,-1.4945,-1.4782,-1.447,-1.4144,-1.3868,-1.3448,-1.2905,-1.2171,-1.1815,-1.1277,-1.0703,-1.0485,-1.023,-0.9872,-0.9601,-0.9557,-0.9619,-0.9763,-0.9896,-1.0087,-1.0522,-1.0919,-1.118,-1.1431,-1.1737,-1.2014,-1.2469,-1.2964,-1.3347,-1.3729,-1.3972,-1.3942,-1.4128,-1.4486,-1.4887,-1.5228,-1.5598,-1.6225,-1.6411,-1.6484,-1.6557,-1.6568,-1.694,-1.7317,-1.7814,-1.7905,-1.7924,-1.78,-1.7903,-1.8082,-1.8228,-1.8365,-1.8444,-1.8592,-1.8616,-1.8577,-1.8577,-1.8669,-1.8669,-1.8711,-1.8608,-1.846,-1.8238,-1.7916,-1.7462,-1.7001,-1.6513,-1.685,-1.726,-1.7638,-1.7681,-1.734,-1.7084,-1.7422,-1.7522,-1.7948,-1.8397,-1.8406,-1.8171,-1.7984,-1.7697,-1.7359,-1.7096,-1.6998,-1.7122,-2.0281,-1.9989,-1.9253,-1.8965,-1.879,-1.8334,-1.8056,-1.7844,-1.7844,-1.7755,-1.7528,-1.7466,-1.6725,-1.5704,-1.5569,-1.495,-1.3873,-1.3803,-1.392,-1.4221,-1.4519,-1.4729,-1.492,-1.5006,-1.5034,-1.4999,-1.5048,-1.5088,-1.5058,-1.5073,-1.5113,-1.5042,-1.4847,-1.4598,-1.4195,-1.3968,-1.3258,-1.2427,-1.2015,-1.1278,-1.0356,-1.0264,-0.9945,-0.9242,-0.9089,-0.9038,-0.9066,-0.9238,-0.9582,-1.0,-1.0321,-1.0469,-1.0531,-1.1099,-1.1449,-1.1664,-1.2086,-1.2394,-1.2658,-1.2925,-1.3019,-1.3098,-1.3294,-1.3712,-1.4273,-1.4381,-1.4749,-1.5519,-1.5528,-1.5608,-1.5801,-1.5774,-1.5754,-1.5991,-1.6811,-1.7181,-1.7009,-1.6702,-1.6757,-1.6985,-1.7273,-1.7539,-1.7569,-1.7755,-1.7769,-1.773,-1.7649,-1.762,-1.7658,-1.757,-1.7532,-1.7239,-1.6803,-1.6284,-1.5763,-1.5695,-1.5239,-1.5128,-1.5623,-1.6184,-1.6517,-1.6235,-1.6243,-1.6532,-1.6731,-1.7199,-1.7545,-1.7589,-1.7397,-1.7055,-1.6708,-1.6285,-1.6102,-1.6006,-1.6027,-1.953,-1.886,-1.8618,-1.8285,-1.7897,-1.7646,-1.7509,-1.7406,-1.7358,-1.7109,-1.6887,-1.6777,-1.5991,-1.4859,-1.4886,-1.4377,-1.3531,-1.331,-1.347,-1.3639,-1.3739,-1.4144,-1.4569,-1.4751,-1.4779,-1.4763,-1.4837,-1.4922,-1.4888,-1.4988,-1.5076,-1.5098,-1.4997,-1.488,-1.469,-1.3829,-1.3029,-1.2377,-1.1728,-1.1002,-1.0209,-0.9918,-0.9686,-0.9354,-0.8786,-0.8606,-0.8674,-0.8834,-0.9261,-0.9923,-0.9916,-0.999,-1.0071,-1.0152,-1.0409,-1.0773,-1.1071,-1.1427,-1.1861,-1.2299,-1.2497,-1.237,-1.2447,-1.2714,-1.3066,-1.318,-1.3541,-1.4064,-1.4245,-1.4322,-1.4452,-1.4595,-1.475,-1.5024,-1.5595,-1.5916,-1.5785,-1.5742,-1.574,-1.5834,-1.5947,-1.6015,-1.6136,-1.619,-1.619,-1.6216,-1.6228,-1.6253,-1.6367,-1.6079,-1.5851,-1.5421,-1.4971,-1.4465,-1.4127,-1.413,-1.3965,-1.3684,-1.4137,-1.5026,-1.5294,-1.541,-1.5659,-1.6074,-1.6004,-1.6303,-1.6772,-1.7019,-1.6637,-1.6039,-1.5843,-1.5518,-1.5293,-1.517,-1.5099,-1.8121,-1.7601,-1.7529,-1.7287,-1.7018,-1.6935,-1.6809,-1.6664,-1.6538,-1.6311,-1.6001,-1.5849,-1.5161,-1.4232,-1.4087,-1.3588,-1.2783,-1.2485,-1.2634,-1.2989,-1.2974,-1.3377,-1.3941,-1.4137,-1.4128,-1.4283,-1.4401,-1.4472,-1.4532,-1.4706,-1.4822,-1.4878,-1.4941,-1.4927,-1.4822,-1.4299,-1.3413,-1.2648,-1.1937,-1.1106,-0.9941,-0.954,-0.9152,-0.8812,-0.8326,-0.8187,-0.838,-0.8475,-0.8797,-0.9336,-0.9497,-0.9562,-0.9619,-0.97,-0.9843,-1.0118,-1.0478,-1.0815,-1.1015,-1.144,-1.1612,-1.1551,-1.1545,-1.1869,-1.2307,-1.239,-1.2538,-1.3331,-1.3335,-1.3361,-1.3558,-1.3709,-1.3684,-1.3689,-1.3927,-1.4212,-1.4463,-1.4385,-1.446,-1.4525,-1.4613,-1.4714,-1.4955,-1.498,-1.5031,-1.5108,-1.4992,-1.504,-1.5034,-1.4559,-1.4143,-1.3769,-1.3552,-1.3232,-1.2979,-1.297,-1.3032,-1.2713,-1.2705,-1.3612,-1.4284,-1.4539,-1.4803,-1.5091,-1.5198,-1.5303,-1.5521,-1.5636,-1.5346,-1.4913,-1.4866,-1.4859,-1.4679,-1.448,-1.4384,-1.6463,-1.6378,-1.6215,-1.6176,-1.6215,-1.613,-1.5976,-1.5695,-1.5591,-1.536,-1.5032,-1.4788,-1.4288,-1.3553,-1.3247,-1.2675,-1.1936,-1.1442,-1.1534,-1.1748,-1.182,-1.2063,-1.274,-1.3001,-1.3096,-1.3335,-1.36,-1.3666,-1.3739,-1.399,-1.4267,-1.4252,-1.4439,-1.4578,-1.4348,-1.4394,-1.39,-1.2766,-1.2223,-1.1229,-0.9938,-0.9351,-0.8915,-0.8364,-0.7891,-0.786,-0.8007,-0.809,-0.8238,-0.8656,-0.8988,-0.9114,-0.9115,-0.9544,-0.9686,-0.9657,-0.9915,-1.0164,-1.0175,-1.029,-1.0472,-1.0494,-1.0467,-1.094,-1.1664,-1.1634,-1.1815,-1.2722,-1.255,-1.2498,-1.2788,-1.2843,-1.2669,-1.2467,-1.223,-1.2502,-1.3021,-1.3011,-1.2949,-1.3228,-1.3301,-1.3579,-1.3873,-1.4132,-1.4047,-1.3444,-1.3405,-1.3316,-1.3232,-1.2864,-1.2596,-1.2379,-1.2215,-1.2146,-1.1963,-1.1845,-1.1936,-1.1893,-1.1664,-1.2212,-1.3306,-1.367,-1.3824,-1.4016,-1.4151,-1.3955,-1.3657,-1.37,-1.3783,-1.391,-1.3937,-1.4112,-1.4228,-1.4012,-1.3855,-1.5739,-1.5638,-1.5652,-1.5695,-1.5767,-1.5593,-1.5375,-1.5181,-1.4972,-1.4603,-1.4251,-1.4011,-1.344,-1.2683,-1.235,-1.1812,-1.1001,-1.0532,-1.0276,-0.986,-0.9592,-0.9811,-1.0571,-1.1348,-1.1882,-1.1996,-1.2412,-1.2417,-1.2372,-1.2936,-1.3323,-1.2929,-1.3148,-1.3342,-1.3322,-1.3036,-1.2565,-1.2058,-1.1864,-1.1111,-1.0019,-0.9473,-0.9081,-0.8489,-0.7753,-0.7421,-0.7504,-0.7421,-0.7479,-0.7835,-0.8285,-0.8537,-0.8495,-0.8666,-0.882,-0.882,-0.8936,-0.905,-0.9005,-0.9169,-0.9297,-0.9477,-0.9607,-0.9878,-1.0589,-1.0657,-1.0845,-1.1399,-1.1323,-1.1235,-1.1454,-1.1561,-1.1531,-1.1406,-1.1406,-1.1424,-1.163,-1.2002,-1.2141,-1.2013,-1.1862,-1.1791,-1.168,-1.1707,-1.1694,-1.1685,-1.167,-1.1539,-1.1359,-1.1156,-1.0937,-1.0772,-1.0689,-1.0611,-1.0611,-1.0596,-1.0865,-1.0891,-1.0718,-1.0735,-1.1827,-1.2453,-1.2484,-1.2743,-1.3123,-1.2802,-1.2387,-1.2623,-1.2898,-1.2968,-1.3038,-1.3243,-1.3365,-1.33,-1.3384,-1.4984,-1.4831,-1.4741,-1.4786,-1.4847,-1.4558,-1.4306,-1.41,-1.3874,-1.3537,-1.3157,-1.2869,-1.234,-1.1733,-1.1307,-1.0738,-1.0154,-0.9729,-0.9215,-0.8711,-0.8424,-0.848,-0.8523,-0.9304,-0.9843,-1.0464,-1.0973,-1.0964,-1.1022,-1.138,-1.1612,-1.1377,-1.1641,-1.1917,-1.2128,-1.1897,-1.171,-1.1398,-1.1248,-1.0714,-0.9868,-0.9514,-0.8987,-0.8392,-0.7592,-0.7205,-0.7182,-0.7035,-0.7005,-0.7163,-0.7562,-0.7831,-0.7884,-0.8129,-0.8262,-0.8158,-0.8406,-0.8502,-0.853,-0.8484,-0.8596,-0.8829,-0.8848,-0.9136,-0.9557,-0.9732,-0.9878,-1.0071,-1.0083,-1.0062,-1.0071,-1.0364,-1.0427,-1.0313,-1.0257,-1.0211,-1.0278,-1.0773,-1.1171,-1.0862,-1.0582,-1.0476,-1.0256,-1.0088,-1.0122,-1.0465,-1.0142,-1.0008,-0.9813,-0.9611,-0.9271,-0.9091,-0.9063,-0.9051,-0.9108,-0.9324,-0.9781,-0.9768,-0.9585,-0.9669,-1.0185,-1.0647,-1.0979,-1.1451,-1.1966,-1.175,-1.1455,-1.175,-1.1965,-1.2046,-1.2169,-1.236,-1.258,-1.2788,-1.2899,-1.4076,-1.3854,-1.367,-1.365,-1.3663,-1.3336,-1.3039,-1.2787,-1.2495,-1.2248,-1.1923,-1.1531,-1.1169,-1.0712,-1.0193,-0.9685,-0.9121,-0.8602,-0.7938,-0.7418,-0.7372,-0.7257,-0.7172,-0.7252,-0.7733,-0.906,-0.9454,-0.9461,-0.9436,-0.968,-0.9932,-0.9809,-1.0064,-1.034,-1.0662,-1.0966,-1.0879,-1.056,-1.0496,-1.0128,-0.9197,-0.8631,-0.7591,-0.6694,-0.6204,-0.618,-0.6263,-0.6358,-0.6358,-0.6336,-0.6717,-0.6896,-0.7104,-0.7676,-0.7973,-0.7611,-0.787,-0.7975,-0.7936,-0.7936,-0.8003,-0.832,-0.8225,-0.8348,-0.8766,-0.8958,-0.9009,-0.9012,-0.9043,-0.8984,-0.8875,-0.913,-0.922,-0.9106,-0.8887,-0.8892,-0.9043,-0.9487,-0.9621,-0.9908,-0.9584,-0.9379,-0.9244,-0.913,-0.9169,-0.9135,-0.8797,-0.8491,-0.8339,-0.8186,-0.79,-0.7748,-0.7806,-0.7992,-0.809,-0.8268,-0.8688,-0.8671,-0.8513,-0.8639,-0.8763,-0.903,-0.9563,-1.0355,-1.0698,-1.0586,-1.0638,-1.0821,-1.1016,-1.1135,-1.1335,-1.1549,-1.1899,-1.228,-1.2307,-1.2728,-1.2378,-1.2554,-1.2601,-1.2531,-1.2224,-1.1926,-1.1684,-1.1318,-1.1079,-1.0891,-1.0407,-1.005,-0.9702,-0.9279,-0.856,-0.7769,-0.7116,-0.6523,-0.6116,-0.6025,-0.5791,-0.5739,-0.5674,-0.5884,-0.6353,-0.7243,-0.7766,-0.7817,-0.8294,-0.8356,-0.8114,-0.8318,-0.8652,-0.8984,-0.9331,-0.9514,-0.9455,-0.9488,-0.9167,-0.8207,-0.6387,-0.4733,-0.3816,-0.3499,-0.3843,-0.4783,-0.5128,-0.5199,-0.513,-0.5705,-0.578,-0.5758,-0.6482,-0.6855,-0.688,-0.6935,-0.7078,-0.715,-0.7111,-0.7099,-0.7169,-0.7364,-0.7625,-0.7913,-0.8032,-0.8157,-0.8296,-0.8175,-0.7999,-0.7956,-0.8079,-0.7991,-0.7886,-0.7922,-0.8,-0.8033,-0.8029,-0.8121,-0.8558,-0.8477,-0.8401,-0.8303,-0.8154,-0.8063,-0.7952,-0.7679,-0.7367,-0.713,-0.6979,-0.6781,-0.6704,-0.6685,-0.6922,-0.7177,-0.7384,-0.765,-0.7595,-0.7512,-0.7591,-0.7682,-0.7699,-0.8157,-0.8963,-0.9619,-0.988,-0.9931,-0.9969,-1.003,-1.013,-1.0418,-1.0741,-1.0991,-1.1243,-1.1199,-1.1754,-1.1376,-1.1376,-1.1328,-1.1265,-1.0956,-1.0692,-1.0512,-1.0253,-1.0031,-0.9806,-0.9323,-0.8876,-0.8561,-0.8113,-0.7409,-0.6659,-0.6051,-0.5667,-0.5429,-0.5109,-0.4923,-0.4787,-0.4699,-0.4736,-0.5023,-0.5614,-0.601,-0.6013,-0.6583,-0.6739,-0.6478,-0.6565,-0.6825,-0.7113,-0.7307,-0.7671,-0.7871,-0.8046,-0.7811,-0.6978,-0.4501,-0.2697,-0.1501,-0.1121,-0.1526,-0.1963,-0.3151,-0.3357,-0.3425,-0.4219,-0.4549,-0.465,-0.4935,-0.5574,-0.6029,-0.6229,-0.6452,-0.6634,-0.6703,-0.6646,-0.682,-0.6906,-0.6876,-0.7004,-0.7168,-0.738,-0.7416,-0.7365,-0.7053,-0.6835,-0.7011,-0.7011,-0.6908,-0.6917,-0.7024,-0.7098,-0.6964,-0.7078,-0.7324,-0.7266,-0.7283,-0.7412,-0.7232,-0.6978,-0.6763,-0.6548,-0.6297,-0.6022,-0.5909,-0.5788,-0.565,-0.5616,-0.5753,-0.6071,-0.6381,-0.6482,-0.6426,-0.6629,-0.6704,-0.6711,-0.6794,-0.7023,-0.7546,-0.8189,-0.8886,-0.8948,-0.8875,-0.9017,-0.9185,-0.9503,-0.9805,-0.9995,-1.0122,-1.0222,-1.0761,-1.0312,-1.0147,-1.006,-0.9943,-0.9679,-0.9442,-0.9213,-0.9102,-0.8901,-0.8707,-0.8162,-0.775,-0.7384,-0.6923,-0.6368,-0.5851,-0.5468,-0.5127,-0.4913,-0.4479,-0.4284,-0.4152,-0.4083,-0.394,-0.3914,-0.4065,-0.426,-0.4913,-0.5231,-0.5158,-0.5221,-0.5182,-0.5375,-0.5774,-0.6082,-0.6048,-0.6236,-0.6237,-0.595,-0.4497,-0.2642,-0.0842,0.0674,0.086,0.1102,0.0674,-0.0519,-0.1072,-0.1447,-0.2258,-0.3176,-0.3177,-0.3429,-0.414,-0.5133,-0.5529,-0.6006,-0.6221,-0.6329,-0.6245,-0.6368,-0.6421,-0.6268,-0.616,-0.6371,-0.6567,-0.6459,-0.6311,-0.6204,-0.5998,-0.6047,-0.6086,-0.6039,-0.595,-0.5959,-0.6137,-0.6121,-0.5991,-0.6111,-0.6095,-0.6196,-0.6315,-0.6157,-0.5876,-0.58,-0.5596,-0.5339,-0.5073,-0.5052,-0.4902,-0.4703,-0.4602,-0.464,-0.4885,-0.5283,-0.5334,-0.5223,-0.5644,-0.5974,-0.5969,-0.596,-0.6218,-0.6475,-0.7089,-0.7725,-0.7737,-0.7899,-0.8156,-0.8417,-0.867,-0.8937,-0.9168,-0.9477,-0.9703,-0.9293,-0.878,-0.8941,-0.8804,-0.8561,-0.8407,-0.8203,-0.7874,-0.7626,-0.7474,-0.7426,-0.6881,-0.6586,-0.638,-0.5819,-0.5524,-0.525,-0.4699,-0.4261,-0.4144,-0.365,-0.3235,-0.2989,-0.3022,-0.2984,-0.2952,-0.2952,-0.3547,-0.4082,-0.4236,-0.4367,-0.4384,-0.4623,-0.5015,-0.4966,-0.5111,-0.5851,-0.5708,-0.491,-0.3136,-0.0668,0.1203,0.2325,0.3207,0.4129,0.4466,0.3255,0.2037,0.1323,0.126,-0.0302,-0.1069,-0.1159,-0.2188,-0.2687,-0.3316,-0.3946,-0.4808,-0.5166,-0.5476,-0.5638,-0.5768,-0.586,-0.5813,-0.5693,-0.555,-0.562,-0.549,-0.5401,-0.5363,-0.5284,-0.5183,-0.5106,-0.5164,-0.5201,-0.5163,-0.5237,-0.551,-0.5364,-0.5051,-0.5096,-0.5125,-0.5202,-0.4987,-0.4796,-0.4711,-0.461,-0.4379,-0.4205,-0.4162,-0.4097,-0.3884,-0.3709,-0.3733,-0.3848,-0.4223,-0.4296,-0.4127,-0.4617,-0.5138,-0.5108,-0.5081,-0.5233,-0.5568,-0.6137,-0.6559,-0.6716,-0.6962,-0.7315,-0.7543,-0.7669,-0.8015,-0.8396,-0.8729,-0.8963,-0.7702,-0.7799,-0.7702,-0.7487,-0.7161,-0.6945,-0.6729,-0.6476,-0.6222,-0.6186,-0.6155,-0.5776,-0.5475,-0.5216,-0.4652,-0.4347,-0.4172,-0.3734,-0.3399,-0.3282,-0.2885,-0.2556,-0.2422,-0.2349,-0.2237,-0.2098,-0.2162,-0.2307,-0.2863,-0.3224,-0.3419,-0.3442,-0.35,-0.3615,-0.3889,-0.3798,-0.3876,-0.3692,-0.2934,-0.1246,0.1109,0.3319,0.4961,0.5716,0.7018,0.7098,0.639,0.457,0.3722,0.3436,0.2096,0.1194,0.0873,0.0139,-0.0421,-0.0795,-0.1775,-0.298,-0.4184,-0.4587,-0.486,-0.5009,-0.5205,-0.5295,-0.5207,-0.5042,-0.4947,-0.5036,-0.489,-0.482,-0.4782,-0.4698,-0.4698,-0.4698,-0.4628,-0.4654,-0.4668,-0.4772,-0.4789,-0.4439,-0.4045,-0.3989,-0.4004,-0.4055,-0.3981,-0.4012,-0.3917,-0.3725,-0.3489,-0.3334,-0.3243,-0.3118,-0.2973,-0.2869,-0.299,-0.3214,-0.3354,-0.3343,-0.3694,-0.4102,-0.4127,-0.4187,-0.4418,-0.4547,-0.4859,-0.526,-0.5601,-0.5982,-0.6347,-0.651,-0.664,-0.7104,-0.7518,-0.7576,-0.7848,-0.6113,-0.6434,-0.6386,-0.6192,-0.5851,-0.5594,-0.5411,-0.5245,-0.511,-0.5115,-0.5077,-0.4826,-0.4522,-0.4128,-0.3829,-0.3653,-0.3429,-0.3078,-0.283,-0.2535,-0.2229,-0.1971,-0.1745,-0.1652,-0.1508,-0.1386,-0.1361,-0.1363,-0.1422,-0.1737,-0.2128,-0.2461,-0.2554,-0.2584,-0.2613,-0.253,-0.2422,-0.2074,-0.0795,0.0721,0.2543,0.5364,0.6965,0.8105,0.9032,0.9782,0.9498,0.7892,0.6579,0.617,0.5169,0.427,0.3705,0.2989,0.2404,0.1937,0.1089,-0.0,-0.1571,-0.2716,-0.3738,-0.4163,-0.4354,-0.443,-0.4462,-0.4371,-0.4274,-0.4318,-0.4344,-0.4339,-0.4339,-0.4248,-0.4285,-0.4248,-0.421,-0.4264,-0.4205,-0.3967,-0.3786,-0.3475,-0.3058,-0.2659,-0.2754,-0.3043,-0.316,-0.3259,-0.3186,-0.3021,-0.2817,-0.2582,-0.2473,-0.2386,-0.2245,-0.2114,-0.214,-0.2276,-0.2363,-0.2526,-0.2885,-0.3144,-0.3223,-0.3459,-0.375,-0.384,-0.3874,-0.4026,-0.4411,-0.4876,-0.5357,-0.5676,-0.5984,-0.6297,-0.6565,-0.6582,-0.6766,-0.4473,-0.421,-0.4891,-0.4986,-0.4721,-0.4726,-0.447,-0.4216,-0.4299,-0.4256,-0.4128,-0.3997,-0.369,-0.3344,-0.3258,-0.3258,-0.3303,-0.2909,-0.2452,-0.209,-0.1744,-0.1263,-0.102,-0.0838,-0.0641,-0.0516,-0.0483,-0.0343,-0.0169,-0.0271,-0.1004,-0.1769,-0.1637,-0.1878,-0.1959,-0.173,-0.1116,-0.0354,0.1285,0.2671,0.4547,0.706,0.9335,0.9628,1.0735,1.1621,1.1406,1.0261,0.9483,0.9224,0.8112,0.725,0.6536,0.5726,0.5095,0.4627,0.3949,0.3031,0.1954,-0.0547,-0.2463,-0.2929,-0.305,-0.3098,-0.3265,-0.3379,-0.3355,-0.3392,-0.3523,-0.3653,-0.3719,-0.3756,-0.3653,-0.3588,-0.3388,-0.3216,-0.3046,-0.2677,-0.2506,-0.2388,-0.2087,-0.1704,-0.1401,-0.1667,-0.2051,-0.2153,-0.2254,-0.211,-0.2083,-0.1887,-0.1755,-0.1651,-0.1521,-0.1405,-0.1338,-0.1422,-0.1548,-0.1673,-0.1909,-0.2194,-0.2392,-0.2693,-0.3006,-0.3241,-0.3305,-0.3248,-0.3273,-0.3857,-0.4411,-0.4933,-0.5256,-0.5278,-0.5591,-0.5799,-0.5977,-0.3141,-0.2879,-0.2934,-0.3193,-0.3598,-0.3466,-0.3385,-0.3255,-0.312,-0.3028,-0.2896,-0.2896,-0.2765,-0.2499,-0.2279,-0.2235,-0.2057,-0.1789,-0.1476,-0.1136,-0.0773,-0.0505,-0.0297,-0.0181,-0.0072,0.0176,0.0316,0.0423,0.0531,0.0751,0.0503,-0.0067,-0.0433,-0.0726,-0.0808,-0.067,0.0031,0.1195,0.276,0.4111,0.5408,0.847,1.0683,1.0582,1.189,1.2508,1.2317,1.1571,1.1051,1.0603,1.0049,0.9514,0.8959,0.8047,0.7513,0.7091,0.6347,0.5744,0.4891,0.2299,0.0244,-0.0528,-0.0685,-0.1004,-0.1631,-0.19,-0.2279,-0.2485,-0.2623,-0.2613,-0.2798,-0.2758,-0.2688,-0.2662,-0.2498,-0.2263,-0.1976,-0.1607,-0.1321,-0.1267,-0.1061,-0.0774,-0.048,-0.0246,-0.0668,-0.1044,-0.115,-0.1216,-0.1198,-0.1154,-0.1044,-0.0955,-0.0824,-0.0713,-0.0645,-0.0689,-0.0733,-0.0841,-0.0948,-0.1267,-0.1543,-0.1844,-0.2156,-0.2454,-0.268,-0.2603,-0.268,-0.3004,-0.3418,-0.3893,-0.3973,-0.3887,-0.4318,-0.4956,-0.5108,-0.205,-0.1784,-0.1527,-0.1806,-0.2457,-0.237,-0.2237,-0.2192,-0.2101,-0.1921,-0.1743,-0.1876,-0.1832,-0.1606,-0.1497,-0.136,-0.1219,-0.0988,-0.071,-0.0484,-0.0271,0.0037,0.0253,0.0461,0.0669,0.0888,0.1134,0.1304,0.1368,0.1635,0.1477,0.1236,0.1071,0.07,0.03,0.0634,0.1303,0.2298,0.4443,0.5662,0.6756,1.0086,1.2313,1.2257,1.3173,1.3456,1.3333,1.2855,1.2406,1.2068,1.1688,1.1285,1.0709,1.0151,0.9672,0.9131,0.8584,0.7934,0.7012,0.4745,0.2697,0.1798,0.1535,0.1014,0.0385,-0.0032,-0.0227,-0.0785,-0.1049,-0.1285,-0.1422,-0.1385,-0.1553,-0.1557,-0.1396,-0.113,-0.0966,-0.0654,-0.0373,-0.0176,0.0028,0.0211,0.066,0.0907,0.044,-0.0,-0.0332,-0.0376,-0.0332,-0.0311,-0.0266,-0.02,-0.0156,-0.0044,0.0044,0.0044,0.0088,0.0177,-0.0022,-0.0386,-0.0704,-0.1006,-0.1339,-0.1692,-0.1871,-0.1879,-0.1927,-0.2006,-0.238,-0.2832,-0.2956,-0.3173,-0.362,-0.4238,-0.4104,-0.109,-0.0953,-0.087,-0.107,-0.135,-0.1389,-0.1299,-0.1298,-0.1298,-0.1208,-0.0984,-0.1074,-0.0939,-0.0754,-0.0691,-0.0638,-0.0588,-0.0568,-0.0389,-0.0075,0.0223,0.0427,0.0758,0.112,0.1331,0.1581,0.1861,0.2073,0.2127,0.2253,0.2242,0.2305,0.2172,0.1971,0.1236,0.1667,0.2137,0.301,0.6414,0.7639,0.8977,1.1874,1.3387,1.4052,1.408,1.4176,1.4057,1.3938,1.3579,1.3445,1.3229,1.2928,1.2623,1.229,1.1974,1.1717,1.1607,1.126,1.0636,0.667,0.4861,0.4152,0.3967,0.3374,0.2718,0.2355,0.2113,0.1578,0.126,0.0876,0.0554,0.0229,-0.0,-0.0066,0.0165,0.033,0.0561,0.0952,0.1403,0.153,0.1275,0.1219,0.1737,0.1995,0.1519,0.1055,0.0599,0.0467,0.0576,0.0619,0.0682,0.0706,0.075,0.0883,0.097,0.0885,0.0909,0.1018,0.091,0.0501,0.0181,-0.0118,-0.0482,-0.0906,-0.1035,-0.1053,-0.0964,-0.0886,-0.1331,-0.1807,-0.2467,-0.2812,-0.322,-0.3301,-0.3047,0.0264,0.0208,0.0603,0.0532,0.014,-0.0498,-0.0806,-0.0806,-0.0761,-0.0537,-0.0224,-0.0134,0.0089,0.0265,0.0385,0.0376,0.0415,0.0479,0.0609,0.0691,0.0904,0.1124,0.143,0.1705,0.1937,0.2037,0.2368,0.2537,0.2311,0.2709,0.2907,0.2973,0.3105,0.3035,0.2831,0.2958,0.3155,0.369,0.6003,0.7985,0.9236,1.1793,1.3761,1.4575,1.4519,1.4451,1.4434,1.4368,1.4306,1.4206,1.3955,1.3768,1.3539,1.3227,1.2983,1.2804,1.2657,1.2333,1.1737,0.9697,0.8346,0.7352,0.653,0.6165,0.5949,0.4807,0.4365,0.3941,0.3362,0.2884,0.2514,0.2487,0.2358,0.2354,0.2495,0.2534,0.273,0.323,0.3608,0.3515,0.3317,0.3058,0.3295,0.3524,0.3151,0.2826,0.245,0.184,0.1743,0.1747,0.1765,0.175,0.1779,0.1891,0.196,0.1962,0.1858,0.1911,0.1724,0.1368,0.1047,0.0663,0.0282,-0.0181,-0.0221,-0.023,-0.0202,-0.023,-0.0368,-0.0803,-0.1226,-0.1624,-0.1849,-0.181,-0.1637,0.1291,0.1221,0.161,0.1647,0.1284,0.0555,0.0136,0.0045,0.0179,0.0447,0.0715,0.0849,0.1028,0.1232,0.1309,0.1394,0.1384,0.1413,0.1436,0.1554,0.1796,0.1928,0.2094,0.2305,0.2471,0.2567,0.2798,0.2999,0.2999,0.3401,0.3569,0.363,0.3793,0.3946,0.3909,0.3909,0.4197,0.5152,0.7227,0.8893,1.0356,1.2127,1.3653,1.4249,1.4439,1.4374,1.435,1.4319,1.4281,1.4237,1.4127,1.3977,1.3783,1.3601,1.3378,1.3278,1.3123,1.2858,1.2425,1.205,1.0692,0.9855,0.9377,0.875,0.8262,0.7209,0.6585,0.6081,0.5348,0.4907,0.4606,0.4648,0.4508,0.45,0.4289,0.43,0.4431,0.4895,0.5161,0.5104,0.5121,0.4941,0.4841,0.4919,0.4906,0.4641,0.4377,0.3696,0.3004,0.2893,0.2867,0.283,0.2872,0.2998,0.309,0.3134,0.3021,0.2829,0.2464,0.2043,0.1582,0.1146,0.0852,0.059,0.0477,0.0397,0.0419,0.0393,0.0426,0.0496,0.0441,0.0042,-0.0356,-0.0553,-0.0627,0.203,0.208,0.2234,0.2246,0.211,0.175,0.1526,0.1435,0.1523,0.1654,0.1784,0.183,0.1964,0.2065,0.1929,0.1988,0.2112,0.2118,0.2184,0.2304,0.2552,0.2686,0.2882,0.3105,0.3233,0.3303,0.3467,0.3723,0.3858,0.3928,0.4058,0.4312,0.45,0.4654,0.4686,0.4746,0.505,0.6157,0.7603,0.9241,1.0785,1.2723,1.3705,1.4205,1.432,1.435,1.4338,1.4325,1.4356,1.4301,1.4206,1.4087,1.398,1.3883,1.3746,1.3589,1.3445,1.3295,1.3123,1.2783,1.2447,1.1574,1.1183,1.0275,0.9419,0.8873,0.8386,0.7913,0.7329,0.6993,0.6713,0.6541,0.637,0.6083,0.5755,0.577,0.5876,0.6145,0.6395,0.6497,0.6562,0.6514,0.6493,0.6553,0.6587,0.6456,0.6116,0.5502,0.4811,0.4063,0.4003,0.3923,0.4003,0.4135,0.4162,0.3952,0.3569,0.3194,0.2961,0.2565,0.2079,0.1622,0.1344,0.1126,0.1055,0.1018,0.1031,0.1203,0.1406,0.1456,0.1289,0.1002,0.0352,0.002,-0.0123,0.3219,0.3301,0.3687,0.3591,0.3153,0.2843,0.2485,0.2103,0.2192,0.2368,0.2586,0.2721,0.2857,0.302,0.3076,0.3127,0.3161,0.3154,0.3199,0.3281,0.3361,0.3508,0.3714,0.3946,0.4081,0.4145,0.4242,0.4307,0.4339,0.4382,0.4678,0.4992,0.5049,0.5201,0.5257,0.5257,0.5576,0.6207,0.7583,0.9107,1.0582,1.2145,1.3138,1.3871,1.421,1.4277,1.4301,1.4288,1.4331,1.4411,1.4219,1.4127,1.4206,1.4012,1.3826,1.3746,1.3655,1.356,1.3463,1.3192,1.2857,1.2632,1.2343,1.1623,1.0694,1.002,0.9705,0.9254,0.8958,0.8567,0.8437,0.8327,0.8129,0.7837,0.7613,0.7644,0.7739,0.781,0.8059,0.8187,0.8268,0.8203,0.8181,0.8175,0.8203,0.8149,0.7821,0.7178,0.6509,0.5731,0.5087,0.5001,0.4981,0.5093,0.4655,0.4378,0.3936,0.3532,0.327,0.2957,0.2452,0.2031,0.1792,0.159,0.1421,0.1482,0.1618,0.1755,0.1777,0.1766,0.1627,0.1392,0.112,0.0713,0.0409,0.4181,0.4291,0.4736,0.4608,0.4136,0.3785,0.352,0.3337,0.3034,0.2993,0.3255,0.3429,0.3656,0.3811,0.3917,0.4029,0.4081,0.4058,0.4079,0.4078,0.4238,0.4328,0.4534,0.4654,0.4666,0.4762,0.482,0.4845,0.4884,0.5081,0.5379,0.5529,0.5522,0.5554,0.5617,0.5679,0.5679,0.6205,0.7121,0.8515,0.9927,1.1297,1.2533,1.3352,1.379,1.4149,1.425,1.4224,1.4293,1.4423,1.425,1.4242,1.4306,1.4136,1.397,1.3891,1.3836,1.3715,1.3592,1.3413,1.3088,1.2899,1.2915,1.2347,1.1736,1.1076,1.0677,1.0285,1.0133,1.0007,1.0059,1.0058,0.9866,0.9636,0.9656,0.9661,0.9668,0.9688,0.9818,0.9956,0.9956,0.989,0.9862,0.9819,0.9772,0.9682,0.9273,0.8556,0.7915,0.7218,0.6445,0.5965,0.5971,0.5983,0.5427,0.4807,0.4294,0.3865,0.3482,0.3144,0.2725,0.2363,0.2047,0.1858,0.1702,0.1754,0.1798,0.1882,0.1909,0.1865,0.1845,0.1692,0.1483,0.1228,0.0987,0.5007,0.5058,0.542,0.5362,0.5029,0.4612,0.4578,0.4874,0.3965,0.3656,0.3873,0.4089,0.4312,0.4548,0.4754,0.4849,0.4989,0.5021,0.5122,0.4963,0.509,0.5205,0.5248,0.5169,0.5264,0.5207,0.5207,0.5352,0.5428,0.5624,0.5835,0.6014,0.5959,0.5959,0.599,0.6091,0.6114,0.6258,0.7103,0.8328,0.9747,1.1049,1.2041,1.2397,1.3126,1.3846,1.4116,1.4211,1.4247,1.4337,1.4374,1.4367,1.4324,1.4293,1.4154,1.406,1.4009,1.3891,1.3761,1.3591,1.3379,1.3174,1.2979,1.2713,1.2283,1.1837,1.1393,1.1141,1.094,1.1099,1.1166,1.136,1.13,1.1285,1.1319,1.1255,1.12,1.122,1.1314,1.1378,1.1254,1.1185,1.1127,1.1051,1.0871,1.0973,1.0465,0.9677,0.9259,0.8622,0.7737,0.6983,0.6962,0.6789,0.6005,0.5377,0.4716,0.422,0.3879,0.3353,0.295,0.2605,0.227,0.2154,0.2042,0.1858,0.1839,0.1971,0.1998,0.1833,0.1826,0.1891,0.179,0.1668,0.1497,0.5719,0.5846,0.577,0.5679,0.5547,0.5055,0.4927,0.5053,0.484,0.4787,0.4918,0.4918,0.5048,0.5368,0.5673,0.5834,0.5979,0.6049,0.6298,0.6179,0.6151,0.6067,0.6196,0.5985,0.5958,0.6021,0.599,0.5882,0.5983,0.6137,0.626,0.6321,0.639,0.646,0.636,0.6429,0.6526,0.6471,0.6915,0.7737,0.8801,1.0059,1.1056,1.1738,1.2588,1.3251,1.3639,1.4178,1.4295,1.4429,1.4441,1.4399,1.4302,1.4338,1.4277,1.4193,1.4154,1.4069,1.3945,1.3818,1.3667,1.3526,1.3345,1.3124,1.2832,1.2432,1.2143,1.1921,1.188,1.2104,1.2388,1.2588,1.2749,1.2839,1.2932,1.2809,1.2661,1.2696,1.2765,1.2627,1.2482,1.2378,1.2334,1.2169,1.2066,1.1615,1.0961,1.0424,1.0387,0.989,0.8737,0.806,0.7966,0.7622,0.6712,0.5862,0.5148,0.485,0.4576,0.3951,0.327,0.2911,0.2634,0.2523,0.2389,0.2401,0.2357,0.219,0.2148,0.2095,0.2006,0.2171,0.2242,0.2166,0.1958,0.6263,0.6387,0.6288,0.6173,0.605,0.5696,0.5624,0.5717,0.5701,0.583,0.5953,0.5739,0.5782,0.6155,0.6507,0.6725,0.6904,0.6984,0.7018,0.703,0.6966,0.6877,0.679,0.6714,0.6614,0.6632,0.6609,0.6554,0.6587,0.6708,0.6829,0.6837,0.6936,0.6906,0.6717,0.6846,0.6846,0.6725,0.6824,0.7194,0.7877,0.8896,0.9601,1.0387,1.1532,1.2381,1.3164,1.3807,1.4374,1.4504,1.4549,1.4519,1.4478,1.4501,1.4456,1.4398,1.435,1.4314,1.4188,1.4069,1.3945,1.3815,1.3696,1.3491,1.3312,1.2971,1.3011,1.2832,1.2947,1.3151,1.3848,1.418,1.4054,1.406,1.4228,1.4255,1.3922,1.3663,1.3657,1.3563,1.342,1.3328,1.3137,1.272,1.2501,1.185,1.1223,1.0812,1.0845,1.0712,0.966,0.8863,0.8605,0.7908,0.68,0.6112,0.5538,0.5331,0.5287,0.4719,0.4104,0.3459,0.3023,0.3154,0.3266,0.3317,0.3216,0.298,0.2856,0.289,0.2682,0.251,0.2576,0.2672,0.2559,0.6735,0.6737,0.6829,0.6732,0.6562,0.6378,0.6372,0.6544,0.6562,0.6774,0.6943,0.6465,0.6537,0.6875,0.7175,0.7363,0.7516,0.759,0.7631,0.7701,0.7586,0.7585,0.7447,0.7264,0.7095,0.7037,0.7032,0.7159,0.7285,0.7334,0.7325,0.7393,0.7344,0.7255,0.7145,0.7065,0.7035,0.6996,0.7026,0.6996,0.737,0.7744,0.8231,0.9196,1.0476,1.1914,1.2601,1.3472,1.4354,1.4606,1.4688,1.4698,1.4678,1.4688,1.4658,1.4606,1.4577,1.4501,1.4386,1.4308,1.4214,1.4096,1.3987,1.388,1.3717,1.38,1.3834,1.4124,1.4222,1.432,1.4994,1.5484,1.532,1.5333,1.555,1.5639,1.5201,1.4813,1.4727,1.4601,1.4334,1.4221,1.3825,1.3372,1.27,1.2079,1.1601,1.1198,1.0851,1.0512,0.9892,0.9177,0.8731,0.7885,0.7035,0.6662,0.6268,0.6118,0.6058,0.5507,0.4991,0.4494,0.418,0.4157,0.4243,0.4304,0.415,0.3902,0.3811,0.3683,0.3185,0.2895,0.3062,0.3138,0.3189,0.703,0.6875,0.7191,0.7138,0.6871,0.6874,0.6898,0.6901,0.7034,0.7251,0.7454,0.7503,0.7454,0.753,0.7704,0.7919,0.8118,0.8201,0.8414,0.8601,0.8242,0.824,0.8173,0.7874,0.7355,0.736,0.749,0.753,0.7724,0.7744,0.7715,0.7608,0.7744,0.7637,0.7403,0.7383,0.7442,0.7412,0.7294,0.7255,0.7285,0.7589,0.7795,0.8805,1.0099,1.1339,1.2459,1.3844,1.4491,1.4784,1.4988,1.5081,1.51,1.5093,1.5009,1.4944,1.4916,1.4709,1.461,1.4534,1.4421,1.438,1.4342,1.4432,1.4478,1.4805,1.5132,1.5836,1.5796,1.5265,1.5705,1.6326,1.6433,1.6714,1.6938,1.6821,1.6546,1.6345,1.6208,1.5678,1.5094,1.4822,1.4406,1.3766,1.2888,1.2313,1.1903,1.1489,1.0959,1.0508,1.0001,0.9391,0.8792,0.8453,0.7839,0.7634,0.7325,0.7129,0.683,0.6353,0.5957,0.567,0.544,0.526,0.5251,0.5331,0.5112,0.4995,0.4586,0.4355,0.3624,0.3293,0.3543,0.3867,0.4113]},{"header":{"parameterUnit":"m.s-1","parameterCategory":1,"la1":31.0,"la2":29.5877,"lo1":-88.7671,"lo2":-86.6584,"dy":0.0162,"dx":0.0185,"nx":115,"ny":88,"refTime":"2024-08-21T06:00:00:Z","depth":0,"parameterNumber":3,"parameterNumberName":"V-component_of_WINDS"},"data":[0.0,0.0,0.0,0.0,0.0,0.0,0.0,0.0,0.0,0.0,0.0,0.0,0.0,0.0,0.0,0.0,0.0,0.0,0.0,0.0,0.0,0.0,0.0,0.0,0.0,0.0,0.0,0.0,0.0,0.0,0.0,0.0,0.0,0.0,0.0,0.0,0.0,0.0,0.0,0.0,0.0,0.0,0.0,0.0,0.0,0.0,0.0,0.0,0.0,0.0,0.0,0.0,0.0,0.0,0.0,0.0,0.0,0.0,0.0,0.0,0.0,0.0,0.0,0.0,0.0,0.0,0.0,0.0,0.0,0.0,0.0,0.0,0.0,0.0,0.0,0.0,0.0,0.0,0.0,0.0,0.0,0.0,0.0,0.0,0.0,0.0,0.0,0.0,0.0,0.0,0.0,0.0,0.0,0.0,0.0,0.0,0.0,0.0,0.0,0.0,0.0,0.0,0.0,0.0,0.0,0.0,0.0,0.0,0.0,0.0,0.0,0.0,0.0,0.0,0.0,0.0,0.0,0.0,0.0,0.0,0.0,0.0,0.0,0.0,0.0,0.0,0.0,0.0,0.0,0.0,0.0,0.0,0.0,0.0,0.0,0.0,0.0,0.0,0.0,0.0,0.0,0.0,0.0,0.0,0.0,0.0,0.0,0.0,0.0,0.0,0.0,0.0,0.0,0.0,0.0,0.0,0.0,0.0,0.0,0.0,0.0,0.0,0.0,0.0,0.0,0.0,0.0,0.0,0.0,0.0,0.0,0.0,0.0,0.0,0.0,0.0,0.0,0.0,0.0,0.0,0.0,0.0,0.0,0.0,0.0,0.0,0.0,0.0,0.0,0.0,0.0,0.0,0.0,0.0,0.0,0.0,0.0,0.0,0.0,0.0,0.0,0.0,0.0,0.0,0.0,0.0,0.0,0.0,0.0,0.0,0.0,0.0,0.0,0.0,0.0,0.0,0.0,0.0,0.0,0.0,0.0,0.0,0.0,0.0,0.0,0.0,0.0,0.0,0.0,0.0,0.0,0.0,0.0,0.0,0.0,0.0,0.0,0.0,0.0,0.0,0.0,0.0,0.0,0.0,0.0,0.0,0.0,0.0,0.0,0.0,0.0,0.0,0.0,0.0,0.0,0.0,0.0,0.0,0.0,0.0,0.0,0.0,0.0,0.0,0.0,0.0,0.0,0.0,0.0,0.0,0.0,0.0,0.0,0.0,0.0,0.0,0.0,0.0,0.0,0.0,0.0,0.0,0.0,0.0,0.0,0.0,0.0,0.0,0.0,0.0,0.0,0.0,0.0,0.0,0.0,0.0,0.0,0.0,0.0,0.0,0.0,0.0,0.0,0.0,0.0,0.0,0.0,0.0,0.0,0.0,0.0,0.0,0.0,0.0,0.0,0.0,0.0,0.0,0.0,0.0,0.0,0.0,0.0,0.0,0.0,0.0,0.0,0.0,0.0,0.0,0.0,0.0,0.0,0.0,0.0,0.0,0.0,0.0,0.0,0.0,0.0,0.0,0.0,0.0,0.0,0.0,0.0,0.0,0.0,0.0,0.0,0.0,0.0,0.0,0.0,0.0,0.0,0.0,0.0,0.0,0.0,0.0,0.0,0.0,0.0,0.0,0.0,0.0,0.0,0.0,0.0,0.0,0.0,0.0,0.0,0.0,0.0,0.0,0.0,0.0,0.0,0.0,0.0,0.0,0.0,0.0,0.0,0.0,0.0,0.0,0.0,0.0,0.0,0.0,0.0,0.0,0.0,0.0,0.0,0.0,0.0,0.0,0.0,0.0,0.0,0.0,0.0,0.0,0.0,0.0,0.0,0.0,0.0,0.0,0.0,0.0,0.0,0.0,0.0,0.0,0.0,0.0,0.0,0.0,0.0,0.0,0.0,0.0,0.0,0.0,0.0,0.0,0.0,0.0,0.0,0.0,0.0,0.0,0.0,0.0,0.0,0.0,0.0,0.0,0.0,0.0,0.0,0.0,0.0,0.0,0.0,0.0,0.0,0.0,0.0,0.0,0.0,0.0,0.0,0.0,0.0,0.0,0.0,0.0,0.0,0.0,0.0,0.0,0.0,0.0,0.0,0.0,0.0,0.0,0.0,0.0,0.0,0.0,0.0,0.0,0.0,0.0,0.0,0.0,0.0,0.0,0.0,0.0,0.0,0.0,0.0,0.0,0.0,0.0,0.0,0.0,0.0,0.0,0.0,0.0,0.0,0.0,0.0,0.0,0.0,0.0,0.0,0.0,0.0,0.0,0.0,0.0,0.0,0.0,0.0,0.0,0.0,0.0,0.0,0.0,0.0,0.0,0.0,0.0,0.0,0.0,0.0,0.0,0.0,0.0,0.0,0.0,0.0,0.0,0.0,0.0,0.0,0.0,0.0,0.0,0.0,0.0,0.0,0.0,0.0,0.0,0.0,0.0,0.0,0.0,0.0,0.0,0.0,0.0,0.0,0.0,0.0,0.0,0.0,0.0,0.0,0.0,0.0,0.0,0.0,0.0,0.0,0.0,0.0,0.0,0.0,0.0,0.0,0.0,0.0,0.0,0.0,0.0,0.0,0.0,0.0,0.0,0.0,0.0,0.0,0.0,0.0,0.0,0.0,0.0,0.0,0.0,0.0,0.0,0.0,0.0,0.0,0.0,0.0,0.0,0.0,0.0,0.0,0.0,0.0,0.0,0.0,0.0,0.0,0.0,0.0,0.0,0.0,0.0,0.0,0.0,0.0,0.0,0.0,0.0,0.0,0.0,0.0,0.0,0.0,0.0,0.0,0.0,0.0,0.0,0.0,0.0,0.0,0.0,0.0,0.0,0.0,0.0,0.0,0.0,0.0,0.0,0.0,0.0,0.0,0.0,0.0,0.0,0.0,0.0,0.0,0.0,0.0,0.0,0.0,0.0,0.0,0.0,0.0,0.0,0.0,0.0,0.0,0.0,0.0,0.0,0.0,0.0,0.0,0.0,0.0,0.0,0.0,0.0,0.0,0.0,0.0,0.0,0.0,0.0,0.0,0.0,0.0,0.0,0.0,0.0,0.0,0.0,0.0,0.0,0.0,0.0,0.0,0.0,0.0,0.0,0.0,0.0,0.0,0.0,0.0,0.0,0.0,0.0,0.0,0.0,0.0,0.0,0.0,0.0,0.0,0.0,0.0,0.0,0.0,0.0,0.0,0.0,0.0,0.0,0.0,0.0,0.0,0.0,0.0,0.0,0.0,0.0,0.0,0.0,0.0,0.0,0.0,0.0,0.0,0.0,0.0,0.0,0.0,0.0,0.0,0.0,0.0,0.0,0.0,0.0,0.0,0.0,0.0,0.0,0.0,0.0,0.0,0.0,0.0,0.0,0.0,0.0,0.0,0.0,0.0,0.0,0.0,0.0,0.0,0.0,0.0,0.0,0.0,0.0,0.0,0.0,0.0,0.0,0.0,0.0,0.0,0.0,0.0,0.0,0.0,0.0,0.0,0.0,0.0,0.0,0.0,0.0,0.0,0.0,0.0,0.0,0.0,0.0,0.0,0.0,0.0,0.0,0.0,0.0,0.0,0.0,0.0,0.0,0.0,0.0,0.0,0.0,0.0,0.0,0.0,0.0,0.0,0.0,0.0,0.0,0.0,0.0,0.0,0.0,0.0,0.0,0.0,0.0,0.0,0.0,0.0,0.0,0.0,0.0,0.0,0.0,0.0,0.0,0.0,0.0,0.0,0.0,0.0,0.0,0.0,0.0,0.0,0.0,0.0,0.0,0.0,0.0,0.0,0.0,0.0,0.0,0.0,0.0,0.0,0.0,0.0,0.0,0.0,0.0,0.0,0.0,0.0,0.0,0.0,0.0,0.0,0.0,0.0,0.0,0.0,0.0,0.0,0.0,0.0,0.0,0.0,0.0,0.0,0.0,0.0,0.0,0.0,0.0,0.0,0.0,0.0,0.0,0.0,0.0,0.0,0.0,0.0,0.0,0.0,0.0,0.0,0.0,0.0,0.0,0.0,0.0,0.0,0.0,0.0,0.0,0.0,0.0,0.0,0.0,0.0,0.0,0.0,0.0,0.0,0.0,0.0,0.0,0.0,0.0,0.0,0.0,0.0,0.0,0.0,0.0,0.0,0.0,0.0,0.0,0.0,0.0,0.0,0.0,0.0,0.0,0.0,0.0,0.0,0.0,0.0,0.0,0.0,0.0,0.0,0.0,0.0,0.0,0.0,0.0,0.0,0.0,0.0,0.0,0.0,0.0,0.0,0.0,0.0,0.0,0.0,0.0,0.0,0.0,0.0,0.0,0.2118,0.0,0.0,0.0,0.0,0.0,0.0,0.0,0.0,0.0,0.0,0.0,0.0,0.0,0.0,0.0,0.0,0.0,0.0,0.0,0.0,0.0,0.0,0.0,0.0,0.0,0.0,0.0,0.0,0.0,0.0,0.0,0.0,0.0,0.0,0.0,0.0,0.0,0.0,0.0,0.0,0.0,0.0,0.0,0.0,0.0,0.0,0.0,0.0,0.0,0.0,0.0,0.0,0.0,0.0,0.0,0.0,0.0,0.0,0.0,0.0,0.0,0.0,0.0,0.0,0.0,0.0,0.0,0.0,0.0,0.0,0.0,0.0,0.0,0.0,0.0,0.0,0.0,0.0,0.0,0.0,0.0,0.0,0.0,0.0,0.0,0.0,0.0,0.0,0.0,0.0,0.0,0.0,0.0,0.0,0.0,0.0,0.0,0.0,0.0,0.0,0.0,0.0,0.0,0.0,0.0,0.0,0.0,0.0,0.0,0.0,0.2128,0.1511,0.1153,0.1059,0.1109,0.0,0.0,0.0,0.0,0.0,0.0,0.0,0.0,0.0,0.0,0.0,0.0,0.0,0.0,0.0,0.0,0.0,0.0,0.0,0.0,0.0,0.0,0.0,0.0,0.0,0.0,0.0,0.0,0.0,0.0,0.0,0.0,0.0,0.0,0.0,0.0,0.0,0.0,0.0,0.0,0.0,0.0,0.0,0.0,0.0,0.0,0.0,0.0,0.0,0.0,0.0,0.0,0.0,0.0,0.0,0.0,0.0,0.0,0.0,0.0,0.0,0.0,0.0,0.0,0.0,0.0,0.0,0.0,0.0,0.0,0.0,0.0,0.0,0.0,0.0,0.0,0.0,0.0,0.0,0.0,0.0,0.0,0.0,0.0,0.0,0.0,0.0,0.0,0.0,0.0,0.0,0.0,0.0,0.0,0.0,0.0,0.0,0.0,0.0,0.0,0.0,0.0,0.0,0.0,0.0,0.0,0.0,0.0,0.0,0.0,0.0,0.0,0.0262,0.0,-0.0049,0.0,0.0,0.0,0.0,0.0,0.0,0.0,0.0,0.0,0.0,0.0,0.0,0.0,0.0,0.0,0.0,0.0,0.0,0.0,0.0,0.0,0.0,0.0,0.0,0.0,0.0,0.0,0.0,0.0,0.0,0.0,0.0,0.0,0.0,0.0,0.0,0.0,0.0,0.0,0.0,0.0,0.0,0.0,0.0,0.0,0.0,0.0,0.0,0.0,0.0,0.0,0.0,0.0,0.0,0.0,0.0,0.0,0.0,0.0,0.0,0.0,0.0,0.0,0.0,0.0,0.0,0.0,0.0,0.0,0.0,0.0,0.0,0.0,0.0,0.0,0.0,0.0,0.0,0.0,0.0,0.0,0.0,0.0,0.0,0.0,0.0,0.0,0.0,0.0,0.0,0.0,0.0,0.0,0.0,0.0,0.0,0.0,0.0,0.0,0.0,0.0,0.0,0.0,0.0,0.0,0.0,0.0,0.0,0.0,0.0,-0.0224,-0.028,-0.0681,0.0,-0.0959,0.0,0.0,0.0,0.0,0.0,0.0,0.0,0.0,0.0,0.0,0.0,0.0,0.0,0.0,0.0,0.0,0.0,0.0,0.0,0.0,0.0,0.0,0.0,0.0,0.0,0.0,0.0,0.0,0.0,0.0,0.0,0.0,0.0,0.0,0.0,0.0,0.0,0.0,0.0,0.0,0.0,0.0,0.0,0.0,0.0,0.0,0.0,0.0,0.0,0.0,0.0,0.0,0.0,0.0,0.0,0.0,0.0,0.0,0.0,0.0,0.0,0.0,0.0,0.0,0.0,0.0,0.0,0.0,0.0,0.0,0.0,0.0,0.0,0.0,0.0,0.0,0.0,0.0,0.0,0.0,0.0,0.0,0.0,0.0,0.0,0.0,0.0,0.0,0.0,0.0,0.0,0.0,0.0,0.0,0.0,0.0,0.0,0.0,0.0,0.0,0.0,0.0,0.0,0.0,0.0,0.0,0.0,0.0,0.0,0.0,-0.2073,-0.2294,-0.2247,-0.2184,0.0,0.0,0.0,0.0,0.0,0.0,0.0,0.0,0.0,0.0,0.0,0.0,0.0,0.0,0.0,0.0,0.0,0.0,0.0,0.0,0.0,0.0,0.0,0.0,0.0,0.0,0.0,0.0,0.0,0.0,0.0,0.0,0.0,0.0,0.0,0.0,0.0,0.0,0.0,0.0,0.0,0.0,0.0,0.0,0.0,0.0,0.0,0.0,0.0,0.0,0.0,0.0,0.0,0.0,0.0,0.0,0.0,0.0,0.0,0.0,0.0,0.0,0.0,0.0,0.0,0.0,0.0,0.0,0.0,0.0,0.0,0.0,0.0,0.0,0.0,0.0,0.0,0.0,0.0,0.0,0.0,0.0,0.0,0.0,0.0,0.0,0.0,0.0,0.0,0.0,0.0,0.0,0.0,0.0,0.0,0.0,0.0,0.0,0.0,0.0,0.0,0.0,0.0,0.0,0.0,0.0,0.0,0.0,0.0,0.0,-0.3404,-0.3712,-0.3959,-0.3849,-0.3714,-0.3527,0.0,0.0,0.0,0.0,0.0,0.0,0.0,0.0,0.0,0.0,0.0,0.0,0.0,0.0,0.0,0.0,0.0,0.0,0.0,0.0,0.0,0.0,0.0,0.0,0.0,0.0,0.0,0.0,0.0,0.0,0.0,0.0,0.0,0.0,0.0,0.0,0.0,0.0,0.0,0.0,0.0,0.0,0.0,0.0,0.0,0.0,0.0,0.0,0.0,0.0,0.0,0.0,0.0,0.0,0.0,0.0,0.0,0.0,0.0,0.0,0.0,0.0,0.0,0.0,0.0,0.0,0.0,0.0,0.0,0.0,0.0,0.0,0.0,0.0,0.0,0.0,0.0,0.0,0.0,0.0,0.0,0.0,0.0,0.0,0.0,0.0,0.0,0.0,0.0,0.0,0.0,0.0,0.0,0.0,0.0,0.0,0.0,0.0,0.0,0.0,0.0,0.0,0.0,0.0,0.0,0.0,0.0,0.0,-0.3362,-0.4187,-0.479,-0.5071,-0.5411,-0.538,0.0,0.0,0.0,0.0,0.0,0.0,0.0,0.0,0.0,0.0,0.0,0.0,0.0,0.0,0.0,0.0,0.0,0.0,0.0,0.0,0.0,0.0,0.0,0.0,0.0,0.0,0.0,0.0,0.0,0.0,0.0,0.0,0.0,0.0,0.0,0.0,0.0,0.0,0.0,0.0,0.0,0.0,0.0,0.0,0.0,0.0,0.0,0.0,0.0,0.0,0.0,0.0,0.0,0.0,0.0,0.0,0.0,0.0,0.0,0.0,0.0,0.0,0.0,0.0,0.0,0.0,0.0,0.0,0.0,0.0,0.0,0.0,0.0,0.0,0.0,0.0,0.0,0.0,0.0,0.0,0.0,0.0,0.0,0.0,0.0,0.0,0.0,0.0,0.0,0.0,0.0,0.0,0.0,0.0,0.0,0.0,0.0,0.0,0.0,0.0,0.0,0.0,0.0,0.0,0.0,0.0,0.0,0.0,0.0,-0.4894,-0.6119,-0.6706,-0.6642,-0.6983,-0.6894,0.0,0.0,0.0,0.0,0.0,0.0,0.0,0.0,0.0,0.0,0.0,0.0,0.0,0.0,0.0,0.0,0.0,0.0,0.0,0.0,0.0,0.0,0.0,0.0,0.0,0.0,0.0,0.0,0.0,0.0,0.0,0.0,0.0,0.0,0.0,0.0,0.0,0.0,0.0,0.0,0.0,0.0,0.0,0.0,0.0,0.0,0.0,0.0,0.0,0.0,0.0,0.0,0.0,0.0,0.0,0.0,0.0,0.0,0.0,0.0,0.0,0.0,0.0,0.0,0.0,0.0,0.0,0.0,0.0,0.0,0.0,0.0,0.0,0.0,0.0,0.0,0.0,0.0,0.0,0.0,0.0,0.0,0.0,0.0,0.0,0.0,0.0,0.0,0.0,0.0,0.0,0.0,0.0,0.0,0.0,0.0,0.0,0.0,0.0,0.0,0.0,0.0,0.0,0.0,0.0,0.0,0.0,0.0,0.0,-0.6619,0.0,-0.8295,0.0,-0.8558,-0.8429,0.0,0.0,0.0,0.0,0.0,0.0,0.0,0.0,0.0,0.0,0.0,0.0,0.0,0.0,0.0,0.0,0.0,0.0,0.0,0.0,0.0,0.0,0.0,0.0,0.0,0.0,0.0,0.0,0.0,0.0,0.0,0.0,0.0,0.0,0.0,0.0,0.0,0.0,0.0,0.0,0.0,0.0,0.0,0.0,0.0,0.0,0.0,0.0,0.0,0.0,0.0,0.0,0.0,0.0,0.0,0.0,0.0,0.0,0.0,0.0,0.0,0.0,0.0,0.0,0.0,0.0,0.0,0.0,0.0,0.0,0.0,0.0,0.0,0.0,0.0,0.0,0.0,0.0,0.0,0.0,0.0,0.0,0.0,0.0,0.0,0.0,0.0,0.0,0.0,0.0,0.0,0.0,0.0,0.0,0.0,0.0,0.0,0.0,0.0,0.0,0.0,0.0,0.0,0.0,0.0,0.0,0.0,0.0,-0.7159,-0.8436,-0.9044,-0.9534,-0.98,-1.016,-1.0017,0.0,0.0,0.0,0.0,0.0,0.0,0.0,0.0,0.0,0.0,0.0,0.0,0.0,0.0,0.0,0.0,0.0,0.0,0.0,0.0,0.0,0.0,0.0,0.0,0.0,0.0,0.0,0.0,0.0,0.0,0.0,0.0,0.0,0.0,0.0,0.0,0.0,0.0,0.0,0.0,0.0,0.0,0.0,0.0,0.0,0.0,0.0,0.0,0.0,0.0,0.0,0.0,0.0,0.0,0.0,0.0,0.0,0.0,0.0,0.0,0.0,0.0,0.0,0.0,0.0,0.0,0.0,0.0,0.0,0.0,0.0,0.0,0.0,0.0,0.0,0.0,0.0,0.0,0.0,0.0,0.0,0.0,0.0,0.0,0.0,0.0,0.0,0.0,0.0,0.0,0.0,0.0,0.0,0.0,0.0,0.0,0.0,0.0,0.0,0.0,0.0,0.0,0.0,0.0,0.0,0.0,0.0,0.0,0.0,-0.9804,-1.0735,-1.1392,-1.1715,-1.1929,-1.1696,0.0,0.0,0.0,0.0,0.0,0.0,0.0,0.0,0.0,0.0,0.0,0.0,0.0,0.0,0.0,0.0,0.0,0.0,0.0,0.0,0.0,0.0,0.0,0.0,0.0,0.0,0.0,0.0,0.0,0.0,0.0,0.0,0.0,0.0,0.0,0.0,0.0,0.0,0.0,0.0,0.0,0.0,0.0,0.0,0.0,0.0,0.0,0.0,0.0,0.0,0.0,0.0,0.0,0.0,0.0,0.0,0.0,0.0,0.0,0.0,0.0,0.0,0.0,0.0,0.0,0.0,0.0,0.0,0.0,0.0,0.0,0.0,0.0,0.0,0.0,0.0,0.0,0.0,0.0,0.0,0.0,0.0,0.0,0.0,0.0,0.0,0.0,0.0,0.0,0.0,0.0,0.0,0.0,0.0,0.0,0.0,0.0,0.0,0.0,0.0,0.0,0.0,0.0,0.0,0.0,0.0,0.0,0.0,0.0,-1.1277,-1.2151,-1.2883,-1.3547,-1.362,-1.3286,-1.2494,0.0,0.0,0.0,0.0,0.0,0.0,0.0,0.0,0.0,0.0,0.0,0.0,0.0,0.0,0.0,0.0,0.0,0.0,0.0,0.0,0.0,0.0,0.0,0.0,0.0,0.0,0.0,0.0,0.0,0.0,0.0,0.0,0.0,0.0,0.0,0.0,0.0,0.0,0.0,0.0,0.0,0.0,0.0,0.0,0.0,0.0,0.0,0.0,0.0,0.0,0.0,0.0,0.0,0.0,0.0,0.0,0.0,0.0,0.0,0.0,0.0,0.0,0.0,0.0,0.0,0.0,0.0,0.0,0.0,0.0,0.0,0.0,0.0,0.0,0.0,0.0,0.0,0.0,0.0,0.0,0.0,0.0,0.0,0.0,0.0,0.0,0.0,0.0,0.0,0.0,0.0,0.0,0.0,0.0,0.0,0.0,0.0,0.0,0.0,0.0,0.0,0.0,0.0,0.0,0.0,0.0,0.0,0.0,-1.2826,-1.3324,-1.4111,-1.5151,-1.5226,-1.4845,0.0,0.0,0.0,0.0,0.0,0.0,0.0,0.0,0.0,0.0,0.0,0.0,0.0,0.0,0.0,0.0,0.0,0.0,0.0,0.0,0.0,0.0,0.0,0.0,0.0,0.0,0.0,0.0,0.0,0.0,0.0,0.0,0.0,0.0,0.0,0.0,0.0,0.0,0.0,0.0,0.0,0.0,0.0,0.0,0.0,0.0,0.0,0.0,0.0,0.0,0.0,0.0,0.0,0.0,0.0,0.0,0.0,0.0,0.0,0.0,0.0,0.0,0.0,0.0,0.0,0.0,0.0,0.0,0.0,0.0,0.0,0.0,0.0,0.0,0.0,0.0,0.0,0.0,0.0,0.0,0.0,0.0,0.0,0.0,0.0,0.0,0.0,0.0,0.0,0.0,0.0,0.0,0.0,0.0,0.0,0.0,0.0,0.0,0.0,0.0,0.0,0.0,0.0,0.0,0.0,0.0,0.0,0.0,0.0,-1.3596,-1.5039,-1.5968,-1.6371,-1.6886,-1.6674,0.0,0.0,0.0,0.0,0.0,0.0,0.0,0.0,0.0,0.0,0.0,0.0,0.0,0.0,0.0,0.0,0.0,0.0,0.0,0.0,0.0,0.0,0.0,0.0,0.0,0.0,0.0,0.0,0.0,0.0,0.0,0.0,0.0,0.0,0.0,0.0,0.0,0.0,0.0,0.0,0.0,0.0,0.0,0.0,0.0,0.0,0.0,0.0,0.0,0.0,0.0,0.0,0.0,0.0,0.0,0.0,0.0,0.0,0.0,0.0,0.0,0.0,0.0,0.0,0.0,0.0,0.0,0.0,0.0,0.0,0.0,0.0,0.0,0.0,0.0,0.0,0.0,0.0,0.0,0.0,0.0,0.0,0.0,0.0,0.0,0.0,0.0,0.0,0.0,0.0,0.0,0.0,0.0,0.0,0.0,0.0,0.0,0.0,0.0,0.0,0.0,0.0,0.0,0.0,0.0,0.0,0.0,0.0,-1.108,-1.3927,-1.5733,-1.7042,-1.7878,-1.8177,-1.791,0.0,0.0,0.0,0.0,0.0,0.0,0.0,0.0,0.0,0.0,0.0,0.0,0.0,0.0,0.0,0.0,0.0,0.0,0.0,0.0,0.0,0.0,0.0,0.0,0.0,0.0,0.0,0.0,0.0,0.0,0.0,0.0,0.0,0.0,0.0,0.0,0.0,0.0,0.0,0.0,0.0,0.0,0.0,0.0,0.0,0.0,0.0,0.0,0.0,0.0,0.0,0.0,0.0,0.0,0.0,0.0,0.0,0.0,0.0,0.0,0.0,0.0,0.0,0.0,0.0,0.0,0.0,0.0,0.0,0.0,0.0,0.0,0.0,0.0,0.0,0.0,0.0,0.0,0.0,0.0,0.0,0.0,0.0,0.0,0.0,0.0,0.0,0.0,0.0,0.0,0.0,0.0,0.0,0.0,0.0,0.0,0.0,0.0,0.0,0.0,0.0,0.0,0.0,0.0,0.0,0.0,0.0,0.0,-1.0396,-1.3643,-1.5873,-1.7827,-1.9507,-1.9274,-1.8817,0.0,0.0,0.0,0.0,0.0,0.0,0.0,0.0,0.0,0.0,0.0,0.0,0.0,0.0,0.0,0.0,0.0,0.0,0.0,0.0,0.0,0.0,0.0,0.0,0.0,0.0,0.0,0.0,0.0,0.0,0.0,0.0,0.0,0.0,0.0,0.0,0.0,0.0,0.0,0.0,0.0,0.0,0.0,0.0,0.0,0.0,0.0,0.0,0.0,0.0,0.0,0.0,0.0,0.0,0.0,0.0,0.0,0.0,0.0,0.0,0.0,0.0,0.0,0.0,0.0,0.0,0.0,0.0,0.0,0.0,0.0,0.0,0.0,0.0,0.0,0.0,0.0,0.0,0.0,0.0,0.0,0.0,0.0,0.0,0.0,0.0,0.0,0.0,0.0,0.0,0.0,0.0,0.0,0.0,0.0,0.0,0.0,0.0,0.0,0.0,0.0,0.0,0.0,0.0,0.0,0.0,0.0,0.0,-1.1099,-1.1777,-1.6482,-1.9592,-2.0862,-2.0594,-2.0019,0.0,0.0,0.0,0.0,0.0,0.0,0.0,0.0,0.0,0.0,0.0,0.0,0.0,0.0,0.0,0.0,0.0,0.0,0.0,0.0,0.0,0.0,0.0,0.0,0.0,0.0,0.0,0.0,0.0,0.0,0.0,0.0,0.0,0.0,0.0,0.0,0.0,0.0,0.0,0.0,0.0,0.0,0.0,0.0,0.0,0.0,0.0,0.0,-1.2427,0.0,0.0,0.0,0.0,0.0,0.0,0.0,0.0,0.0,0.0,0.0,0.0,0.0,0.0,0.0,0.0,0.0,0.0,0.0,0.0,0.0,0.0,0.0,0.0,0.0,0.0,0.0,0.0,0.0,0.0,0.0,0.0,0.0,0.0,0.0,0.0,0.0,0.0,0.0,0.0,0.0,0.0,0.0,0.0,0.0,0.0,0.0,0.0,0.0,0.0,0.0,0.0,0.0,0.0,0.0,0.0,0.0,0.0,0.0,-1.0528,-1.1193,-1.6694,-2.043,-2.1928,-2.2235,-2.1917,0.0,0.0,0.0,0.0,0.0,0.0,0.0,0.0,0.0,0.0,0.0,0.0,0.0,0.0,0.0,0.0,0.0,0.0,0.0,0.0,0.0,0.0,0.0,0.0,0.0,0.0,0.0,0.0,0.0,0.0,0.0,0.0,0.0,0.0,0.0,0.0,0.0,0.0,0.0,0.0,0.0,0.0,0.0,0.0,0.0,0.0,0.0,0.0,0.0,0.0,0.0,0.0,0.0,0.0,0.0,0.0,0.0,0.0,0.0,0.0,0.0,0.0,0.0,0.0,0.0,0.0,0.0,0.0,0.0,0.0,0.0,0.0,0.0,0.0,0.0,0.0,0.0,0.0,0.0,0.0,0.0,0.0,0.0,0.0,0.0,0.0,0.0,0.0,0.0,0.0,0.0,0.0,0.0,0.0,0.0,0.0,0.0,0.0,0.0,0.0,0.0,0.0,0.0,0.0,0.0,0.0,0.0,-0.6771,-0.9827,-1.1158,-1.6983,-2.1104,-2.3111,-2.3766,-2.3835,-2.3308,0.0,0.0,0.0,0.0,0.0,0.0,0.0,0.0,0.0,0.0,0.0,0.0,0.0,0.0,0.0,0.0,0.0,0.0,0.0,0.0,0.0,0.0,0.0,0.0,0.0,0.0,0.0,0.0,0.0,0.0,0.0,0.0,0.0,0.0,0.0,0.0,0.0,0.0,-0.0034,-0.1366,0.0,0.0,0.0,0.0,0.0,0.0,0.0,0.0,-1.4461,0.0,0.0,0.0,0.0,0.0,0.0,0.0,0.0,0.0,0.0,0.0,0.0,0.0,0.0,0.0,0.0,0.0,0.0,0.0,0.0,0.0,0.0,0.0,0.0,0.0,0.0,0.0,0.0,0.0,0.0,0.0,0.0,0.0,0.0,0.0,0.0,0.0,0.0,0.0,0.0,0.0,0.0,0.0,0.0,0.0,0.0,0.0,0.0,0.0,0.0,0.0,0.0,0.0,0.0,0.0,0.0,-0.1563,-0.7388,-1.0625,-1.1181,-1.794,-2.2625,-2.4764,-2.4319,-2.4615,-2.5771,0.0,0.0,0.0,0.0,0.0,0.0,0.0,0.0,0.0,0.0,0.0,0.0,0.0,0.0,0.0,0.0,0.0,0.0,0.0,0.0,0.0,0.0,0.0,0.0,0.0,0.0,0.0,0.0,0.0,0.0,0.0,0.0,0.0,0.0,0.0,0.0,0.0,0.0,0.0,-0.2431,-0.4851,0.0,0.0,0.0,0.0,0.0,0.0,0.0,0.0,-1.4806,0.0,0.0,0.0,0.0,0.0,0.0,0.0,0.0,0.0,0.0,0.0,0.0,0.0,0.0,0.0,0.0,0.0,0.0,0.0,0.0,0.0,0.0,0.0,0.0,0.0,0.0,0.0,0.0,0.0,0.0,0.0,0.0,0.0,0.0,0.0,0.0,0.0,0.0,0.0,0.0,0.0,0.0,0.0,0.0,0.0,0.0,0.0,0.0,0.0,0.0,0.0,0.0,0.0,0.0,0.0,-0.1226,-0.6255,-0.9909,-1.1969,-1.944,-2.4261,-2.5952,-2.603,-2.64,0.0,0.0,0.0,0.0,0.0,0.0,0.0,0.0,0.0,0.0,0.0,0.0,0.0,0.0,0.0,0.0,0.0,0.0,0.0,0.0,0.0,0.0,0.0,0.0,0.0,0.0,0.0,0.0,0.0,0.0,0.0,0.0,0.0,0.0,0.0,0.0,0.0,0.0,0.0,0.0,-0.3929,-0.6163,-0.8573,0.0,0.0,0.0,0.0,0.0,0.0,-1.5458,-1.5706,0.0,0.0,0.0,0.0,0.0,0.0,0.0,0.0,0.0,0.0,0.0,0.0,0.0,0.0,0.0,0.0,0.0,0.0,0.0,0.0,0.0,0.0,0.0,0.0,0.0,0.0,0.0,0.0,0.0,0.0,0.0,0.0,0.0,0.0,0.0,0.0,0.0,0.0,0.0,0.0,0.0,0.0,0.0,0.0,0.0,0.0,0.0,0.0,0.0,0.0,0.0,0.0,0.0,0.0,0.0,-0.0055,-0.5064,-0.9366,-1.3005,-2.077,-2.5585,-2.6909,-2.7392,-2.7689,0.0,0.0,0.0,0.0,0.0,0.0,0.0,0.0,0.0,0.0,0.0,0.0,0.0,0.0,0.0,0.0,0.0,0.0,0.0,0.0,0.0,0.0,0.0,0.0,0.0,0.0,0.0,0.0,0.0,0.0,0.0,0.0,0.0,0.0,0.0,0.0,0.0,0.0,0.0,0.0,0.0,-0.7486,-0.9891,-1.0815,0.0,0.0,0.0,0.0,-1.6033,-1.6472,0.0,0.0,0.0,0.0,0.0,0.0,0.0,0.0,0.0,0.0,0.0,0.0,0.0,0.0,0.0,0.0,0.0,0.0,0.0,0.0,0.0,0.0,0.0,0.0,0.0,0.0,0.0,0.0,0.0,0.0,0.0,0.0,0.0,0.0,0.0,0.0,0.0,0.0,0.0,0.0,0.0,0.0,0.0,0.0,0.0,0.0,0.0,0.0,0.0,0.0,0.0,0.0,0.0,0.0,0.0,0.0,0.2037,-0.5012,-1.0481,-1.4295,-2.1316,-2.5954,-2.7768,-2.7132,-2.7091,0.0,0.0,0.0,0.0,0.0,0.0,0.0,0.0,0.0,0.0,0.0,0.0,0.0,0.0,0.0,0.0,0.0,0.0,0.0,0.0,0.0,0.0,0.0,0.0,0.0,0.0,0.0,0.0,0.0,0.0,0.0,0.0,0.0,0.0,0.0,0.0,0.0,0.0,0.0,0.0,0.0,-0.8719,-1.0653,-1.1899,-1.3071,0.0,0.0,-1.5515,-1.6782,-1.7187,0.0,0.0,0.0,0.0,0.0,0.0,0.0,0.0,0.0,0.0,0.0,0.0,0.0,0.0,0.0,0.0,0.0,0.0,0.0,0.0,0.0,0.0,0.0,0.0,0.0,0.0,0.0,0.0,0.0,0.0,0.0,0.0,0.0,0.0,0.0,0.0,0.0,0.0,0.0,0.0,0.0,0.0,0.0,0.0,0.0,0.0,0.0,0.0,0.0,0.0,0.0,0.0,0.0,0.0,0.0,0.4804,0.1024,-0.4897,-1.0507,-1.5663,-2.2441,-2.6635,-2.7957,-2.7565,-2.7456,0.0,0.0,0.0,0.0,0.0,0.0,0.0,0.0,0.0,0.0,0.0,0.0,0.0,0.0,0.0,0.0,0.0,0.0,0.0,0.0,0.0,0.0,0.0,0.0,0.0,0.0,0.0,0.0,0.0,0.0,0.0,0.0,0.0,0.0,0.0,0.0,0.0,0.0,0.0,0.0,0.0,0.0,-1.1984,-1.2888,0.0,0.0,0.0,-1.6596,-1.7532,0.0,0.0,0.0,0.0,0.0,0.0,0.0,0.0,0.0,0.0,0.0,0.0,0.0,0.0,0.0,0.0,0.0,0.0,0.0,0.0,0.0,0.0,0.0,0.0,0.0,0.0,0.0,0.0,0.0,0.0,0.0,0.0,0.0,0.0,0.0,0.0,0.0,0.0,0.0,0.0,0.0,0.0,0.0,0.0,0.0,0.0,0.0,0.0,0.0,0.0,0.0,0.0,0.0,0.0,0.0,0.0,0.0,0.019,-0.504,-1.0613,-1.6659,-2.327,-2.7141,-2.7961,-2.7884,0.0,0.0,0.0,0.0,0.0,0.0,0.0,0.0,0.0,0.0,0.0,0.0,0.0,0.0,0.0,0.0,0.0,0.0,0.0,0.0,0.0,0.0,0.0,0.0,0.0,0.0,0.0,-1.0692,0.0,0.0,0.0,0.0,0.0,0.0,0.0,0.0,0.0,0.0,0.0,0.0,0.0,0.0,-1.1329,-1.3245,-1.3911,-1.4867,0.0,0.0,-1.7494,-1.8197,-1.8493,-1.8634,0.0,0.0,0.0,0.0,0.0,0.0,0.0,0.0,0.0,0.0,0.0,0.0,0.0,0.0,0.0,0.0,0.0,0.0,0.0,0.0,0.0,0.0,0.0,0.0,0.0,0.0,0.0,0.0,0.0,0.0,0.0,0.0,0.0,0.0,0.0,0.0,0.0,0.0,0.0,0.0,0.0,0.0,0.0,0.0,0.0,0.0,0.0,0.0,0.0,0.0,0.0,0.0,0.0,0.0,0.6157,0.0831,-0.5513,-1.1366,-1.6739,-2.3338,-2.7171,-2.7959,-2.7806,-2.7611,0.0,0.0,0.0,0.0,0.0,0.0,0.0,0.0,0.0,0.0,0.0,0.0,0.0,0.0,0.0,0.0,0.0,0.0,0.0,0.0,0.0,0.0,0.0,0.0,0.0,0.0,0.0,0.0,0.0,0.0,0.0,0.0,0.0,0.0,0.0,0.0,0.0,0.0,0.0,0.0,0.0,-1.2798,-1.3981,-1.5123,-1.6287,0.0,-1.7679,-1.812,-1.8704,-1.9293,-1.9604,-1.9084,0.0,0.0,0.0,0.0,0.0,0.0,0.0,0.0,0.0,0.0,0.0,0.0,0.0,0.0,0.0,0.0,0.0,0.0,0.0,0.0,0.0,0.0,0.0,0.0,0.0,0.0,0.0,0.0,0.0,0.0,0.0,0.0,0.0,0.0,0.0,0.0,0.0,0.0,0.0,0.0,0.0,0.0,0.0,0.0,0.0,0.0,0.0,0.0,0.0,0.0,0.0,0.0,0.0,0.5012,0.0646,-0.5945,-1.1634,-1.6457,-2.3689,-2.7917,-2.8656,-2.9315,-2.933,0.0,0.0,0.0,0.0,0.0,0.0,0.0,0.0,0.0,0.0,0.0,0.0,0.0,0.0,0.0,0.0,0.0,0.0,0.0,0.0,0.0,0.0,0.0,0.0,0.0,0.0,0.0,0.0,-1.097,-1.1033,-1.1165,0.0,0.0,0.0,0.0,0.0,0.0,0.0,0.0,0.0,0.0,-1.3858,-1.5217,-1.619,0.0,0.0,-1.8707,-1.9036,-1.9134,-1.9468,-1.9574,-1.9162,-1.9186,0.0,0.0,0.0,0.0,0.0,0.0,0.0,0.0,0.0,0.0,0.0,0.0,0.0,0.0,0.0,0.0,0.0,0.0,0.0,0.0,0.0,0.0,0.0,0.0,0.0,0.0,0.0,0.0,0.0,0.0,0.0,0.0,0.0,0.0,0.0,0.0,0.0,0.0,0.0,0.0,0.0,0.0,0.0,0.0,0.0,0.0,0.0,0.0,0.0,0.0,0.0,0.0,0.2484,-0.1665,-0.7413,-1.2676,-1.7543,-2.4288,-2.8321,-2.9305,-3.0285,-3.0302,0.0,0.0,0.0,0.0,0.0,0.0,0.0,0.0,0.0,0.0,0.0,0.0,0.0,0.0,0.0,0.0,0.0,0.0,0.0,0.0,0.0,0.0,0.0,0.0,0.0,0.0,0.0,0.0,-1.1231,-1.1476,-1.1934,0.0,0.0,0.0,0.0,0.0,0.0,0.0,0.0,0.0,0.0,-1.5161,-1.6206,-1.7169,-1.817,-1.8972,-1.9371,-1.957,-1.9448,-1.9393,-1.9384,-1.9413,0.0,0.0,0.0,0.0,0.0,0.0,0.0,0.0,0.0,0.0,0.0,0.0,0.0,0.0,0.0,0.0,0.0,0.0,0.0,0.0,0.0,0.0,0.0,0.0,0.0,0.0,0.0,-0.2748,0.0,0.0,0.1411,0.0,0.0,0.0,0.0,0.0,0.0,0.0,0.0,0.0,0.0,0.0,0.0,0.0,0.0,0.0,0.0,0.0,0.0,0.0,0.0,0.0,0.0,-0.1545,-0.665,-1.0154,-1.4832,-2.0614,-2.5146,-2.8241,-2.9825,-3.0321,-3.0062,-2.9075,0.0,0.0,0.0,0.0,0.0,0.0,0.0,0.0,0.0,0.0,0.0,0.0,0.0,0.0,0.0,0.0,0.0,0.0,0.0,0.0,0.0,0.0,0.0,0.0,0.0,0.0,-1.1607,-1.1745,-1.2073,0.0,0.0,0.0,0.0,0.0,0.0,0.0,0.0,0.0,0.0,-1.5731,-1.6778,-1.6808,-1.8179,-1.9263,-1.9546,-1.9729,-1.9749,-1.9548,-1.9384,-1.9341,0.0,0.0,0.0,0.0,0.0,0.0,0.0,0.0,0.0,0.0,0.0,0.0,0.0,0.0,0.0,0.0,0.0,0.0,0.0,0.0,0.0,0.0,0.0,0.0,0.0,0.0,0.0,-0.2579,-0.1221,0.0,0.0,0.0,0.0,0.0,0.0,0.0,0.0,0.0,0.0,0.0,-0.4692,-0.612,0.0,0.0,0.0,0.0,0.0,0.0,0.0,0.0,0.0,0.0,0.0,0.0,-0.4859,-0.7875,-1.2072,-1.6526,-2.117,-2.5871,-2.9139,-3.0835,-3.1777,-3.1374,-2.9509,0.0,0.0,0.0,0.0,0.0,0.0,0.0,0.0,0.0,0.0,0.0,0.0,0.0,0.0,0.0,0.0,0.0,0.0,0.0,0.0,0.0,0.0,0.0,0.0,0.0,-1.2465,0.0,0.0,0.0,0.0,0.0,0.0,0.0,0.0,0.0,0.0,0.0,-1.462,-1.5025,-1.6234,-1.7236,-1.7984,-1.888,-1.9646,0.0,0.0,0.0,0.0,0.0,0.0,0.0,0.0,0.0,0.0,0.0,0.0,0.0,0.0,-2.0963,-2.1221,-2.1624,-2.218,-2.2977,0.0,0.0,0.0,0.0,0.0,0.0,0.0,0.0,0.0,0.0,0.0,0.0,0.0,0.0,-0.1827,0.0,0.0529,0.0,0.0,0.0,0.0,0.0,0.0,0.0,0.0,-0.2213,-0.3454,-0.4863,-0.6022,-0.7422,0.0,-1.0236,-1.111,0.0,0.0,0.0,0.0,0.0,0.0,0.0,0.0,-0.8201,-1.0471,-1.4298,-1.8182,-2.2052,-2.6295,-2.9326,-3.0995,-3.1975,-3.1742,-3.0125,-2.9195,-2.8047,0.0,0.0,0.0,0.0,0.0,0.0,0.0,0.0,0.0,0.0,0.0,0.0,0.0,0.0,0.0,0.0,0.0,0.0,0.0,0.0,0.0,0.0,0.0,-1.3499,0.0,0.0,0.0,0.0,0.0,0.0,0.0,0.0,0.0,-1.4372,-1.4968,-1.5643,-1.5955,-1.7083,-1.8087,-1.8734,0.0,0.0,0.0,0.0,0.0,0.0,0.0,-1.9796,-1.9524,-1.9878,-2.0324,-2.0888,-2.1408,-2.1858,-2.2275,0.0,0.0,-2.207,-2.2559,-2.3214,-2.3978,-2.3794,-2.3555,-2.3683,-2.3438,-2.3179,0.0,0.0,0.0,0.0,0.0,0.0,0.0,0.0,-0.1671,-0.0765,0.0,0.104,0.0,0.0,0.0,0.0,0.0,-0.0134,0.0,0.0,-0.2495,-0.3652,-0.4928,-0.6056,-0.7445,-0.9058,-1.0022,-1.0917,-1.1725,-1.1826,0.0,0.0,0.0,0.0,0.0,0.0,-1.1587,-1.4377,-1.6823,-1.983,-2.3373,-2.6387,-2.8749,-3.041,-3.1093,-3.126,-3.0838,-3.0127,-2.9248,-2.8117,-2.7335,0.0,0.0,0.0,0.0,0.0,0.0,0.0,0.0,0.0,0.0,0.0,0.0,0.0,0.0,0.0,0.0,0.0,0.0,0.0,0.0,-1.3855,0.0,0.0,0.0,0.0,0.0,0.0,0.0,0.0,0.0,0.0,-1.5936,-1.6278,-1.6713,-1.7106,0.0,0.0,0.0,0.0,-1.9744,-1.9727,-1.9887,-1.9867,-1.9321,-1.9324,-1.9488,-1.9816,0.0,0.0,-2.1568,-2.2317,-2.282,-2.3224,-2.3095,-2.2915,-2.2673,-2.2958,-2.3443,-2.399,-2.4345,-2.457,-2.4415,-2.4296,-2.4193,0.0066,0.0,0.0,0.0,0.0,-0.2438,-0.1703,-0.0596,-0.0535,0.0231,0.1541,0.1946,0.0,0.0,0.0,0.0,0.0,0.0,-0.0933,-0.1713,-0.2446,-0.3625,-0.5217,-0.6181,-0.7141,-0.821,-0.9608,-1.0438,-1.0743,-1.1485,-1.1619,-1.1254,0.0,0.0,0.0,0.0,-1.4876,-1.6431,-1.8639,-2.1356,-2.4647,-2.6213,-2.8352,-3.1167,-3.155,-3.1618,-3.1491,-3.1212,-3.0675,-2.9831,-2.8847,0.0,0.0,0.0,0.0,0.0,0.0,0.0,0.0,0.0,0.0,0.0,0.0,0.0,0.0,0.0,0.0,0.0,0.0,0.0,-1.4806,-1.5434,-1.6005,0.0,0.0,0.0,0.0,0.0,0.0,0.0,0.0,0.0,-1.785,-1.7504,-1.7475,0.0,0.0,-1.9669,-1.9744,-1.9991,-2.007,-1.9808,-1.9942,0.0,-1.9752,-1.9679,-1.9743,-1.9851,-2.0498,-2.1339,-2.2111,-2.2628,-2.2927,-2.3075,-2.315,-2.3176,-2.3228,-2.3672,-2.4237,-2.4835,-2.5147,-2.5375,-2.5431,-2.5061,-2.467,0.1368,0.0334,0.0,-0.0598,-0.1333,-0.1151,-0.0426,0.0554,0.0559,0.1215,0.2322,0.2492,0.2575,0.263,0.2503,0.0,0.0,0.0,-0.0779,-0.1737,-0.2386,-0.352,-0.5,-0.5754,-0.6597,-0.7604,-0.899,-0.9831,-1.0178,-1.1172,-1.1694,-1.1739,0.0,0.0,-1.3195,-1.5149,-1.6688,-1.7819,-1.9537,-2.177,-2.448,-2.6417,-2.8721,-3.1329,-3.1416,-3.1389,-3.1443,-3.1131,-3.0818,-3.0556,-2.9585,-2.8401,0.0,0.0,0.0,0.0,0.0,0.0,0.0,0.0,0.0,0.0,0.0,-1.4296,-1.4043,0.0,0.0,0.0,-1.4499,-1.5248,-1.6129,-1.6742,0.0,0.0,0.0,0.0,0.0,0.0,0.0,-1.8752,-1.8753,-1.8892,-1.9221,-1.8786,-1.8667,-1.9188,-1.9804,-2.0156,-2.0184,0.0,-1.9971,-1.9583,-1.9656,-1.9725,-1.9633,-1.9687,-1.9845,-2.0136,-2.0809,-2.1578,-2.2252,-2.2628,-2.2927,-2.3075,-2.3224,-2.335,-2.3481,-2.4036,-2.4706,-2.5349,-2.5749,-2.5968,-2.605,-2.5647,-2.5308,0.2325,0.1809,0.0682,0.0,-0.0259,0.0129,0.0638,0.1247,0.1598,0.2096,0.2644,0.2737,0.3053,0.3357,0.2611,0.0,0.1011,0.0389,-0.0524,-0.1611,-0.2331,-0.3357,-0.4574,-0.5043,-0.5905,-0.7154,-0.819,-0.9105,-0.9922,-1.0936,-1.1682,-1.2134,-1.2925,-1.3754,-1.4676,-1.6073,-1.7435,-1.8707,-1.9748,-2.1358,-2.358,-2.6889,-2.9437,-3.104,-3.0814,-3.0664,-3.0802,-3.0274,-3.019,-3.054,-2.9761,-2.8742,-2.7551,0.0,0.0,0.0,0.0,0.0,0.0,0.0,0.0,0.0,0.0,0.0,0.0,0.0,0.0,0.0,-1.6129,0.0,-1.7019,-1.7929,0.0,0.0,0.0,-1.9627,-1.9409,-1.9897,-2.001,-1.946,0.0,0.0,-1.996,-1.9885,-1.9998,-2.0283,-2.0567,-2.0606,-2.043,-1.9954,-1.9481,-1.9259,-1.9165,-1.917,-1.9427,-1.9585,-1.9901,-2.0498,-2.0964,-2.1578,-2.2252,-2.2628,-2.2852,-2.3073,-2.3231,-2.3334,-2.357,-2.4066,-2.4648,-2.5296,-2.5975,-2.6396,-2.6245,-2.6163,-2.603,0.2503,0.2093,0.2005,0.164,0.1167,0.1512,0.1962,0.2308,0.2125,0.2491,0.3183,0.3013,0.3101,0.3302,0.2437,0.1836,0.1413,0.0455,-0.044,-0.1327,-0.2115,-0.3172,-0.436,-0.4927,-0.5615,-0.6447,-0.7432,-0.8319,-0.9121,-1.0348,-1.148,-1.2493,-1.3704,-1.4568,-1.509,-1.6729,-1.8071,-1.908,-1.9788,-2.1522,-2.4278,-2.6764,-2.8571,-2.967,-2.9816,-3.0003,-3.0267,-3.0059,-3.014,-3.0629,-3.0204,-2.9431,-2.8281,-2.7229,0.0,0.0,0.0,0.0,0.0,0.0,0.0,0.0,0.0,-1.7255,-1.7036,0.0,-1.6505,0.0,-1.7736,-1.829,-1.8676,-1.9354,0.0,0.0,-2.041,-2.0528,-2.0276,-2.0377,-2.0411,-2.0098,-2.0042,-2.0127,-2.0426,-2.0391,-2.0495,-2.0638,-2.0472,-2.035,-2.0404,-2.0069,-1.9752,-1.9558,-1.9473,-1.9557,-1.9706,-1.9942,-2.0255,-2.0566,-2.1195,-2.1807,-2.2327,-2.2703,-2.2892,-2.2637,-2.2756,-2.3108,-2.3502,-2.3663,-2.3703,-2.3859,-2.4973,-2.6107,-2.6383,-2.6416,-2.627,0.2761,0.2502,0.2694,0.2545,0.2171,0.2173,0.2279,0.2555,0.2288,0.2732,0.367,0.3636,0.3503,0.3282,0.2672,0.2174,0.1627,0.0787,-0.0102,-0.0899,-0.1784,-0.2765,-0.3753,-0.4441,-0.5058,-0.5755,-0.6904,-0.7782,-0.8497,-1.0076,-1.1403,-1.2453,-1.3935,-1.5002,-1.5654,-1.7059,-1.8224,-1.9118,-2.0671,-2.2477,-2.4502,-2.6628,-2.818,-2.916,-2.9161,-2.9286,-2.954,-2.9131,-2.9147,-2.9678,-2.9348,-2.88,-2.8027,-2.7252,-2.5972,0.0,0.0,0.0,0.0,0.0,0.0,0.0,0.0,0.0,0.0,0.0,-1.8072,-1.8655,-1.927,-1.9817,-2.0198,-2.0346,-2.0575,-2.1009,-2.1053,-2.1059,-2.0868,-2.0896,-2.0869,-2.0553,-2.0486,-2.0604,-2.0832,-2.0599,-2.0564,-2.0885,-2.0384,-2.0063,-2.0283,-2.0063,-1.9869,-1.979,-1.9715,-1.9794,-1.9872,-2.0177,-2.0489,-2.0722,-2.1339,-2.1949,-2.2478,-2.2703,-2.2774,-2.2556,-2.265,-2.279,-2.2949,-2.3138,-2.3234,-2.3423,-2.4121,-2.5056,-2.559,-2.6115,-2.6271,0.3046,0.2914,0.3132,0.3085,0.2868,0.2382,0.2277,0.2557,0.2423,0.2958,0.4015,0.4353,0.4057,0.3362,0.3013,0.246,0.1788,0.1087,0.032,-0.0527,-0.1481,-0.2332,-0.3056,-0.3853,-0.4487,-0.5072,-0.6504,-0.7475,-0.8065,-1.0024,-1.1416,-1.2307,-1.3888,-1.5186,-1.6145,-1.7242,-1.8198,-1.9103,-2.1713,-2.3484,-2.4353,-2.6305,-2.7822,-2.8835,-2.8624,-2.8551,-2.8706,-2.7984,-2.7844,-2.8399,-2.8032,-2.7612,-2.7263,-2.6962,-2.5944,0.0,-2.3748,0.0,0.0,0.0,0.0,0.0,0.0,0.0,0.0,-1.9538,-1.9609,-2.0096,-2.0642,-2.115,-2.1517,-2.1278,-2.1307,-2.172,-2.168,-2.149,-2.1237,-2.135,-2.1312,-2.0922,-2.0957,-2.1066,-2.1066,-2.0561,-2.041,-2.0851,-2.0278,-1.9837,-2.0155,-2.0068,-1.9928,-1.9901,-1.9942,-1.9923,-1.9934,-2.0362,-2.0702,-2.0884,-2.1451,-2.2025,-2.2542,-2.2692,-2.2678,-2.2612,-2.2588,-2.2576,-2.2117,-2.2419,-2.2811,-2.2959,-2.3329,-2.3802,-2.4533,-2.5333,-2.5805,0.3362,0.3132,0.3421,0.3511,0.3426,0.3151,0.317,0.3288,0.309,0.336,0.401,0.417,0.4108,0.3827,0.3049,0.2462,0.1903,0.1113,0.0323,-0.0458,-0.1255,-0.1977,-0.263,-0.3445,-0.4045,-0.4631,-0.608,-0.7224,-0.8099,-0.9826,-1.1316,-1.2511,-1.3888,-1.5174,-1.6373,0.0,0.0,0.0,-2.1327,-2.2673,-2.3606,-2.5044,-2.6353,-2.7448,-2.7587,0.0,-2.7827,-2.7583,-2.7639,-2.8065,-2.7842,0.0,0.0,0.0,0.0,0.0,0.0,0.0,0.0,0.0,0.0,0.0,-2.1843,-2.1357,-2.0366,-2.0323,-2.0358,-2.0536,-2.1344,-2.1992,-2.232,-2.2789,-2.29,-2.2468,-2.241,-2.2083,-2.1246,-2.1207,-2.1093,-2.0693,-2.0382,-2.0275,-2.0556,-2.0166,-1.999,-2.0586,-2.0217,-2.0091,-2.0459,-2.0144,-1.9957,-2.0196,-2.0264,-2.012,-1.9936,-2.0572,-2.0958,-2.1039,-2.1655,-2.2274,-2.2435,-2.2596,-2.2431,-2.1958,-2.204,-2.1957,-2.1246,-2.155,-2.2051,-2.2067,-2.2321,-2.2865,-2.4091,-2.4364,-2.4443,0.3711,0.0,0.3848,0.3956,0.0,0.411,0.4144,0.409,0.3493,0.3465,0.3934,0.4202,0.4206,0.3898,0.3318,0.2854,0.2404,0.1623,0.0871,0.0207,-0.0762,-0.1517,-0.2169,-0.32,-0.3913,-0.4412,-0.5945,-0.7176,-0.816,-0.9925,-1.1466,-1.2696,-1.4086,-1.5377,-1.6497,-1.7571,-1.8602,-1.9603,-2.1236,-2.2483,-2.3432,-2.4763,-2.5996,-2.7083,-2.7198,0.0,0.0,0.0,0.0,0.0,0.0,0.0,0.0,0.0,0.0,-2.5021,-2.4605,-2.4276,-2.3925,-2.3392,-2.2904,-2.2356,-2.2175,-2.1781,-2.1117,-2.1393,-2.1499,-2.1308,-2.2026,-2.2731,-2.321,-2.3149,-2.3037,-2.3167,-2.265,-2.1908,-2.1261,-2.0892,-2.0616,-2.0167,-1.9915,-1.9866,-2.0062,-1.9748,-1.962,-2.0033,-2.0026,-1.9987,-2.0121,-2.0159,-2.0177,-2.0411,-2.0566,-2.0497,-2.02,-2.0532,-2.0937,-2.0792,-2.1199,-2.17,-2.194,-2.2158,-2.2111,-2.165,-2.1688,-2.1687,-2.1289,-2.1423,-2.1698,-2.1824,-2.2073,-2.2454,-2.3138,-2.3166,-2.3194,0.4159,0.4095,0.4364,0.4495,0.4556,0.4888,0.5011,0.4728,0.0,0.0,0.0,0.4323,0.4204,0.3865,0.3519,0.3188,0.2794,0.2168,0.1471,0.0738,-0.0254,-0.1076,-0.1789,-0.29,-0.3693,-0.4244,-0.5903,-0.7217,-0.8193,-1.0017,-1.1559,-1.2752,-1.4163,-1.5452,-1.6637,-1.8054,-1.9011,-1.9472,-2.1007,-2.2355,-2.3434,-2.4497,-2.5676,-2.7019,-2.6933,-2.7029,-2.7355,-2.7137,-2.6975,-2.6925,-2.6708,-2.6503,-2.626,-2.6026,-2.5659,-2.5146,-2.4751,-2.4416,-2.4109,-2.3625,-2.3127,-2.2577,-2.2083,-2.1769,-2.1737,-2.2321,-2.2486,-2.2047,-2.2616,-2.3206,-2.3836,-2.312,-2.2822,-2.3492,-2.2551,-2.1561,-2.1093,-2.0566,-2.0134,-1.967,-1.9558,-1.9518,-1.9618,-1.9357,-1.9275,-1.9598,-1.9806,-1.9851,-1.981,-2.0023,-2.0187,-2.034,-2.052,-2.0526,-2.0272,-2.0414,-2.0565,-2.0471,-2.0825,-2.1231,-2.1511,-2.171,-2.1718,-2.1599,-2.1597,-2.1578,-2.1475,-2.1612,-2.1761,-2.1937,-2.2173,-2.2359,-2.2309,-2.2211,-2.2396,0.4755,0.4561,0.4824,0.509,0.5226,0.5153,0.5022,0.4919,0.4842,0.47,0.4504,0.4311,0.4188,0.4103,0.3462,0.291,0.2571,0.2224,0.147,0.0,0.0,-0.061,-0.1493,-0.237,-0.3164,-0.3899,-0.5789,-0.7307,-0.8348,-0.9875,-1.1232,-1.2395,-1.3416,-1.49,-1.6857,-1.8173,-1.8898,-1.9176,-2.0192,-2.1553,-2.3192,-2.326,-2.4313,-2.637,-2.6098,-2.6228,-2.6957,-2.6909,-2.6876,-2.6742,-2.6606,-2.6364,-2.6063,-2.5954,-2.5659,-2.5146,-2.4855,-2.467,-2.441,-2.3894,-2.3302,-2.2804,-2.2231,-2.1872,-2.1795,-2.2226,-2.2474,-2.2574,-2.2862,-2.3215,-2.3404,-2.3337,-2.3007,-2.2576,-2.2105,-2.1498,-2.0722,-2.0274,-1.9869,-1.9581,-1.9241,-1.9162,-1.9441,-1.9133,-1.9132,-1.9748,-1.9667,-1.9646,-1.9787,-1.9813,-1.9902,-1.9912,-2.0121,-2.0001,-1.991,-2.0072,-2.0354,-2.0339,-2.0919,-2.1311,-2.1439,-2.1578,-2.1618,-2.1386,-2.1595,-2.1675,-2.1493,-2.1663,-2.1937,-2.2123,-2.2309,-2.242,-2.2322,-2.2188,-2.2311,0.5355,0.5219,0.5484,0.5683,0.5815,0.5723,0.5479,0.5147,0.52,0.497,0.4489,0.4487,0.4359,0.4113,0.3937,0.3539,0.2993,0.2886,0.2162,0.1025,0.0671,-0.0093,-0.1164,-0.1958,-0.2705,-0.3488,-0.5188,-0.6762,-0.8107,-0.9412,-1.0776,-1.226,-1.3781,-1.5459,-1.7107,-1.7894,-1.85,-1.8983,-2.007,-2.1268,-2.2495,-2.2736,-2.3768,-2.5748,-2.5145,-2.5177,-2.5999,-2.5596,-2.548,-2.5866,-2.5832,-2.5896,-2.612,-2.601,-2.577,-2.5416,-2.5013,-2.4735,-2.4589,-2.3767,-2.3096,-2.2564,-2.2165,-2.1812,-2.1631,-2.1806,-2.2014,-2.2213,-2.2347,-2.2554,-2.295,-2.32,-2.3197,-2.306,-2.2573,-2.1878,-2.0828,-2.0178,-1.9546,-1.9073,-1.8822,-1.8761,-1.8917,-1.892,-1.9044,-1.9349,-1.9284,-1.9435,-1.9706,-1.9813,-1.9844,-1.9961,-2.0206,-2.0305,-2.0128,-2.0355,-2.0497,-2.0411,-2.0653,-2.0907,-2.0985,-2.1174,-2.1273,-2.1354,-2.162,-2.1719,-2.1604,-2.1877,-2.2161,-2.2334,-2.2531,-2.2531,-2.214,-2.1692,-2.1751,0.6013,0.5939,0.6167,0.6258,0.6213,0.6099,0.5868,0.5513,0.5408,0.5094,0.4629,0.4636,0.4462,0.4135,0.4262,0.4028,0.3509,0.3442,0.2759,0.1713,0.1271,0.0413,-0.075,-0.1482,-0.228,-0.3208,-0.4621,-0.611,-0.7584,-0.8815,-1.0321,-1.2131,-1.3895,-1.5405,-1.6673,-1.7277,-1.7901,-1.8579,-1.9873,-2.0944,-2.1761,-2.2232,-2.321,-2.468,-2.4331,-2.4314,-2.4995,-2.4746,-2.4763,-2.523,-2.5414,-2.5747,-2.621,-2.6082,-2.5901,-2.5642,-2.5185,-2.4775,-2.4508,-2.3711,-2.3008,-2.2466,-2.211,-2.1867,-2.1667,-2.1467,-2.1436,-2.1696,-2.1799,-2.1972,-2.2235,-2.2506,-2.2834,-2.3007,-2.2595,-2.1789,-2.0803,-2.0023,-1.9302,-1.8554,-1.8511,-1.8605,-1.8614,-1.8937,-1.9218,-1.9173,-1.9208,-1.9488,-1.976,-1.9828,-1.9921,-2.0207,-2.039,-2.0498,-2.045,-2.0477,-2.049,-2.0267,-2.0198,-2.0217,-2.031,-2.05,-2.074,-2.1016,-2.1213,-2.1351,-2.1534,-2.1777,-2.197,-2.203,-2.2209,-2.2219,-2.1673,-2.1226,-2.1153,0.6789,0.6767,0.6799,0.6635,0.635,0.6162,0.5996,0.5768,0.5613,0.5419,0.5203,0.4705,0.4532,0.4391,0.4053,0.3779,0.3586,0.347,0.2871,0.1937,0.1644,0.0834,-0.0424,-0.0963,-0.1842,-0.3047,-0.4284,-0.555,-0.6802,-0.8172,-0.9847,-1.1782,-1.2758,-1.3724,-1.486,-1.627,-1.709,-1.737,-1.9045,-2.032,-2.1116,-2.1307,-2.2021,-2.343,-2.3819,-2.4115,-2.4325,-2.5531,-2.5916,-2.558,-2.5967,-2.6264,-2.6206,-2.6063,-2.5937,-2.5844,-2.547,-2.4989,-2.44,-2.3872,-2.3319,-2.2859,-2.2306,-2.2042,-2.2136,-2.1372,-2.1095,-2.153,-2.1686,-2.1581,-2.1393,-2.146,-2.1506,-2.1492,-2.1308,-2.0696,-2.0116,-1.9633,-1.913,-1.8246,-1.8562,-1.8807,-1.8871,-1.9286,-1.9584,-1.9726,-1.9868,-1.9966,-2.0009,-2.0129,-2.0095,-2.0336,-2.0347,-2.0216,-2.0183,-1.9993,-1.9954,-1.9787,-1.9605,-1.9652,-1.9784,-1.9918,-2.0052,-2.0558,-2.0558,-2.0758,-2.0815,-2.0904,-2.1194,-2.1362,-2.1383,-2.1361,-2.1218,-2.0981,-2.1011,0.707,0.7021,0.7426,0.7439,0.717,0.7021,0.6685,0.6174,0.6096,0.5996,0.576,0.528,0.4915,0.4809,0.4632,0.425,0.3676,0.3608,0.3138,0.2288,0.2067,0.1279,0.0125,-0.0395,-0.1332,-0.2646,-0.3642,-0.4901,-0.6428,-0.8105,-0.9702,-1.0984,-1.1633,-1.2483,-1.3557,-1.4354,-1.5118,-1.5932,-1.6907,-1.7905,-1.8993,-1.9971,-2.0911,-2.1793,-2.1842,-2.2127,-2.2725,-2.3224,-2.3619,-2.3961,-2.423,-2.4514,-2.4946,-2.5207,-2.5332,-2.5313,-2.5357,-2.5123,-2.4508,-2.4009,-2.3553,-2.3068,-2.2449,-2.206,-2.1896,-2.1363,-2.1146,-2.125,-2.1326,-2.1275,-2.1071,-2.1224,-2.1313,-2.1181,-2.1125,-2.0779,-2.0147,-1.9726,-1.9226,-1.8636,-1.8711,-1.8977,-1.926,-1.9775,-2.0204,-2.0324,-2.0442,-2.0362,-2.0065,-2.0232,-2.0296,-1.9963,-1.9862,-2.0081,-2.0223,-2.0138,-1.993,-1.9731,-1.9636,-1.9618,-1.9784,-1.9878,-2.0135,-2.0377,-2.0487,-2.0564,-2.0649,-2.0969,-2.1244,-2.1014,-2.0761,-2.0809,-2.0969,-2.0452,-2.0074,0.7517,0.7612,0.8024,0.8017,0.7833,0.7678,0.7246,0.6722,0.6652,0.6563,0.6376,0.5963,0.5677,0.5389,0.5136,0.4534,0.3849,0.3791,0.3397,0.2716,0.2399,0.1708,0.0694,0.0076,-0.0898,-0.2183,-0.3056,-0.434,-0.6135,-0.7776,-0.9056,-0.9849,-1.0541,-1.1308,-1.2101,-1.2654,-1.345,-1.4426,-1.5291,-1.6301,-1.7317,-1.8548,-1.9592,-2.0273,-2.036,-2.0698,-2.1411,-2.1699,-2.2219,-2.3073,-2.3136,-2.3453,-2.4048,-2.4447,-2.4674,-2.4835,-2.5005,-2.5032,-2.4639,-2.4076,-2.3613,-2.3275,-2.2768,-2.2193,-2.168,-2.1308,-2.0954,-2.0641,-2.0607,-2.0578,-2.059,-2.061,-2.068,-2.0736,-2.0819,-2.0643,-2.0069,-1.9821,-1.9535,-1.8937,-1.9057,-1.9275,-1.9502,-1.9943,-2.0227,-2.0104,-2.0245,-2.0375,-1.9996,-2.0194,-2.0165,-1.9516,-1.9726,-2.0004,-2.0185,-1.9961,-1.9801,-1.9655,-1.9472,-1.9459,-1.971,-1.9719,-1.969,-1.9588,-2.0049,-2.006,-1.9642,-2.0076,-2.0589,-2.0307,-2.0067,-1.9957,-1.9924,-1.9426,-1.9233,0.8434,0.8737,0.8462,0.8196,0.7895,0.7645,0.7526,0.7433,0.7278,0.7103,0.6921,0.6804,0.6619,0.6222,0.5325,0.4509,0.4051,0.4051,0.3704,0.3102,0.2687,0.2043,0.1214,0.0522,-0.0565,-0.1825,-0.2603,-0.3926,-0.5817,-0.694,-0.7743,-0.8345,-0.9455,-1.0081,-1.0472,-1.1628,-1.2539,-1.3022,-1.4753,-1.6062,-1.6402,-1.718,-1.7977,-1.8831,-1.9796,-2.0439,-2.0877,-2.2165,-2.2989,-2.3313,-2.3653,-2.4011,-2.4047,-2.4016,-2.4198,-2.4563,-2.4535,-2.4617,-2.4579,-2.3832,-2.3402,-2.3558,-2.3098,-2.2599,-2.1639,-2.115,-2.0607,-1.9791,-1.9632,-1.9522,-1.9616,-1.9285,-1.905,-1.9481,-1.9737,-1.977,-1.9639,-1.9789,-1.9709,-1.9102,-1.9376,-1.9631,-1.9563,-1.9643,-1.9594,-1.9389,-1.9479,-1.9698,-1.9808,-1.9808,-1.9609,-1.9465,-1.9594,-1.9971,-1.9749,-1.9518,-1.9332,-1.9174,-1.9022,-1.8827,-1.8797,-1.8775,-1.8748,-1.8694,-1.8722,-1.8623,-1.8323,-1.8382,-1.8753,-1.8742,-1.8733,-1.8694,-1.8883,-1.8722,-1.8635,0.8708,0.92,0.8991,0.883,0.8786,0.8547,0.8266,0.7992,0.7683,0.7532,0.744,0.7001,0.6742,0.6678,0.5777,0.5082,0.4617,0.4248,0.3771,0.3207,0.2786,0.2231,0.1528,0.0887,0.0,-0.1138,-0.1996,-0.3237,-0.4871,-0.5987,-0.6701,-0.7173,-0.8178,-0.8872,-0.9289,-0.9991,-1.0862,-1.1874,-1.2786,-1.3828,-1.5239,-1.5759,-1.649,-1.7594,-1.8546,-1.919,-1.9462,-2.0394,-2.0994,-2.1298,-2.1799,-2.2116,-2.2199,-2.2898,-2.3571,-2.4015,-2.3907,-2.3738,-2.3618,-2.3139,-2.2763,-2.2581,-2.223,-2.1823,-2.1211,-2.0783,-2.0365,-1.9984,-1.9353,-1.9064,-1.9066,-1.8806,-1.858,-1.8601,-1.8834,-1.9001,-1.8989,-1.8981,-1.8821,-1.8523,-1.8833,-1.9088,-1.9102,-1.9179,-1.9287,-1.9192,-1.918,-1.9108,-1.8899,-1.881,-1.8679,-1.8239,-1.8307,-1.8478,-1.823,-1.872,-1.8934,-1.8694,-1.8488,-1.8335,-1.8265,-1.8203,-1.8154,-1.8385,-1.8154,-1.7884,-1.7894,-1.7956,-1.8071,-1.794,-1.7906,-1.7722,-1.7966,-1.7966,-1.809,0.9233,0.9569,0.946,0.9351,0.9316,0.9019,0.8691,0.8301,0.8111,0.8003,0.7846,0.7406,0.7102,0.6884,0.6225,0.5659,0.5132,0.4466,0.3867,0.3387,0.2966,0.2475,0.1918,0.1308,0.0469,-0.0635,-0.1733,-0.2955,-0.4199,-0.5237,-0.5829,-0.6106,-0.713,-0.7907,-0.8372,-0.8816,-0.9695,-1.0702,-1.1295,-1.2408,-1.3894,-1.476,-1.5587,-1.6545,-1.7526,-1.8269,-1.8749,-1.9236,-1.9732,-2.0111,-2.0491,-2.0783,-2.1147,-2.2346,-2.3231,-2.3504,-2.3325,-2.3203,-2.3051,-2.2639,-2.2316,-2.2156,-2.1847,-2.1441,-2.0914,-2.0479,-2.0174,-1.9767,-1.9293,-1.8796,-1.8728,-1.862,-1.8438,-1.8248,-1.8358,-1.8513,-1.8714,-1.8554,-1.8541,-1.8553,-1.8486,-1.8536,-1.8548,-1.866,-1.8685,-1.8684,-1.846,-1.8165,-1.8252,-1.8191,-1.802,-1.7496,-1.7774,-1.7931,-1.7749,-1.8044,-1.8373,-1.8204,-1.8092,-1.7927,-1.7734,-1.7672,-1.7656,-1.7915,-1.7911,-1.768,-1.7622,-1.7652,-1.7555,-1.741,-1.713,-1.6854,-1.7065,-1.7327,-1.7518,1.0051,1.0128,0.9826,0.9622,0.9425,0.9021,0.8638,0.8537,0.8616,0.8456,0.8238,0.807,0.7772,0.7212,0.6691,0.6117,0.5544,0.4699,0.4085,0.372,0.3199,0.2756,0.2333,0.1748,0.0903,-0.02,-0.1861,-0.3061,-0.3751,-0.4567,-0.5105,-0.5456,-0.6441,-0.7237,-0.7715,-0.8333,-0.9035,-0.9926,-1.0938,-1.1804,-1.2466,-1.4177,-1.5296,-1.5814,-1.6879,-1.7913,-1.8778,-1.8988,-1.9318,-1.9923,-2.0118,-2.0492,-2.1136,-2.2288,-2.308,-2.2845,-2.2791,-2.2883,-2.3001,-2.233,-2.209,-2.2123,-2.2139,-2.1409,-2.0663,-2.0262,-1.9754,-1.9214,-1.8927,-1.8764,-1.8623,-1.8402,-1.8303,-1.8502,-1.8336,-1.8328,-1.8662,-1.8721,-1.8802,-1.8904,-1.8545,-1.8261,-1.8261,-1.8078,-1.7874,-1.7695,-1.7363,-1.7322,-1.7983,-1.8059,-1.7974,-1.7733,-1.7644,-1.7581,-1.7485,-1.7393,-1.7581,-1.771,-1.7639,-1.7521,-1.7302,-1.7168,-1.6896,-1.7025,-1.6832,-1.6633,-1.7036,-1.7005,-1.6597,-1.6434,-1.6132,-1.6007,-1.6115,-1.6409,-1.6845,1.0622,1.045,1.0473,1.0068,0.9542,0.9372,0.9217,0.9004,0.8952,0.8925,0.8912,0.8772,0.8407,0.7833,0.7235,0.6629,0.6027,0.514,0.4346,0.3814,0.3456,0.3011,0.2475,0.1993,0.117,0.0067,-0.0934,-0.1797,-0.2557,-0.3464,-0.4114,-0.465,-0.5745,-0.6584,-0.7032,-0.7972,-0.8833,-0.9558,-1.0264,-1.125,-1.252,-1.3295,-1.4374,-1.5882,-1.6598,-1.7327,-1.8223,-1.828,-1.8399,-1.8648,-1.9066,-1.9629,-2.0314,-2.0779,-2.0925,-2.0827,-2.1164,-2.1272,-2.1197,-2.1311,-2.1182,-2.0824,-2.0496,-2.0135,-1.968,-1.9346,-1.925,-1.9295,-1.9221,-1.9109,-1.9095,-1.8841,-1.8609,-1.8548,-1.8262,-1.8125,-1.8231,-1.816,-1.8129,-1.8176,-1.7912,-1.7764,-1.7751,-1.7542,-1.7499,-1.7473,-1.72,-1.7342,-1.7497,-1.7709,-1.751,-1.7385,-1.7349,-1.7235,-1.7018,-1.6704,-1.6624,-1.677,-1.6802,-1.694,-1.6741,-1.646,-1.6241,-1.6043,-1.5873,-1.5957,-1.6309,-1.6279,-1.591,-1.5605,-1.5452,-1.5314,-1.5229,-1.5539,-1.6097,1.0902,1.0769,1.0794,1.0498,0.9922,0.977,0.964,0.96,0.9458,0.9541,0.9676,0.9591,0.9174,0.8502,0.7945,0.7297,0.6537,0.5839,0.5209,0.4498,0.3981,0.3462,0.2805,0.2338,0.1767,0.0896,0.0066,-0.063,-0.126,-0.2485,-0.3245,-0.3686,-0.4702,-0.5607,-0.6211,-0.7075,-0.7986,-0.913,-0.974,-1.0702,-1.2045,-1.272,-1.3763,-1.5201,-1.59,-1.6471,-1.7088,-1.7343,-1.7671,-1.8012,-1.8597,-1.9202,-1.9661,-1.99,-1.9925,-1.9896,-2.0052,-2.0155,-1.9975,-2.0259,-2.0235,-1.9636,-1.9357,-1.9311,-1.9227,-1.9058,-1.9262,-1.9682,-1.9732,-1.9645,-1.9558,-1.9059,-1.865,-1.8489,-1.8366,-1.814,-1.7846,-1.7415,-1.7365,-1.7461,-1.745,-1.7504,-1.7733,-1.772,-1.7666,-1.7707,-1.7707,-1.7639,-1.7639,-1.7679,-1.7504,-1.729,-1.7156,-1.6928,-1.6499,-1.6133,-1.5739,-1.5781,-1.5885,-1.6021,-1.6061,-1.5681,-1.5382,-1.5414,-1.5299,-1.5465,-1.5782,-1.5651,-1.5383,-1.509,-1.4916,-1.4891,-1.4927,-1.5038,-1.5485,1.1069,1.1194,1.0948,1.0784,1.0577,1.0111,1.0009,1.0147,1.0147,1.0302,1.0532,1.0598,1.0049,0.9205,0.8853,0.8117,0.7145,0.6807,0.638,0.5782,0.5106,0.4328,0.3445,0.2951,0.2583,0.2175,0.1217,0.0527,0.0099,-0.1385,-0.2461,-0.2416,-0.3325,-0.4289,-0.5027,-0.5573,-0.6719,-0.8225,-0.9013,-0.9978,-1.1253,-1.2396,-1.3318,-1.4096,-1.4978,-1.5576,-1.5942,-1.6496,-1.7198,-1.7949,-1.862,-1.8984,-1.9195,-1.9617,-1.9731,-1.9605,-1.9531,-1.9454,-1.9306,-1.9435,-1.9301,-1.9058,-1.8898,-1.896,-1.9202,-1.9171,-1.9308,-1.9774,-1.9965,-1.9977,-1.96,-1.8966,-1.8446,-1.8396,-1.8266,-1.8026,-1.746,-1.6775,-1.683,-1.7209,-1.7198,-1.7235,-1.8114,-1.8068,-1.8082,-1.8121,-1.8117,-1.8009,-1.789,-1.7647,-1.7685,-1.7315,-1.673,-1.6143,-1.5558,-1.5627,-1.5172,-1.4672,-1.489,-1.5291,-1.5336,-1.5008,-1.4884,-1.4886,-1.4868,-1.5017,-1.5184,-1.5223,-1.5057,-1.4825,-1.4717,-1.4663,-1.4691,-1.4796,-1.4945,1.1561,1.1501,1.1521,1.1205,1.0753,1.0603,1.0677,1.0771,1.0847,1.1164,1.1498,1.1693,1.1145,1.0069,0.9853,0.8984,0.7931,0.7492,0.72,0.6875,0.6627,0.5607,0.4454,0.3884,0.3616,0.3341,0.2683,0.2164,0.1828,0.0589,-0.023,-0.0758,-0.1742,-0.2557,-0.3223,-0.4064,-0.5132,-0.634,-0.758,-0.879,-1.012,-1.146,-1.2681,-1.3739,-1.4407,-1.5058,-1.5647,-1.5938,-1.6707,-1.7902,-1.8263,-1.84,-1.8356,-1.8601,-1.8683,-1.8566,-1.8889,-1.9018,-1.889,-1.912,-1.9061,-1.8513,-1.8367,-1.8327,-1.8318,-1.8308,-1.8553,-1.892,-1.9077,-1.9092,-1.892,-1.8513,-1.8214,-1.8065,-1.7783,-1.7522,-1.7378,-1.7179,-1.7102,-1.728,-1.7176,-1.7325,-1.7533,-1.7669,-1.7669,-1.7619,-1.7555,-1.7505,-1.7398,-1.6944,-1.6703,-1.625,-1.5707,-1.511,-1.4758,-1.489,-1.4588,-1.3744,-1.3953,-1.4637,-1.4641,-1.4433,-1.4538,-1.4664,-1.4537,-1.4615,-1.4969,-1.519,-1.4915,-1.4441,-1.4454,-1.4345,-1.4386,-1.4459,-1.4645,1.1937,1.1872,1.2047,1.1881,1.1479,1.1531,1.1715,1.1886,1.1961,1.2236,1.2671,1.2891,1.2498,1.1628,1.1155,1.0333,0.9287,0.8865,0.8442,0.7998,0.7873,0.7001,0.5846,0.5356,0.5212,0.4953,0.4334,0.3945,0.3556,0.2527,0.1722,0.1138,0.013,-0.0652,-0.1101,-0.2105,-0.3282,-0.4479,-0.5822,-0.7212,-0.8718,-1.0411,-1.1662,-1.2761,-1.3521,-1.4397,-1.5118,-1.5289,-1.587,-1.6843,-1.7401,-1.7611,-1.7624,-1.7958,-1.8035,-1.7883,-1.824,-1.836,-1.8332,-1.8577,-1.8493,-1.8045,-1.7863,-1.7932,-1.799,-1.8028,-1.8329,-1.8776,-1.8869,-1.8731,-1.8322,-1.7866,-1.7515,-1.7287,-1.7046,-1.7013,-1.7236,-1.6918,-1.6931,-1.7081,-1.7186,-1.7305,-1.7433,-1.754,-1.7522,-1.7456,-1.7246,-1.7074,-1.6845,-1.6169,-1.5571,-1.5225,-1.5052,-1.4631,-1.4041,-1.397,-1.4284,-1.3515,-1.3388,-1.4034,-1.4221,-1.4101,-1.4109,-1.4259,-1.4173,-1.4146,-1.4285,-1.439,-1.4186,-1.3906,-1.3985,-1.4163,-1.4237,-1.4106,-1.4259,1.2294,1.2342,1.2555,1.2638,1.2555,1.2602,1.2765,1.317,1.3141,1.3411,1.3835,1.4095,1.3798,1.3377,1.2626,1.1924,1.1228,1.067,0.9982,0.9514,0.9235,0.8684,0.7731,0.7244,0.7111,0.6868,0.6234,0.5942,0.5516,0.4344,0.3491,0.3029,0.2094,0.1436,0.0878,0.0094,-0.1124,-0.2395,-0.3708,-0.5266,-0.7089,-0.907,-1.0672,-1.1619,-1.294,-1.3752,-1.4297,-1.4519,-1.4862,-1.5456,-1.6299,-1.6787,-1.6964,-1.7487,-1.7654,-1.7603,-1.7436,-1.7429,-1.7535,-1.7468,-1.7428,-1.7209,-1.7248,-1.7508,-1.7622,-1.7829,-1.8107,-1.8511,-1.905,-1.8616,-1.8012,-1.7199,-1.6889,-1.6772,-1.668,-1.6819,-1.6892,-1.6504,-1.6279,-1.678,-1.6872,-1.7225,-1.7441,-1.7608,-1.7502,-1.6381,-1.6261,-1.6082,-1.577,-1.5263,-1.4748,-1.4367,-1.4302,-1.4284,-1.3642,-1.3041,-1.3432,-1.3443,-1.3359,-1.3683,-1.4083,-1.4032,-1.3824,-1.3714,-1.3547,-1.3243,-1.296,-1.3001,-1.3253,-1.3374,-1.3459,-1.3868,-1.4166,-1.383,-1.3794,1.3148,1.3297,1.3251,1.317,1.3113,1.3259,1.3483,1.3729,1.39,1.4288,1.4693,1.4895,1.4732,1.4335,1.4082,1.341,1.2434,1.2169,1.1718,1.1096,1.1431,1.1139,1.0253,0.9355,0.8832,0.8676,0.8177,0.8025,0.7806,0.6662,0.5553,0.4738,0.3957,0.3326,0.2893,0.2094,0.1515,0.0553,-0.109,-0.3055,-0.516,-0.7637,-0.9611,-1.0866,-1.259,-1.3528,-1.3749,-1.3883,-1.3919,-1.4281,-1.5259,-1.6055,-1.6232,-1.6384,-1.6502,-1.6502,-1.6373,-1.6243,-1.6245,-1.6288,-1.6103,-1.6088,-1.6147,-1.612,-1.6621,-1.6809,-1.7106,-1.7469,-1.7774,-1.7806,-1.7387,-1.7221,-1.6935,-1.6831,-1.6831,-1.6937,-1.7081,-1.6749,-1.6333,-1.6015,-1.5957,-1.579,-1.536,-1.5536,-1.5448,-1.516,-1.5072,-1.4903,-1.4671,-1.4408,-1.3936,-1.3543,-1.3559,-1.3521,-1.3046,-1.2628,-1.3064,-1.3271,-1.3236,-1.3197,-1.3605,-1.365,-1.3329,-1.3081,-1.284,-1.2525,-1.2279,-1.2568,-1.3011,-1.2968,-1.2981,-1.3301,-1.3482,-1.33,-1.3326,1.3973,1.4136,1.4173,1.4154,1.409,1.4306,1.4558,1.4729,1.4943,1.5301,1.568,1.5892,1.5937,1.5785,1.5492,1.4916,1.4301,1.3452,1.3099,1.2854,1.2787,1.2396,1.2343,1.1541,1.098,1.0418,0.9967,0.9743,0.9167,0.8459,0.7327,0.6306,0.549,0.4967,0.4595,0.3837,0.3083,0.2267,0.0959,-0.0773,-0.2713,-0.5356,-0.8491,-1.0645,-1.2573,-1.3622,-1.3723,-1.3733,-1.3748,-1.3908,-1.4449,-1.5124,-1.5558,-1.5783,-1.5957,-1.601,-1.5726,-1.5741,-1.5793,-1.5707,-1.5668,-1.5605,-1.5639,-1.5744,-1.6063,-1.6277,-1.644,-1.6597,-1.6864,-1.7081,-1.6597,-1.683,-1.6768,-1.6425,-1.6414,-1.642,-1.6447,-1.6432,-1.633,-1.5878,-1.5762,-1.5386,-1.4992,-1.4609,-1.4728,-1.5085,-1.462,-1.4427,-1.4277,-1.3918,-1.3179,-1.2804,-1.2824,-1.2689,-1.2309,-1.2318,-1.2805,-1.2962,-1.2953,-1.289,-1.3036,-1.2916,-1.2686,-1.2607,-1.2555,-1.2221,-1.2071,-1.2436,-1.2663,-1.2694,-1.2712,-1.2799,-1.2858,-1.29,-1.2955,1.4833,1.4988,1.5182,1.5227,1.5241,1.5477,1.5677,1.5933,1.6138,1.6327,1.6638,1.6935,1.7036,1.7143,1.6798,1.669,1.6203,1.5127,1.4469,1.448,1.3865,1.3506,1.3418,1.3219,1.2807,1.1807,1.152,1.1029,1.0479,0.9765,0.9022,0.7873,0.708,0.6524,0.6063,0.5319,0.4562,0.3765,0.2861,0.1604,-0.0221,-0.2951,-0.6599,-1.0924,-1.2511,-1.3561,-1.3823,-1.3952,-1.3952,-1.3983,-1.3848,-1.4217,-1.481,-1.5313,-1.5732,-1.578,-1.528,-1.5159,-1.5245,-1.5245,-1.5211,-1.5484,-1.5469,-1.5536,-1.5573,-1.5914,-1.6087,-1.6174,-1.6314,-1.6546,-1.5848,-1.622,-1.6214,-1.5852,-1.5707,-1.5637,-1.5663,-1.5946,-1.5934,-1.578,-1.5338,-1.4936,-1.4721,-1.447,-1.4745,-1.4835,-1.4355,-1.3924,-1.3742,-1.3424,-1.2705,-1.2339,-1.2372,-1.2485,-1.2165,-1.1974,-1.2466,-1.2383,-1.2445,-1.2453,-1.2342,-1.1929,-1.1809,-1.2396,-1.2361,-1.2018,-1.1867,-1.2123,-1.2289,-1.2366,-1.2316,-1.2277,-1.2376,-1.255,-1.2524,1.593,1.6204,1.6068,1.6056,1.6111,1.6296,1.6491,1.6687,1.6938,1.7142,1.7261,1.758,1.7764,1.7868,1.8113,1.7946,1.745,1.6563,1.5944,1.5728,1.5197,1.489,1.4386,1.4222,1.4031,1.3782,1.3202,1.2673,1.2389,1.1956,1.0648,0.9585,0.8881,0.8247,0.734,0.6594,0.6003,0.5459,0.4782,0.3797,0.2122,-0.1227,-0.5717,-1.0852,-1.2203,-1.308,-1.399,-1.4283,-1.4382,-1.4386,-1.421,-1.4306,-1.4525,-1.4474,-1.4453,-1.4506,-1.4458,-1.4432,-1.4418,-1.4263,-1.416,-1.4146,-1.4222,-1.4416,-1.4727,-1.5107,-1.5505,-1.5851,-1.6045,-1.6221,-1.6133,-1.6116,-1.6203,-1.608,-1.5889,-1.5871,-1.5767,-1.5506,-1.5192,-1.4973,-1.4682,-1.4477,-1.4309,-1.4124,-1.4108,-1.4127,-1.3854,-1.329,-1.2863,-1.2656,-1.2297,-1.2094,-1.206,-1.2173,-1.2184,-1.1991,-1.2008,-1.1695,-1.1679,-1.1745,-1.1498,-1.0894,-1.0923,-1.1734,-1.2039,-1.1826,-1.1783,-1.1828,-1.2006,-1.2126,-1.1932,-1.1722,-1.1942,-1.2109,-1.1801,1.6709,1.6946,1.6946,1.6954,1.702,1.7197,1.7363,1.7495,1.767,1.782,1.7967,1.82,1.8401,1.8571,1.8771,1.8808,1.8548,1.7953,1.7442,1.7088,1.6329,1.5732,1.5181,1.4902,1.4685,1.4486,1.4162,1.3658,1.3272,1.2713,1.1851,1.0782,1.0013,0.9309,0.859,0.7767,0.7153,0.6723,0.623,0.5597,0.4276,0.0315,-0.4891,-0.862,-1.1135,-1.221,-1.3135,-1.3785,-1.4118,-1.4403,-1.4476,-1.4539,-1.4528,-1.4434,-1.4241,-1.4118,-1.4074,-1.3995,-1.3909,-1.3897,-1.4012,-1.3906,-1.3776,-1.3944,-1.436,-1.4779,-1.5132,-1.5462,-1.5616,-1.5566,-1.5172,-1.5564,-1.5564,-1.5246,-1.5178,-1.515,-1.4965,-1.4682,-1.4432,-1.4221,-1.4185,-1.4066,-1.3866,-1.3674,-1.3476,-1.3345,-1.3278,-1.277,-1.2144,-1.1982,-1.1867,-1.1521,-1.1451,-1.1601,-1.1725,-1.1692,-1.1457,-1.113,-1.1033,-1.1102,-1.1006,-1.0562,-1.0763,-1.1401,-1.148,-1.1374,-1.135,-1.1308,-1.1594,-1.1809,-1.158,-1.1429,-1.16,-1.1593,-1.1453,1.7389,1.7682,1.7754,1.7781,1.7847,1.8013,1.8139,1.8278,1.8356,1.8454,1.8567,1.8771,1.8945,1.9111,1.9283,1.9453,1.9594,1.8913,1.8644,1.8176,1.7321,1.6564,1.5912,1.5507,1.51,1.4865,1.4783,1.4382,1.3779,1.3452,1.2767,1.1935,1.0988,1.0215,0.961,0.8807,0.8062,0.7465,0.7207,0.6784,0.4886,0.1397,-0.301,-0.6842,-0.9139,-1.0705,-1.1875,-1.2509,-1.3257,-1.3772,-1.4058,-1.418,-1.448,-1.4563,-1.4438,-1.4198,-1.4217,-1.4149,-1.4056,-1.405,-1.4109,-1.4054,-1.4009,-1.4078,-1.4253,-1.4651,-1.5013,-1.5124,-1.5144,-1.4977,-1.466,-1.4872,-1.4877,-1.458,-1.4363,-1.4211,-1.4199,-1.4078,-1.3943,-1.3806,-1.377,-1.3596,-1.339,-1.3055,-1.2819,-1.2875,-1.2794,-1.2353,-1.1808,-1.1689,-1.1478,-1.0947,-1.0777,-1.0931,-1.1102,-1.1264,-1.0936,-1.0534,-1.0559,-1.0668,-1.0603,-1.0429,-1.0663,-1.067,-1.0813,-1.0731,-1.0747,-1.0822,-1.0972,-1.1069,-1.1047,-1.1185,-1.1475,-1.1703,-1.1719,1.8238,1.8512,1.8434,1.8457,1.8571,1.8663,1.8753,1.8893,1.8995,1.9097,1.9095,1.9298,1.9401,1.949,1.9645,1.975,1.9764,1.9762,1.9421,1.8887,1.8351,1.7457,1.6529,1.6304,1.5715,1.5364,1.5185,1.4916,1.4596,1.4532,1.4064,1.3197,1.2617,1.196,1.0528,0.9978,0.9009,0.8306,0.8419,0.7665,0.5644,0.3095,-0.0607,-0.4087,-0.6907,-0.886,-1.0401,-1.1124,-1.184,-1.279,-1.2574,-1.2866,-1.3583,-1.3812,-1.3823,-1.3947,-1.4229,-1.4579,-1.429,-1.4174,-1.4132,-1.41,-1.4147,-1.4208,-1.4362,-1.446,-1.4642,-1.4587,-1.4641,-1.4634,-1.4517,-1.4637,-1.4622,-1.4581,-1.4485,-1.4478,-1.4389,-1.4077,-1.3883,-1.3333,-1.3274,-1.3095,-1.2876,-1.2499,-1.2175,-1.2271,-1.2247,-1.1791,-1.1398,-1.1205,-1.1104,-1.06,-1.0331,-1.0468,-1.0572,-1.0722,-1.0566,-1.0087,-1.013,-1.0249,-1.0133,-0.9972,-0.9538,-0.9595,-0.9869,-1.0295,-1.0542,-1.0569,-1.0447,-1.0429,-1.0507,-1.0931,-1.1451,-1.169,-1.2003,1.9427,1.8946,1.8943,1.9008,1.9154,1.9213,1.9269,1.9355,1.9439,1.9471,1.9521,1.9657,1.9743,1.9813,1.9953,2.0022,2.0059,2.0145,2.0046,1.9353,1.8744,1.7904,1.7233,1.6711,1.6174,1.5937,1.5889,1.5908,1.5638,1.5169,1.4665,1.4339,1.3781,1.3145,1.188,1.1519,1.11,1.0647,1.0232,0.9154,0.6904,0.4098,0.0987,-0.2223,-0.5193,-0.7318,-0.8635,-0.9527,-1.0368,-1.1326,-1.145,-1.1854,-1.2489,-1.2773,-1.2864,-1.3003,-1.3261,-1.3583,-1.3793,-1.3809,-1.3819,-1.3952,-1.4109,-1.4451,-1.4504,-1.4541,-1.4574,-1.4626,-1.4614,-1.4616,-1.4608,-1.4677,-1.4677,-1.4677,-1.4678,-1.465,-1.4584,-1.4365,-1.4009,-1.3364,-1.2732,-1.2463,-1.2232,-1.203,-1.1643,-1.1488,-1.1458,-1.1132,-1.0737,-1.0417,-1.0364,-1.028,-1.0119,-1.0088,-1.0175,-1.0271,-1.0246,-0.992,-0.9816,-0.9843,-0.9663,-0.9403,-0.921,-0.9169,-0.9537,-0.9945,-1.0316,-1.0258,-1.006,-1.0025,-1.0033,-1.0733,-1.1466,-1.2124,-1.2438,2.0474,1.9657,1.9509,1.9489,1.9594,1.9669,1.968,1.9745,1.976,1.9779,1.9809,1.9912,1.9983,2.0068,2.0167,2.02,2.0219,2.0295,2.0134,1.9583,1.8833,1.7998,1.7334,1.6774,1.6415,1.625,1.5958,1.5977,1.5854,1.5548,1.5144,1.5113,1.4484,1.3942,1.3599,1.3018,1.2462,1.2069,1.0693,0.9426,0.7655,0.3915,0.1322,-0.1266,-0.3764,-0.6202,-0.6996,-0.7824,-0.8811,-0.9779,-1.0255,-1.0703,-1.1488,-1.1876,-1.2087,-1.223,-1.2452,-1.2695,-1.3031,-1.32,-1.3253,-1.3616,-1.413,-1.4719,-1.4709,-1.4757,-1.4785,-1.4813,-1.4785,-1.4766,-1.4766,-1.4813,-1.4823,-1.4813,-1.4804,-1.4748,-1.4663,-1.4425,-1.3888,-1.3082,-1.2382,-1.1634,-1.1471,-1.1458,-1.1204,-1.0829,-1.0586,-1.0451,-1.0245,-0.9984,-1.0012,-1.0133,-1.0125,-1.0054,-1.0068,-1.0058,-0.9938,-0.9857,-0.9738,-0.9678,-0.9631,-0.957,-0.946,-0.9445,-0.941,-0.96,-0.9966,-0.9834,-0.9714,-0.9781,-1.0008,-1.0798,-1.1545,-1.225,-1.286,2.1273,2.1167,2.0177,1.9812,1.9857,1.9876,1.9955,2.005,2.0012,2.0021,2.0068,2.0095,2.0153,2.0253,2.0287,2.0287,2.028,2.0379,1.9967,1.9478,1.8982,1.8061,1.7294,1.6678,1.6315,1.5773,1.5793,1.5738,1.5507,1.5544,1.5319,1.523,1.495,1.4508,1.4162,1.3838,1.343,1.2495,1.0468,0.8946,0.6968,0.3695,0.0122,-0.1076,-0.3231,-0.4963,-0.5349,-0.6319,-0.7277,-0.8378,-0.8699,-0.9405,-1.031,-1.0825,-1.1115,-1.1381,-1.1551,-1.1825,-1.2168,-1.2527,-1.2971,-1.3634,-1.4347,-1.4896,-1.488,-1.4935,-1.498,-1.4992,-1.4962,-1.4931,-1.4914,-1.4925,-1.4931,-1.4946,-1.4973,-1.4971,-1.4807,-1.4442,-1.3857,-1.2886,-1.2146,-1.1574,-1.0828,-1.0829,-1.0803,-1.0464,-1.0383,-1.0254,-1.0239,-1.0059,-1.0083,-1.014,-1.018,-1.0157,-1.0166,-1.0115,-1.0057,-0.9998,-0.9935,-0.9896,-0.987,-0.9793,-0.9681,-0.9481,-0.9397,-0.9499,-0.9573,-0.9606,-0.9623,-0.963,-0.9991,-1.0703,-1.1528,-1.2295,-1.2966,2.2003,2.1507,2.0553,2.0159,2.015,2.0173,2.0227,2.0268,2.0269,2.0263,2.0283,2.0283,2.032,2.0355,2.04,2.0405,2.0424,2.0449,1.9867,1.9263,1.8636,1.7786,1.699,1.6601,1.6504,1.6151,1.6091,1.6147,1.6222,1.5626,1.5363,1.5293,1.5248,1.5119,1.4802,1.4614,1.4434,1.3325,1.0967,0.9073,0.8249,0.3487,-0.007,-0.0277,-0.3242,-0.4802,-0.542,-0.5769,-0.6445,-0.7018,-0.7368,-0.8198,-0.9077,-0.959,-1.0015,-1.0365,-1.0564,-1.086,-1.1248,-1.169,-1.24,-1.3447,-1.4261,-1.4829,-1.4891,-1.4938,-1.5023,-1.505,-1.5066,-1.5009,-1.5094,-1.5062,-1.5055,-1.5099,-1.5127,-1.5144,-1.5007,-1.4678,-1.404,-1.3162,-1.2435,-1.1811,-1.0986,-1.0231,-1.0193,-1.0142,-1.0091,-1.0083,-1.0125,-1.013,-1.0142,-1.015,-1.0182,-1.019,-1.0175,-1.0172,-1.0169,-1.0121,-1.0073,-0.9959,-0.988,-0.9948,-0.9825,-0.9573,-0.9269,-0.923,-0.9269,-0.9456,-0.9585,-0.9697,-1.0022,-1.0536,-1.1397,-1.2343,-1.2724,2.2857,2.2057,2.1175,2.0644,2.038,2.041,2.0425,2.043,2.0419,2.0418,2.0434,2.0422,2.0426,2.0406,2.014,2.0071,1.9924,1.9682,1.9127,1.847,1.7771,1.7109,1.658,1.6243,1.6119,1.6265,1.621,1.6119,1.6035,1.5559,1.5339,1.5282,1.5314,1.5257,1.527,1.528,1.5277,1.4309,1.0928,0.8596,0.7946,0.2329,-0.1485,-0.1614,-0.3871,-0.4831,-0.532,-0.5556,-0.5884,-0.6383,-0.6748,-0.7259,-0.7888,-0.8443,-0.8901,-0.9292,-0.9617,-0.9886,-1.0348,-1.1247,-1.2166,-1.3001,-1.4018,-1.4496,-1.4721,-1.4805,-1.4842,-1.4979,-1.5002,-1.5062,-1.5109,-1.5073,-1.5096,-1.5135,-1.519,-1.5212,-1.5243,-1.4986,-1.4253,-1.3475,-1.2793,-1.2088,-1.1191,-1.0371,-1.0069,-1.0078,-1.0131,-1.013,-1.0151,-1.0171,-1.0153,-1.0174,-1.0194,-1.0176,-1.0156,-1.0156,-1.0136,-1.0116,-1.0039,-0.9817,-0.976,-0.9773,-0.9378,-0.8704,-0.8528,-0.8746,-0.8875,-0.8958,-0.937,-0.9794,-1.0226,-1.0712,-1.1658,-1.2484,-1.2178,2.3784,2.2988,2.2131,2.1301,2.06,2.05,2.0506,2.0486,2.0486,2.0492,2.0484,2.0499,2.0486,2.0318,1.9793,1.9482,1.9249,1.8585,1.7808,1.7187,1.7049,1.6303,1.5783,1.5526,1.5607,1.5368,1.5435,1.5487,1.5381,1.5304,1.5226,1.5197,1.5217,1.5225,1.5282,1.5221,1.5202,1.4316,0.9076,0.7186,0.4874,0.0155,-0.2361,-0.3996,-0.4575,-0.5195,-0.5291,-0.549,-0.5799,-0.6056,-0.656,-0.7093,-0.766,-0.829,-0.874,-0.9113,-0.9315,-0.9702,-1.0271,-1.1553,-1.2107,-1.241,-1.3287,-1.4054,-1.4315,-1.4458,-1.4574,-1.4701,-1.4771,-1.4857,-1.4931,-1.4979,-1.498,-1.5058,-1.5097,-1.5133,-1.5126,-1.5028,-1.4247,-1.3429,-1.2945,-1.2381,-1.1451,-1.0635,-1.0161,-1.0042,-1.0158,-1.0185,-1.014,-1.0118,-1.0075,-1.0093,-1.0089,-1.0098,-1.0071,-1.0118,-1.0135,-1.0105,-0.99,-0.9557,-0.9217,-0.9003,-0.8482,-0.7799,-0.7862,-0.8135,-0.8304,-0.843,-0.9181,-0.9994,-1.0475,-1.1074,-1.2017,-1.2319,-1.178,2.4198,2.3866,2.3019,2.2162,2.1347,2.0736,2.0511,2.0511,2.0513,2.0501,2.0507,2.0507,2.0508,2.0233,1.9625,1.9137,1.8999,1.8294,1.7431,1.6665,1.6557,1.6074,1.5559,1.5257,1.5229,1.5216,1.5168,1.516,1.5236,1.517,1.5133,1.5121,1.5094,1.5088,1.5088,1.5044,1.5004,1.4398,1.0942,0.7813,0.5252,0.1006,-0.2488,-0.463,-0.5106,-0.5295,-0.5397,-0.5624,-0.578,-0.5921,-0.6397,-0.679,-0.7237,-0.7753,-0.8192,-0.8434,-0.8618,-0.9043,-0.9589,-1.0399,-1.1025,-1.1596,-1.2477,-1.3374,-1.36,-1.3961,-1.4167,-1.4331,-1.4418,-1.4501,-1.4629,-1.4475,-1.4477,-1.4656,-1.4712,-1.4745,-1.473,-1.4568,-1.4076,-1.3233,-1.2598,-1.1515,-1.0532,-1.0457,-1.0147,-0.9857,-0.9917,-0.9929,-0.9887,-0.9906,-0.9883,-0.9925,-0.996,-0.9959,-0.9965,-0.9865,-0.9786,-0.9716,-0.9414,-0.9018,-0.8687,-0.8196,-0.7612,-0.6912,-0.7223,-0.7536,-0.7732,-0.8122,-0.9368,-1.0203,-1.0357,-1.0401,-1.076,-1.0965,-1.0794,2.4634,2.4305,2.3774,2.2831,2.1779,2.1184,2.08,2.0547,2.0507,2.0503,2.0476,2.0471,2.0462,2.0138,1.9331,1.8757,1.862,1.7462,1.6833,1.6136,1.6072,1.5702,1.5385,1.5197,1.5171,1.5135,1.5094,1.5076,1.5076,1.503,1.5011,1.4976,1.4936,1.4856,1.4846,1.4846,1.4055,1.2516,0.9126,0.6026,0.3068,-0.0185,-0.2933,-0.4561,-0.5327,-0.5446,-0.5617,-0.5749,-0.5842,-0.5897,-0.6106,-0.6443,-0.676,-0.7118,-0.753,-0.7705,-0.8003,-0.835,-0.8781,-0.9289,-0.984,-1.025,-1.1683,-1.2614,-1.3031,-1.3487,-1.3651,-1.3819,-1.3931,-1.4051,-1.407,-1.3891,-1.3978,-1.4166,-1.4251,-1.4289,-1.4269,-1.4117,-1.3897,-1.3041,-1.2212,-1.097,-0.9982,-1.003,-1.0059,-0.9839,-0.966,-0.9628,-0.96,-0.9613,-0.9601,-0.9632,-0.9619,-0.9581,-0.9511,-0.9435,-0.9369,-0.9326,-0.8883,-0.8347,-0.769,-0.7135,-0.6586,-0.6124,-0.6232,-0.6492,-0.7097,-0.7822,-0.8876,-0.946,-0.9619,-0.9629,-0.9583,-0.973,-0.9902,2.5094,2.4384,2.4312,2.333,2.191,2.1629,2.1156,2.0516,2.049,2.0441,2.0391,2.0406,2.0394,2.007,1.8749,1.8153,1.7844,1.6367,1.5787,1.5415,1.5455,1.5234,1.5178,1.5094,1.5047,1.5052,1.5015,1.4933,1.4919,1.4921,1.4886,1.4794,1.4718,1.465,1.4639,1.4394,1.3417,1.1458,0.8555,0.5362,0.2145,-0.2072,-0.393,-0.517,-0.5641,-0.5617,-0.5648,-0.5679,-0.5655,-0.5742,-0.5921,-0.6199,-0.6482,-0.6734,-0.6966,-0.7225,-0.753,-0.7753,-0.8003,-0.8501,-0.8919,-0.9541,-1.1135,-1.1978,-1.2443,-1.279,-1.2975,-1.3041,-1.3087,-1.3292,-1.3392,-1.3412,-1.3429,-1.3583,-1.3725,-1.3761,-1.3759,-1.3641,-1.3482,-1.2889,-1.215,-1.1169,-1.0291,-1.009,-0.9904,-0.9616,-0.9373,-0.9158,-0.9144,-0.918,-0.9206,-0.9241,-0.9206,-0.9126,-0.9028,-0.8824,-0.8563,-0.8376,-0.8026,-0.7503,-0.6799,-0.6218,-0.5823,-0.5471,-0.5187,-0.5492,-0.6422,-0.7284,-0.8181,-0.8588,-0.8753,-0.8968,-0.8958,-0.9219,-0.9374,2.5304,2.5077,2.5043,2.403,2.2436,2.1236,2.0612,2.0439,2.043,2.039,2.0324,2.0326,2.0328,2.0205,1.9149,1.8685,1.7927,1.7015,1.627,1.5776,1.5319,1.5046,1.4896,1.4856,1.484,1.4822,1.4794,1.4776,1.4766,1.4794,1.4724,1.46,1.456,1.4485,1.4444,1.4444,1.363,1.2182,0.924,0.5914,0.2687,-0.0743,-0.2913,-0.4709,-0.5705,-0.5696,-0.5742,-0.5773,-0.5718,-0.5568,-0.589,-0.6106,-0.5921,-0.646,-0.6893,-0.6966,-0.7184,-0.7362,-0.7578,-0.7927,-0.8389,-0.8928,-1.0175,-1.0933,-1.1418,-1.1836,-1.2146,-1.2225,-1.2274,-1.2408,-1.2567,-1.264,-1.2699,-1.279,-1.2924,-1.3042,-1.3009,-1.2807,-1.2651,-1.2311,-1.1592,-1.1035,-1.0239,-0.9917,-0.9689,-0.9375,-0.9117,-0.8864,-0.8717,-0.8784,-0.8723,-0.875,-0.8671,-0.856,-0.8228,-0.798,-0.7683,-0.7404,-0.7052,-0.668,-0.6108,-0.5579,-0.5167,-0.4967,-0.4916,-0.5345,-0.6037,-0.6849,-0.7547,-0.765,-0.7821,-0.8104,-0.8363,-0.8584,-0.8506,2.5321,2.5303,2.5243,2.4273,2.2593,2.093,2.0223,2.0215,2.0302,2.0328,2.0268,2.0219,2.0219,2.0071,1.9254,1.8752,1.86,1.7404,1.6515,1.5911,1.5546,1.5095,1.483,1.465,1.4687,1.4656,1.4616,1.4587,1.4595,1.4549,1.4483,1.4405,1.4387,1.4375,1.435,1.4325,1.4325,1.301,1.0862,0.7735,0.4498,0.1262,-0.1761,-0.3671,-0.4883,-0.5752,-0.5866,-0.5928,-0.5811,-0.5536,-0.5866,-0.5936,-0.578,-0.6183,-0.6551,-0.6626,-0.6786,-0.7026,-0.7303,-0.7627,-0.806,-0.8538,-0.917,-0.9734,-1.0521,-1.1076,-1.1301,-1.1423,-1.1454,-1.1512,-1.1674,-1.1829,-1.1863,-1.19,-1.2085,-1.2255,-1.21,-1.1858,-1.1649,-1.1453,-1.1009,-1.0513,-1.0079,-0.9819,-0.9645,-0.9598,-0.9233,-0.8707,-0.8562,-0.8527,-0.8324,-0.8172,-0.807,-0.794,-0.7573,-0.7194,-0.6805,-0.6496,-0.6154,-0.576,-0.5319,-0.5126,-0.4881,-0.481,-0.4805,-0.5242,-0.5659,-0.6205,-0.6767,-0.684,-0.6886,-0.7046,-0.7372,-0.7755,-0.7494,2.5171,2.5141,2.4965,2.3938,2.2451,2.0803,2.003,1.992,2.0161,2.0219,2.0159,2.0096,2.0069,1.9897,1.9246,1.892,1.862,1.7802,1.7019,1.6108,1.5782,1.5332,1.4821,1.4497,1.4462,1.4504,1.4504,1.4409,1.4422,1.4368,1.4263,1.4167,1.4211,1.4211,1.4198,1.4177,1.4145,1.3654,1.1591,0.8737,0.5047,0.1651,-0.108,-0.188,-0.3826,-0.577,-0.5883,-0.5959,-0.5974,-0.5756,-0.5662,-0.5732,-0.5787,-0.5811,-0.6044,-0.626,-0.6421,-0.6626,-0.6936,-0.7264,-0.7647,-0.7994,-0.8308,-0.8778,-0.9467,-1.0289,-1.0578,-1.0619,-1.0658,-1.0859,-1.1069,-1.1261,-1.1349,-1.1584,-1.1876,-1.1964,-1.1854,-1.1619,-1.1363,-1.1132,-1.0868,-1.043,-1.0376,-1.0171,-1.0049,-0.9967,-0.9423,-0.8751,-0.8484,-0.8363,-0.7977,-0.7721,-0.7766,-0.7606,-0.6969,-0.6552,-0.5982,-0.56,-0.5414,-0.5042,-0.4744,-0.4652,-0.4629,-0.4728,-0.4841,-0.4873,-0.5192,-0.5807,-0.6148,-0.5996,-0.6018,-0.5998,-0.6293,-0.669,-0.655,2.5019,2.4829,2.3582,2.2779,2.2249,2.066,1.9947,1.9896,1.9969,1.9941,1.9909,1.9909,1.9877,1.9691,1.9463,1.9232,1.8963,1.8345,1.7785,1.6977,1.6342,1.56,1.4959,1.4539,1.4296,1.4185,1.4198,1.4201,1.418,1.4114,1.406,1.4033,1.4023,1.4012,1.4037,1.4026,1.3917,1.3878,1.2869,1.0747,0.7855,0.4584,0.1974,-0.0026,-0.239,-0.402,-0.4663,-0.5836,-0.5703,-0.5467,-0.5435,-0.5491,-0.5634,-0.554,-0.5696,-0.5952,-0.6044,-0.6191,-0.6466,-0.6777,-0.7077,-0.7344,-0.7627,-0.7964,-0.8533,-0.9368,-0.9833,-0.9827,-0.9968,-1.0247,-1.0487,-1.0704,-1.0937,-1.1309,-1.1644,-1.1635,-1.1653,-1.1382,-1.1097,-1.0928,-1.0708,-1.0619,-1.058,-1.0532,-1.0442,-1.0008,-0.9361,-0.8786,-0.8525,-0.8298,-0.7662,-0.7451,-0.7693,-0.7458,-0.6712,-0.6123,-0.5667,-0.541,-0.5287,-0.4793,-0.4261,-0.4256,-0.4341,-0.472,-0.4898,-0.4978,-0.5172,-0.5561,-0.5744,-0.5493,-0.5192,-0.521,-0.5095,-0.536,-0.5273,2.4888,2.4695,2.3469,2.2448,2.1631,2.0715,2.0107,1.9776,1.972,1.9682,1.9625,1.9688,1.9676,1.9521,1.9448,1.9394,1.9228,1.8804,1.8164,1.7509,1.6923,1.6007,1.5342,1.4734,1.4264,1.4061,1.3856,1.3818,1.3888,1.383,1.3771,1.3789,1.3761,1.3776,1.3848,1.3806,1.3806,1.3865,1.3838,1.2715,1.0645,0.7836,0.5712,0.3425,0.0503,-0.1575,-0.3313,-0.4653,-0.5446,-0.5207,-0.5081,-0.5106,-0.5163,-0.5099,-0.5226,-0.5383,-0.5508,-0.5602,-0.5913,-0.6191,-0.6466,-0.6738,-0.6978,-0.7325,-0.7647,-0.8464,-0.9068,-0.9153,-0.9493,-0.9776,-1.0015,-1.0255,-1.0591,-1.0936,-1.1166,-1.1288,-1.1174,-1.0966,-1.0912,-1.0934,-1.0675,-1.0413,-1.0403,-1.0393,-1.0259,-0.9943,-0.9292,-0.8992,-0.8704,-0.8369,-0.7684,-0.7241,-0.7546,-0.7183,-0.6369,-0.5902,-0.5538,-0.5331,-0.5264,-0.4865,-0.4478,-0.416,-0.4104,-0.461,-0.5005,-0.5182,-0.5405,-0.5605,-0.5427,-0.5187,-0.4788,-0.4437,-0.4331,-0.4318,-0.4432,2.4704,2.4501,2.3622,2.2368,2.097,2.07,2.0211,1.9559,1.9471,1.9398,1.9338,1.9462,1.9397,1.928,1.9191,1.9182,1.9081,1.8904,1.8423,1.8034,1.7658,1.6741,1.588,1.5145,1.4467,1.3885,1.358,1.3536,1.3557,1.3508,1.3491,1.3476,1.3526,1.3573,1.3653,1.3717,1.3733,1.3731,1.3715,1.3731,1.2388,1.0958,0.9303,0.6681,0.3404,-0.0104,-0.1547,-0.3203,-0.4803,-0.4852,-0.4596,-0.4564,-0.4628,-0.4596,-0.4692,-0.4852,-0.4877,-0.5099,-0.5414,-0.5564,-0.5851,-0.6129,-0.6374,-0.6695,-0.7065,-0.7493,-0.8108,-0.8613,-0.8973,-0.9255,-0.9506,-0.9864,-1.0188,-1.0587,-1.0788,-1.1002,-1.0843,-1.0713,-1.0798,-1.0903,-1.0607,-1.0332,-1.0277,-1.0261,-1.0012,-0.9694,-0.9478,-0.9231,-0.8945,-0.8588,-0.8082,-0.7598,-0.749,-0.6945,-0.6197,-0.5999,-0.5794,-0.5581,-0.5502,-0.5091,-0.4757,-0.4593,-0.4541,-0.4719,-0.5057,-0.5411,-0.5408,-0.547,-0.5222,-0.5001,-0.4445,-0.4077,-0.4027,-0.4017,-0.4027,2.4317,2.3589,2.2635,2.1646,2.0685,1.9963,1.9479,1.9353,1.9326,1.9266,1.9168,1.917,1.9168,1.9117,1.9069,1.9002,1.8896,1.8861,1.8788,1.8445,1.7879,1.7276,1.6483,1.5453,1.4512,1.3916,1.3512,1.3378,1.3312,1.3278,1.3295,1.3379,1.3278,1.3362,1.3493,1.3527,1.3494,1.351,1.3575,1.3573,1.3557,1.2323,1.1184,0.854,0.5427,0.2359,-0.0217,-0.3069,-0.3951,-0.4135,-0.3981,-0.3935,-0.394,-0.4044,-0.4127,-0.4215,-0.4242,-0.4462,-0.4712,-0.5004,-0.532,-0.5484,-0.5795,-0.6238,-0.6522,-0.6747,-0.738,-0.8069,-0.8399,-0.8637,-0.8931,-0.9378,-0.9776,-1.0293,-1.0635,-1.0819,-1.0848,-1.087,-1.0933,-1.0775,-1.052,-1.033,-1.0276,-1.0094,-0.9801,-0.962,-0.9725,-0.9429,-0.8874,-0.8624,-0.8318,-0.795,-0.7509,-0.7093,-0.6549,-0.652,-0.634,-0.6089,-0.5807,-0.5523,-0.5293,-0.5173,-0.5163,-0.5124,-0.5437,-0.5844,-0.5752,-0.5621,-0.5252,-0.4988,-0.4225,-0.3788,-0.38,-0.3867,-0.4007]}]]